Upgrade Notice

The CPAN Testers Statistics site has been upgraded since you last accessed the site. Please press the F5 key or CTRL-R to refresh your browser cache to use the latest javascript and CSS files.

New Distributions submitted during 2010

Contents

Below are all the distributions released for the first time during 2010

New Distributions for January 2010 (213)

AuthorDistributionVersionRelease Date/Time
RSAVAGECGI-Office-Contacts1.002009-12-31 22:16:53
RSAVAGECGI-Office-Contacts-Donations1.002009-12-31 22:17:17
RSAVAGECGI-Office-Contacts-Import-vCards1.002009-12-31 22:17:38
CLKAOFinance-TW-TAIFEX0.282010-01-01 11:28:45
JOHNDDate-Lite0.000_012010-01-01 14:47:10
MRDVTGPS-OID0.072010-01-02 03:26:31
DANBOOData-Leaf-Walker0.012010-01-02 11:05:41
RBONagios-MKLivestatus-Class0.012010-01-02 12:44:05
PERLERCatalystX-Test-Recorder0.992010-01-02 13:55:23
VPITSub-Op0.012010-01-02 16:07:43
JKEENANDateTime-Subspan-Weekly0.012010-01-03 10:53:54
AVARData-Localize-Railsy0.012010-01-03 18:28:54
MIYAGAWAAnyEvent-DBI-Abstract0.012010-01-03 18:41:24
POPPENWWW-Shorten-Flickr0.022010-01-04 04:28:42
PFISCHERAI-ExpertSystem-Advanced0.012010-01-04 12:47:13
DSTHData-TreeDraw0.0.12010-01-04 18:58:44
JKEENANDateTimeX-Subspan-Weekly0.042010-01-04 21:14:41
JNLINSMS-Send-TW-chtsns0.022010-01-04 23:34:48
GFUJIFile-Spec-Memoized0.0012010-01-05 01:12:06
YVESAGOJifty-Plugin-SimpleColor0.12010-01-05 04:44:02
DANJOUNet-Google-DocumentsList0.00_012010-01-05 05:29:09
SPAZMHadoop-Streaming0.1000502010-01-05 07:26:15
FLECERFChromosomeMap0.102010-01-05 10:01:55
BDFOYModule-Starter-AddModule0.10_012010-01-05 11:59:50
GPHATScene-Graph0.012010-01-05 19:29:41
JQUELINDist-Zilla-PluginBundle-JQUELIN1.1000602010-01-06 07:12:12
GPHATBusiness-OnlinePayment-PaymenTech-Orbital1.72010-01-06 08:27:32
PENMAOpenGL-XScreenSaver0.022010-01-06 09:48:23
NIERLEINMonitoring-Livestatus0.302010-01-06 10:29:17
LEOCHARRELEOCHARRE-Digest1.012010-01-06 10:55:46
NIERLEINMonitoring-Generator-TestConfig0.242010-01-06 11:43:09
KAAREStatistics-Welford0.012010-01-06 12:04:45
WSDOOKADRMath-Pell0.52010-01-06 22:14:46
ADAMKAspect-Library-Memoize0.302010-01-06 22:57:49
DMAKIPlack-Server-AnyEvent-Server-Starter0.000012010-01-07 03:25:48
ADAMKAspect-Library-TestClass0.322010-01-07 03:43:25
MORITZEncode-Repair0.0.12010-01-07 06:41:18
JQUELINTask-Dist-Zilla1.1000702010-01-07 07:56:33
GRODITIMooseX-TypeMap0.0010002010-01-07 12:52:18
GLEACHGetopt_Auto1.9.02010-01-07 18:15:13
AFLOTTEFL0.5002010-01-07 19:41:29
MIYAGAWAPlack-Middleware-Auth-Digest0.012010-01-08 04:39:20
LBROCARDNet-FleetDB0.332010-01-08 07:10:52
TOBYINKHTML-HTML5-Microdata-Parser0.012010-01-08 11:21:15
AFLOTTPod-Elemental-Transformer-Include1.0002010-01-08 11:40:05
TOBYINKModule-Install-DOAPChangeSets0.00_012010-01-08 12:42:36
VANAMBURGVANAMBURG-SEMPROG-SimpleGraph0.0012010-01-08 12:55:48
BCARROLLTk-GraphMan02010-01-08 13:08:54
DUNCSApp-ClusterSSH4.00_012010-01-08 16:44:51
ATHOMASONLog-Syslog-DangaSocket1.042010-01-08 17:19:15
JAYKForm-Sensible0.100002010-01-08 17:20:42
RKRIMENJavaScript-V8x-TestMoreish0.0102010-01-08 19:55:59
JQUELINModule-Packaged-Generator1.1000902010-01-09 05:00:59
HOLLYApp-CLI-Plugin-StackTrace1.02010-01-09 07:02:59
ADAMKORLite-PDL0.012010-01-09 12:31:29
TEEJAYPadre-Plugin-Autodia0.012010-01-09 13:08:13
VINSWORLDNet-Syslogd0.012010-01-09 15:09:39
ICYDEEcatalyst-traitfor-controller-breadcrumb-followed0.012010-01-10 06:48:56
RBOMonitoring-Livestatus-Class0.022010-01-10 08:43:45
TROTSKEYAcme-Mahjong-Rule-CC0.102010-01-10 15:00:14
ESSKARMojoX-Session-Store-Rose0.022010-01-10 17:03:59
ANDREWText-Todo0.0.12010-01-10 22:03:15
HAMANOErlang-Interface0.012010-01-11 08:14:27
SHLOMIFGames-Solitaire-BlackHole-Solverv0.0.12010-01-11 10:44:05
JQUELINTerm-Twiddle-Quiet1.1001102010-01-11 11:10:35
XSAWYERXTest-DNS0.012010-01-11 11:12:06
GFUJIData-Clone0.0012010-01-12 01:19:35
MIKEOBSybase-Metadata12010-01-12 08:25:17
IFUSCHINIApache2-ApacheMobileFilter3.002010-01-12 13:35:15
LONERRsastatd0.012010-01-12 14:52:10
KARMANSearch-Query0.012010-01-13 00:08:32
COSIMOTest-Varnish0.012010-01-13 14:28:51
PINXML-Atom-Ext-Inline0.01_012010-01-13 15:32:48
KARASIKMooseX-Lists0.012010-01-13 17:12:07
MARKOVXML-ExistDB0.092010-01-13 17:39:21
VTIBootylicious0.9101012010-01-13 17:59:26
DSTHAlgorithm-GoldenSection0.0.12010-01-13 19:21:47
FRIFFINNet-YAP0.12010-01-14 05:49:29
RPETTETTText-Sass0.12010-01-14 05:52:50
KIMOTOValidator-Custom-Ext-Mojolicious0.01012010-01-14 06:33:30
JQUELINWWW-DaysOfWonder-Memoir441.1001402010-01-14 08:23:22
ALECDoxygen-Lua0.012010-01-14 10:05:59
PEVANSExtUtils-H2PM0.012010-01-14 16:38:56
GUGODAcme-Lingua-ZH-Remix0.102010-01-14 20:30:29
KULPMac-PropertyList-XS0.00_012010-01-14 22:07:52
ICYDEECatalyst-TraitFor-Controller-Breadcrumb-Followed0.022010-01-15 05:09:11
VINSWORLDNet-SNMPTrapd0.012010-01-15 08:56:52
NPLATONOVModule-JSAN0.012010-01-15 13:32:53
FLORAPlack-Test-ExternalServer0.012010-01-15 17:42:16
BTROTTWWW-Tumblr-ThemeParser0.012010-01-15 18:09:53
SMANMyApp1.112010-01-15 22:44:57
ZOULTest-Slow0.012010-01-16 09:03:02
SONGMUMath-CheckDigits0.012010-01-16 10:01:40
ZWONSimulation-DiscreteEvent0.012010-01-16 15:48:30
LBROCARDNet-Amazon-S3-Client-GPG0.332010-01-17 01:57:28
MBROOKSApache2-WebApp-Extra-Admin0.012010-01-17 08:57:16
KAZUHOApp-NoPAN0.012010-01-17 17:10:33
SMANApp-Cinema1.112010-01-17 17:39:00
NIERLEINMonitoring-Availability0.03_32010-01-17 18:40:19
JKEENANParse-File-Metadata0.012010-01-17 21:05:59
DAGOLDENCPAN-Testers-Common-Utils0.0012010-01-17 22:36:38
BLAKEWConfig-Strict0.012010-01-17 22:39:24
SANKOAlien-FLTK20.069702010-01-18 00:33:53
MELODBICx-Shortcuts0.0012010-01-18 07:57:35
BINGOSAAAA-Crypt-DH0.022010-01-18 11:20:08
TOBYINKXML-Atom-OWL0.012010-01-18 17:45:51
POLETTIXWWW-Zooomr-Scraperv0.3.02010-01-18 22:02:14
ADAMKAspect-Library-Timer0.012010-01-19 01:06:10
HARPREETXMS-MotifSetv1.02010-01-19 07:23:18
ADAMKAspect-Library-NYTProf0.012010-01-19 11:03:07
BBCPinwheel0.2.72010-01-19 12:03:02
INFRAREDWeb-Light0.012010-01-19 14:45:10
EXODISTObject-Quick0.0012010-01-19 19:07:41
MSCHWERNTest-Random201001192010-01-19 20:22:30
TOKUHIROMData-Recursive-Encode0.012010-01-19 21:30:12
SHARYANTOLingua-ZH-PinyinConvert-ID0.012010-01-20 03:27:36
TOBYINKRDF-Trine-Shortcuts0.012010-01-20 10:38:03
ALEXKTemplate-Plugin-YUI2-Loader0.01_12010-01-20 11:38:21
MSTEVENSEmail-ARF-Hotmail0.012010-01-20 12:15:41
MAJENSENFSSM-SOAPClient0.012010-01-20 12:52:39
LEOCHARRElsutils1.022010-01-20 13:10:55
LEOCHARREm4a2mp31.012010-01-20 13:37:22
LEOCHARREhtmllinks1.032010-01-20 14:09:27
DOUGDUDEWWW-USF-WebAuth0.0012010-01-20 17:21:19
DSTHStatistics-MVA-Bartlett0.0.12010-01-20 19:54:19
DSTHStatistics-Bartlett0.0.12010-01-20 19:55:51
DSTHStatistics-MVA-BayesianLinearDiscrimination0.0.12010-01-20 19:56:06
DSTHStatistics-MVA-HotellingTwoSample0.0.12010-01-20 19:56:14
DSTHStatistics-MVA-MultipleRegression0.0.12010-01-20 19:57:41
DSTHStatistics-MVA0.0.12010-01-20 19:57:48
DSTHStatistics-MVA-BayesianDiscrimination0.0.12010-01-20 22:20:08
DSTHStatistics-Distributions-Bartlett0.0.12010-01-20 22:32:12
JNLINSMS-Send-TW-Socket2Air0.012010-01-21 04:26:04
KIRILLMPOE-Component-YubiAuth0.012010-01-21 07:40:11
BJDEANModule-Starter-Plugin-DebPackage0.0.12010-01-21 09:31:00
HAGGAIArchive-Zip-Parserv0.0.0_12010-01-21 11:54:26
ROLANDosgishv0.1.0_12010-01-21 14:26:11
ADAMKORDB-CPANRT0.012010-01-21 16:06:49
JMMILLSApp-Nopaste-Service-AnyPastebin0.012010-01-21 16:17:15
PFISCHERYUI-MenuBar-Markup0.012010-01-21 18:54:34
NANISHTTP-Server-Simple-CGI-Simple0.012010-01-21 19:17:51
JUSTINMojolicious-Plugin-SimpleSession0.012010-01-21 21:23:09
KIRSLEImage-Tileset0.012010-01-21 22:22:42
OTYEBook-EPUB0.12010-01-22 01:00:26
ABHKiokuDB-Backend-MongoDB0.012010-01-22 04:36:08
RJBSfewer0.1002202010-01-22 11:21:36
SQUEEKNet-FileMaker0.012010-01-22 12:25:42
STEVANKiokuDB-Navigator0.012010-01-22 17:26:11
DSTHTest-ModuleReady0.0.12010-01-22 17:33:22
MANJUNATHIpmitool0.012010-01-23 02:40:06
RURBANOpcodes0.012010-01-23 07:57:31
JQUELINORDB-CPAN-Mandriva1.1002302010-01-23 10:33:38
LANYProgress-Stack1.002010-01-23 16:08:12
DOUGDUDEWWW-USF-Directory0.0012010-01-24 21:48:03
MITHUNURI-Encode0.012010-01-24 22:40:41
BUNDACIALog-Log4perl-Appender-SpreadSession0.012010-01-25 09:13:12
EXODISTPDT-Config0.0012010-01-25 10:28:59
EXODISTPDT0.0012010-01-25 10:29:14
MGRIMMPod-ROBODoc0.12010-01-25 11:57:30
CHOCOLATEtrue0.012010-01-25 14:22:48
PIERSApache-Auth-AuthMemCookie0.012010-01-25 15:59:59
PRONet-DirectConnect-TigerHash0.022010-01-25 16:38:50
LEOCHARRELEOCHARRE-BogusFile1.012010-01-25 16:55:46
TOBYINKRDF-TrineShortcuts0.032010-01-25 17:52:10
NEKOKAKTest-Fixture-DBIxSkinny0.012010-01-25 21:20:38
EXODISTPDT-Server0.0012010-01-25 21:24:48
KSURIMojoX-Session-Store-File0.012010-01-26 07:12:31
NUCLONMojo-Command-Generate-InitScript0.012010-01-26 07:13:58
TOBYINKRDF-ACL0.012010-01-26 09:28:19
GARUCollision-Util0.012010-01-26 10:51:31
MONSAnyEvent-Worker0.012010-01-26 11:32:56
JKUTEJXML-Char0.012010-01-26 15:13:33
HANENKAMPTest-Able-Runner1.0002010-01-26 15:44:51
JKUTEJString-isUTF80.012010-01-26 15:51:00
ILMARIMooseX-Types-Ro0.0012010-01-26 17:35:44
MELODBICx-Indexing0.0012010-01-27 06:54:33
MELODBICx-DataDictionary0.0012010-01-27 10:40:59
NIGELMCatalyst-Authentication-Credential-RemoteHTTP0.022010-01-27 11:17:48
OTYEBook-FB20.12010-01-27 17:05:02
MARKOVNet-Whois-SIDN0.922010-01-28 07:42:16
YORKWULiberty-Parser0.022010-01-28 08:17:14
BOLAVHash-Diff0.0022010-01-28 09:16:03
CLIFFORDJDate-Holidays-EnglandWales0.012010-01-28 13:29:04
PAWELKROLD64-File-PRG0.012010-01-28 14:24:56
RUZRT-Extension-Utils0.012010-01-28 16:17:29
PEVANSExtUtils-CChecker0.012010-01-28 16:30:08
DOMWiki-Toolkit-Formatter-Pod0.042010-01-28 17:20:24
HINRIKHailo0.012010-01-28 19:50:54
HINRIKPOE-Component-Hailo0.012010-01-28 19:51:06
HINRIKPOE-Component-IRC-Plugin-Hailo0.012010-01-28 19:51:18
YVESAGOJifty-Plugin-Media0.012010-01-29 10:23:18
SUKRIADancer-Logger-Syslog0.12010-01-29 12:31:01
SUKRIADancer-Session-Memcached0.12010-01-29 12:33:02
TOBYINKHTML-HTML5-Microdata-ToRDFa0.012010-01-29 14:02:28
MICHAELEvent-Schedule0.012010-01-30 01:19:00
RSNNet-SSH-Control0.012010-01-30 01:39:06
RSNTest-Timeout0.012010-01-30 01:39:18
RSNTest-TestHarness0.012010-01-30 01:39:29
RSNCapture-System0.012010-01-30 01:39:41
EDOARDOBot-BasicBot-Pluggable-Module-Spotify0.012010-01-30 11:03:33
AGRUNDMAMusicBrainz-Collection0.012010-01-30 12:15:38
RPKELLYFile-Find-Flex0.522010-01-30 14:50:00
JLOPHTYWebService-Jamendo-RSS0.012010-01-30 16:56:55
DOUGDUDETest-Override-UserAgent0.0012010-01-30 23:51:34
JINGRAMData-Maker0.022010-01-31 02:26:26
BGILMOREColloquy-Push0.012010-01-31 03:18:07
LANYProgressBar-Stack1.012010-01-31 09:29:00
FRANCKCDancer-Template-MicroTemplate0.12010-01-31 09:59:10
FRANCKCDancer-Logger-LogHandler0.12010-01-31 10:00:47
HDPCSS-Selector-Parser0.0012010-01-31 10:33:31
ASTEIAcme-13371.02010-01-31 11:24:49
OVIDTest-Class-Most0.012010-01-31 14:10:18
GPHATTemplate-Plugin-Time-Duration0.012010-01-31 18:07:14

New Distributions for February 2010 (208)

AuthorDistributionVersionRelease Date/Time
PRAVEENText-CSV-Basic1.002010-01-31 21:29:00
KARMANSearch-OpenSearch0.012010-02-01 02:04:41
KARMANSearch-OpenSearch-Engine-KSx0.012010-02-01 02:06:12
KARMANSearch-OpenSearch-Engine-SWISH0.012010-02-01 02:09:23
ZIBRINet-SMS-Cellsynt0.22010-02-01 05:21:00
VLYONDBIx-DBO0.012010-02-01 06:47:07
PIXIEPixieLdap0.012010-02-01 08:30:54
CDENTPurple1.22010-02-01 09:20:30
RPKELLYFile-Find-Declare0.612010-02-01 10:24:14
PRAVEENText-CSV-Field1.002010-02-01 10:46:11
TOBYINKHTTP-LRDD0.012010-02-01 13:44:18
MICHAELBot-NotSoBasicBot0.012010-02-01 13:50:14
VINSWORLDCisco-Management0.012010-02-01 14:21:00
PEVANSSocket-Netlink0.012010-02-01 20:37:51
RSAVAGEApp-Office-Contacts1.022010-02-01 23:10:20
RSAVAGEApp-Office-Contacts-Donations1.022010-02-01 23:10:33
RSAVAGEApp-Office-Contacts-Import-vCards1.022010-02-01 23:10:45
KAPPADancer-Session-Cookie0.12010-02-02 09:46:44
KRYDErss2leafnode182010-02-02 14:31:08
DMAKITest-TCP-Multi0.000012010-02-03 04:26:59
DSTHAlgorithm-BaumWelchv0.0.12010-02-03 14:21:53
APOCALTest-Pod-No404s0.012010-02-03 14:45:10
MICHAELXML-xmlapi0.012010-02-03 19:43:23
MICHAELXML-xmlapi-fixed0.012010-02-03 21:05:19
LGEHLENMath-Vector-BestRotation0.0052010-02-04 00:56:04
DMAKITest-Memcached0.000012010-02-04 02:20:11
WINTRUPackage-Transporter0.022010-02-04 02:27:13
MARCELGetopt-Inherited0.012010-02-04 07:38:34
GUGUTest-Pod-Coverage-Permissive0.012010-02-04 10:44:19
SMUELLERMath-ThinPlateSpline0.012010-02-04 11:28:35
MIYAGAWAHTTP-Server-Simple-PSGI0.102010-02-04 13:39:44
BARBIECPAN-Testers-Data-Uploads-Mailer0.012010-02-04 16:09:42
KIMHAWTINMojoX-Auth-Simple0.022010-02-04 18:17:01
DMAKIAnyEvent-HTTP-MXHR0.000012010-02-04 22:38:58
KNTONASBing-OpenSearch0.0.12010-02-05 02:37:46
NUFFINKiokuX-Model-Role-Annotations0.012010-02-05 14:23:09
REVMISCHARTSP-Client0.12010-02-06 01:00:55
NCLEATONSort-Bucket0.012010-02-06 11:34:06
MIYAGAWAPlack-Middleware-File-Sass0.012010-02-06 14:20:49
SEWITie-DBIx-Class0.012010-02-06 16:57:15
FLAMEYWWW-Yandex-Catalog-LookupSite0.012010-02-06 19:05:22
MICHAELParse-RecDescent-Simple0.012010-02-06 22:33:47
REVMISCHARTSP-Proxy0.012010-02-07 04:48:22
VVELOXScript-isAperlScript0.0.02010-02-07 11:23:26
SGRAHAMTemplate-Benchmark0.99_012010-02-07 12:20:55
LLAPCPAN-Testers-Reports-Query-JSON0.012010-02-07 16:00:32
DATAWWW-Shorten-URLchenv0.0.12010-02-07 16:36:55
CMCKAYCPAN-Mini-Inject-Server0.022010-02-07 17:53:27
CMCKAYCPAN-Mini-Inject-Remote0.012010-02-07 17:56:16
MSULLANDDevice-USB-PCSensor-HidTEMPer0.012010-02-07 18:00:19
REDICAPSPerl-Net-Douban1.022010-02-07 20:54:32
CYCLESCatalystX-Profile0.012010-02-07 21:17:37
LCONSNet-STOMP0.62010-02-08 05:10:48
REDICAPSNet-Douban1.042010-02-08 06:53:03
MARCELApp-perlzonji0.012010-02-08 08:49:27
TOMITATemplate-Semantic0.012010-02-08 09:03:08
MARCELDist-Joseki-Command-depends0.012010-02-08 09:08:34
MARCELDist-Joseki-Command-smoke0.012010-02-08 09:12:44
TIMBRODYSOAP-ISIWoK1.002010-02-08 09:14:15
MARCELTest-Class-GetoptControl0.012010-02-08 09:37:14
MARCELModule-Pluggable-Loader0.012010-02-08 10:02:44
BINGOSPOE-Component-Captcha-reCAPTCHA0.022010-02-08 10:37:55
CUBCatalyst-TraitFor-Model-DBIC-Shortcut0.012010-02-08 12:07:38
DAMOGDancer-Template-Haml0.012010-02-08 16:07:19
VAYDECGI-Lazy1.062010-02-08 19:29:29
DMAKICache-Memcached-AnyEvent0.000012010-02-08 23:10:12
BYRNENet-PicApp0.12010-02-09 00:33:21
ROOTKWOKAcme-Schrodinger-Do0.012010-02-09 05:02:47
DCMERTENSModule-Build-PDL0.0.12010-02-09 12:24:20
ALEXKTemplate-Plugin-Next0.022010-02-09 13:13:46
LEMBARKLinkedList-Single0.99.12010-02-09 18:50:50
CSJEWELLModule-Install-PerlTar1.0002010-02-09 21:54:40
OESIGTM0.12010-02-10 03:24:27
VVELOXPOD-Walker0.0.02010-02-10 10:21:41
SHURIKOString-Simrank0.072010-02-10 11:39:20
KRAIHMojolicious0.9999202010-02-10 21:04:14
MOBDevel-Trace-Fork0.102010-02-10 23:39:44
OVIDReadonly-BeginLift0.012010-02-11 03:10:02
MGRIMESPlack-Middleware-AutoRefresh0.052010-02-11 08:41:40
JKUTEJDebian-Apt-PM0.012010-02-11 15:52:19
LEIFJHeimdal-Kadm50.082010-02-11 16:45:54
RUZHTML-Quoted0.012010-02-11 17:50:07
CMCKAYlocal-lib-profiles0.032010-02-11 18:01:33
RUZGeo-IP-RU-IpGeoBase0.032010-02-11 18:09:33
DCMERTENSPDL-Fit-Householderv0.0.12010-02-12 03:44:41
BLUECURIOSeqDiffv0.12010-02-12 11:18:40
CHRISAMooseX-Types-Varchar0.012010-02-12 18:16:32
POTYLDevel-TraceVars0.012010-02-13 14:07:55
VVELOXNet-DNS-RR-SRV-Helpe0.0.02010-02-13 19:14:25
VVELOXNet-DNS-RR-SRV-Helper0.0.02010-02-13 19:18:21
PEVANSSocket-Netlink-Route0.012010-02-13 22:48:42
ANDYXSLT-Dependencies0.12010-02-14 06:48:21
DULHessian-Tiny0.012010-02-14 08:49:07
BLADEJunction-Quotelike0.012010-02-14 10:41:21
SPROUTWWW-Scripter-Plugin-JavaScript-SpiderMonkey0.0012010-02-14 16:06:12
MICHAELParse-Indented0.012010-02-14 17:04:51
KYOMAIODPText-LAS-Parser0.012010-02-14 20:15:16
AIVATURIVMware-LabManager0.012010-02-15 01:42:25
MARKOVTie-Nested0.102010-02-15 04:28:01
YANOTHERsrcat0.022010-02-15 05:45:26
BILLWbw-lib1.1.12010-02-15 10:54:49
DRTECHElasticSearch0.012010-02-15 13:23:45
CRABTREEText-ParseAHD02010-02-15 13:48:56
STRZELECGtk2-Ex-Spinner0.12010-02-15 15:46:35
MICHAELClass-Declarative0.012010-02-15 19:44:06
MIYAGAWATwiggy0.10002010-02-15 21:00:30
MIYAGAWAStarman0.10002010-02-15 21:02:01
XENOCIDETemplate-ShowStartStop0.022010-02-15 21:42:44
FRODWITHPOE-Component-Server-PSGI0.52010-02-16 00:40:30
MIYAGAWAPlack-Handler-AnyEvent-ReverseHTTP0.032010-02-16 03:18:47
MACKENNAIP-World0.12010-02-16 03:27:42
SMUELLERSOOT0.012010-02-16 06:12:28
JTANGCatalyst-Plugin-ErrorCatcher-ActiveMQ-Stomp0.0010002010-02-16 07:09:50
PJACKLAMMath-BigInt-Random-OO0.012010-02-16 08:21:46
YOSHIMIDBIx-Skinny-Pager0.012010-02-16 10:37:36
TPABANginx-ReadBody0.042010-02-16 11:19:50
TIMBPostgreSQL-PLPerl-Call1.0022010-02-16 11:42:56
RJBSMooseX-Worm0.1004702010-02-16 12:30:07
RJBSMooseX-SetOnce0.1004712010-02-16 13:31:41
OKKOCatalyst-Controller-MovableType0.0012010-02-16 14:59:47
TRCJRTest-Reporter-Transport-Net-SMTP-SSL0.12010-02-16 23:15:18
VTIObjectDB0.9901012010-02-17 07:20:15
YOSHIMIDBIx-Skinny-ProxyTable0.012010-02-17 08:18:35
BILLWbw-db1.0.42010-02-17 12:20:52
MARTSyntax-Highlight-JSON0.012010-02-17 15:48:53
TSAFSERGEArrayHashSearch0.012010-02-17 16:30:27
GONERIFusionInventory-Agent2.0beta22010-02-17 17:31:54
FRODWITHWebGUI-PSGI0.12010-02-17 19:35:32
TSAFSERGEParallel-ThreadContext0.012010-02-17 21:53:09
DAGOLDENCPAN-Visitor0.0012010-02-17 22:42:06
MALLENTable-Simple0.012010-02-18 00:48:56
IDOPERELDancer-Template-Tenjin0.012010-02-18 05:58:35
XSAWYERXDancer-Template-Tiny0.012010-02-18 06:20:26
BINGOSApp-SmokeBox-Mini-Plugin-IRC0.022010-02-18 07:10:30
LONERRTail-Stat0.012010-02-18 10:49:28
XSAWYERXTask-Dancer0.012010-02-18 10:59:48
BIGPRESHDancer-Session-Storable0.012010-02-18 12:38:57
JQUELINPerl-PrereqScanner0.1004902010-02-18 13:11:27
ZBLAIRPolycom-Contact-Directory0.012010-02-18 16:58:26
MENGXRGeo-GeoNames-Record0.082010-02-18 17:26:25
AVARHailo-UI-Web0.032010-02-18 19:57:58
DMAKIAnyEvent-FIFO0.000012010-02-18 20:58:11
YANICKDancer-Template-Mason0.000_0012010-02-18 21:34:04
MENGXRGeo-Names-Record0.092010-02-18 22:18:27
DSKOLLNet-DNSBL-Client0.1002010-02-18 22:46:12
ALFIEScalar-Array0.022010-02-19 15:07:33
STELLARDendral-HTTP-Request0.0.12010-02-19 15:10:00
VINSWORLDWin32-LockWorkStation0.01-w2010-02-19 15:59:24
EXODISTTest-Exception-LessClever0.0012010-02-19 16:29:36
DOYLocale-POFileManager0.012010-02-19 18:30:31
TOBYINKHTML-Microformats0.00_002010-02-19 19:21:40
MIYAGAWAApp-cpanminus0.012010-02-19 21:27:00
DHOSSForm-Sensible-Reflector-DBIC0.032010-02-19 22:39:37
GFUJIMouseX-NativeTraits0.001_012010-02-20 01:53:37
MENDELCatalyst-Plugin-I18N-PathPrefix0.012010-02-20 09:57:00
RJBSVersion-Requirements0.1005102010-02-20 17:28:15
DRTECHAlien-ElasticSearch0.012010-02-20 20:15:08
FREWLog-Contextual0.001002010-02-21 00:58:15
GREENBEANperl-Asterisk-AMI0.1.42010-02-21 01:39:59
TOKUHIROMApp-cpanoutdated0.012010-02-21 06:56:43
TRIDDLEXML-TreePuller0.0.12010-02-21 09:43:19
ROGERHALLNCBIx-eUtils-GeneAliases0.902010-02-21 11:55:08
FLORACatalyst-TraitFor-Request-XMLHttpRequest0.012010-02-21 13:06:49
SMUELLERSOOT-App0.012010-02-21 15:46:34
ARISTOTLEXML-Builder0.9002010-02-21 20:21:31
JHELWIGBot-BasicBot-Pluggable-Module-Gitbot0.012010-02-21 21:30:40
ABLUMRPM-Make-DWIW0.12010-02-22 02:56:01
STUIFZANDNet-Google-AuthSub-Oncev0.1.02010-02-22 07:17:14
TUCOTemplate-Plugin-DataRandom0.012010-02-22 10:11:25
OLIVEREWS-Client0.012010-02-22 14:08:17
JJNAPIORKHTML-FormHandlerX-Field-reCAPTCHA0.012010-02-22 16:14:15
TOMITAEmail-Address-JP-Mobile0.022010-02-22 18:43:44
OLIVEREWS-Calendar-Viewer0.012010-02-22 19:18:01
MIYAGAWAPlack-Handler-SCGI0.012010-02-22 22:20:39
MIYAGAWAPlack-Handler-AnyEvent-HTTPD0.012010-02-22 22:25:19
ZBLAIRPolycom-Config-File0.012010-02-23 04:01:45
GAMXML-EDv0.0.12010-02-23 12:36:57
SHOORICKLingua-RU-Inflect0.012010-02-23 15:29:54
WINTRUPackage-Autoloader0.012010-02-24 16:09:35
DONEILLSys-Detect-Virtualization0.1002010-02-24 17:22:35
NESNes1.00_012010-02-24 17:52:40
MAGGIEXYZWordNet-BestStem0.2.12010-02-24 19:09:21
MWELLSBusiness-OnlinePayment-GlobalPayments0.022010-02-24 20:51:15
MWELLSBusiness-OnlinePayment-WesternACH0.082010-02-24 21:03:11
SBECKArray-AsObject1.022010-02-25 07:57:56
RAPMANKINDateTime-Event-Jewish0.012010-02-25 08:24:35
SBECKData-Nested3.112010-02-25 09:17:51
GVENKATObject-Composer0.0.12010-02-25 10:08:27
DROOGIEWeather-Airport0.012010-02-25 10:31:55
JKUTEJCPAN-Patches0.012010-02-25 15:20:23
MBEEBEAI-Pathfinding-SMAstar0.012010-02-25 16:25:01
MIYAGAWAPerlbal-Plugin-PSGI0.012010-02-26 01:49:15
CLIFFORDJHash-RenameKey0.012010-02-26 05:22:21
XERNScrapar0.0.12010-02-26 10:19:03
LEOCHARREgooglesearch1.032010-02-26 15:16:40
LEOCHARREimgtrim1.042010-02-26 15:26:45
GRODITIMooseX-Types-Log-Dispatch0.0010002010-02-26 17:36:11
MONSDash-Leak0.012010-02-26 18:12:39
CJMPostScript-Convert0.012010-02-26 20:20:39
HINRIKPOE-Component-IRC-Plugin-ImageMirror0.012010-02-26 20:55:07
HINRIKPOE-Component-IRC-Plugin-RTorrentStatus0.012010-02-27 00:14:58
IKEGAMIXML-Catalogsv1.0.02010-02-27 02:15:15
IKEGAMIXML-Catalogs-HTMLv1.0.02010-02-27 02:16:42
GUGODApp-perlbrew0.012010-02-27 11:09:43
MNCOPPOLAWin32-Skype0.012010-02-27 18:19:42
LEONTPOSIX-RT-SharedMem0.012010-02-28 10:08:09
GBARRDist-Zilla-Plugin-Signature1.1005902010-02-28 10:11:42
MURPHYSyntax-SourceHighlight1.0.02010-02-28 10:48:07

New Distributions for March 2010 (267)

AuthorDistributionVersionRelease Date/Time
EXODISTTest-Suite0.0012010-02-28 22:03:31
SARGIEData-Google-Visualization-DataTable0.012010-03-01 01:04:17
RCLWWW--Pixelletter0.12010-03-01 04:43:54
LCONSNet-STOMP-Client0.82010-03-01 06:14:38
MMORGANPOE-Filter-HTTPD-Chunked0.92010-03-01 06:54:23
PATCHLingua-Conlang-Numbers0.012010-03-01 08:16:29
EXODISTFennec0.0052010-03-01 11:59:52
SIMONWNet-Social-Mapper0.52010-03-01 12:20:42
JKUTEJCPAN-Patches-Plugin-Debian0.012010-03-01 14:37:56
PEVANSFile-lchown0.012010-03-01 15:24:14
TMUELLERHTTP-Exception0.010002010-03-01 15:41:44
APLAWeb-App-Lib-EntityRecord0.012010-03-01 20:09:12
PANGJConfig-Autoload0.012010-03-02 01:49:56
TULSOFTMRS-Client0.522010-03-02 05:04:49
MATIUWWW-AfinimaKi0.12010-03-02 10:09:05
HEYTRAVHessian-Translator1.002010-03-02 13:49:17
SHLOMIFTest-WWW-Mechanize-Mojov0.0.12010-03-02 14:25:19
CLBECKERDB-Batch0.102010-03-02 14:34:34
OPIModPerl2-Tools0.012010-03-02 15:57:56
GRODITICantella-Worker0.0010002010-03-02 19:10:41
BOBTFISHMooseX-Types-LoadableClass0.0012010-03-02 20:52:07
KARMANSearch-Query-Dialect-KSx0.012010-03-03 00:06:18
GRODITICantella-Worker-Role-Beanstalk0.0010002010-03-03 16:13:01
SEWIPerl-Staff0.012010-03-03 16:41:22
RIZENDist-Zilla-Plugin-MetaNoIndex0.01002010-03-03 18:49:55
RBUELSMooseX-Role-DBIx-Connector0.102010-03-03 21:39:55
IKUTARabbitFoot1.002010-03-03 22:04:29
JKEENANCPAN-Mini-Visit-Simple0.0022010-03-03 23:27:29
BINGOSApp-CPANIDX0.022010-03-04 06:58:44
HACHIPAM0.012010-03-04 07:00:13
BINGOSPOE-Component-CPANIDX0.042010-03-04 08:29:44
JKUTEJDebian-Dpkg-Versionv1.15.5.62010-03-04 12:00:53
JAYCEBusiness-OnlinePayment-Litle0.32010-03-04 13:59:36
DAGOLDENNet-Amazon-Config0.0012010-03-04 17:07:07
PERLERBusiness-Price1.000_12010-03-04 19:55:25
BKANEYCellucidate0.012010-03-04 20:56:10
TMUELLERShipIt-Step-ChangePodVersion0.012010-03-04 21:42:17
IKUTANet-RabbitFoot1.002010-03-04 21:57:49
MATEULingua-EN-SimilarNames-Levenshtein0.012010-03-04 23:02:58
ZPMORGANCollision-2D0.022010-03-04 23:06:12
BKANEYBio-Cellucidate0.022010-03-05 00:43:44
DAVIDNICOPOSIX-bsearch0.012010-03-05 04:12:25
AVARApp-Nopaste-Service-Linode0.012010-03-05 08:15:29
GPHATTest-Net-RabbitMQ0.012010-03-05 11:15:05
TMUELLERShipIt-Step-Readme0.012010-03-05 11:22:22
JKUTEJApp-whichpm0.012010-03-05 12:19:36
ACHIMRULingua-Sentence1.002010-03-05 12:45:37
WOOSTERIRC-RemoteControl0.012010-03-05 17:02:45
CLKAOAnyMQ0.282010-03-06 23:16:05
HAGGAIWWW-Freelancerv0.0.12010-03-07 00:21:07
KOORCHIKDebug-LTrace0.012010-03-07 04:05:53
CYCLESTest-Mock0.012010-03-07 11:29:21
CCCPCCCP-Encode0.012010-03-07 15:53:29
GUGODActiveResource0.012010-03-08 01:43:35
ZIGOROUDBIx-ProfileManager0.012010-03-08 03:41:56
MORIYALingua-EO-Orthography0.002010-03-08 07:21:38
GERHARDMooseX-SymmetricAttribute0.0012010-03-08 08:55:12
DAKKARDateTime-Format-GeekTime1.000_0012010-03-08 13:12:06
MITHUNCASCM-Wrapper0.012010-03-08 19:14:47
STUIFZANDDate-Period-Humanv0.2.02010-03-08 19:54:00
JKISTERSys-HostAddr0.92010-03-08 23:28:55
DAGOLDENCPAN-Testers-Metabase1.9992010-03-09 00:07:50
TONODERAColor-Model-RGB1.02010-03-09 03:31:10
HAGGAIAcme-Base64v0.0.12010-03-09 04:34:37
YORKWUPrimeTime-Report0.012010-03-09 08:18:53
CJKWebService-MoviePosterDB0.122010-03-09 08:19:14
CJKHTML-PullParser-Nested0.012010-03-09 08:34:04
JESTOCKSimpleXlsx0.0.12010-03-09 09:45:07
BINGOSTest-App-CPANIDX-Database0.022010-03-09 09:53:04
XINZHENGStatistics-useR0.0.12010-03-09 11:09:58
NUCLONCatalyst-ActionRole-CheckTrailingSlash0.012010-03-10 06:06:46
SHUCAOnosite0.012010-03-10 08:41:21
MARCELPod-Weaver-Section-Installation1.1006902010-03-10 10:19:03
AVARMediaWiki-USERINFO0.012010-03-10 10:24:26
MARCELDist-Zilla-PluginBundle-MARCEL1.1006902010-03-10 11:04:50
MARCELPod-Weaver-PluginBundle-MARCEL1.1006902010-03-10 11:12:18
AJGBCDB-Tiny0.012010-03-10 11:32:44
MARCELClass-Method-Debug1.1006902010-03-10 11:41:44
SANTERITkx-SplashScreen0.12010-03-10 11:42:06
YUSUKEBEModule-Packer0.022010-03-10 15:14:52
JZOBELCindy-Apache20.012010-03-10 16:05:01
MARCELDist-Zilla-Plugin-PodSpellingTests1.1006902010-03-10 17:24:38
TIMBPostgreSQL-PLPerl-Injector1.0022010-03-10 17:36:44
MARCELDist-Zilla-Plugin-KwaliteeTests1.1006902010-03-10 17:43:57
MARCELDist-Zilla-Plugin-PortabilityTests1.1006902010-03-10 17:56:59
MARCELDist-Zilla-Plugin-SynopsisTests1.1007002010-03-10 18:24:02
TROXELDevice-Opto220.92010-03-10 20:44:13
DONEILLParse-SpectrumDirect-RadioFrequency0.1002010-03-10 23:13:02
JHELWIGDist-Zilla-Plugin-ReadmeMarkdownFromPod0.1007002010-03-11 00:57:12
YUSUKEBEData-Validator-Simple0.01_012010-03-11 02:01:20
MARCELDist-Zilla-Plugin-MinimumVersionTests1.1007002010-03-11 03:37:26
MARCELDist-Zilla-Plugin-HasVersionTests1.1007002010-03-11 03:43:36
MARCELDist-Zilla-Plugin-CheckChangesTests1.1007002010-03-11 03:50:27
MARCELDist-Zilla-Plugin-Bugtracker1.1007002010-03-11 06:34:05
MARCELDist-Zilla-Plugin-Homepage1.1007002010-03-11 06:51:03
MIYAGAWACorona0.10002010-03-11 07:41:49
MARCELDist-Zilla-Plugin-InstallGuide1.1007002010-03-11 08:37:15
TIMBPostgreSQL-PLPerl-Trace1.0012010-03-11 08:40:50
ELACOURRT-Extension-UserDetails0.012010-03-11 09:31:41
MARCELDist-Zilla-Plugin-ReportVersions1.1007002010-03-11 09:45:26
TIMBPostgreSQL-PLPerl-NYTProf1.0012010-03-11 13:50:53
DIZHopkins0.900_012010-03-11 17:15:47
GFUJITest-Vars0.0012010-03-12 01:25:03
SIXAPARTWWW-TypePad0.009_012010-03-12 04:06:41
MARCELDist-Zilla-Plugin-DistManifestTests1.1007102010-03-12 04:32:37
AJGBCDB-TinyCDB0.042010-03-12 04:34:45
IDNIronMan-Schema0.032010-03-12 04:41:26
KEMMONSNet-PJLink0.012010-03-12 13:16:56
AVARDist-Zilla-PluginBundle-AVAR0.012010-03-12 13:36:30
AVARDist-Zilla-Plugin-VersionFromPrev0.012010-03-12 15:05:59
DROOGIEWeather-Airport-0012010-03-12 19:56:42
JKEGLMarpa-HTML0.001_0052010-03-12 21:07:44
VVELOXZConf-DBI0.0.02010-03-13 00:59:30
AVARDist-Zilla-Plugin-OverridableMakeMaker0.012010-03-13 02:40:35
HAGGAIPath-Trimv0.0.12010-03-13 03:47:46
VVELOXZConf-DBI-utils0.0.02010-03-13 10:46:13
ACHIMRUText-GaleChurch1.002010-03-13 10:57:12
MSTPLBGAnyEvent-I30.012010-03-13 12:33:13
WKICatalyst-View-ByCode0.072010-03-13 14:48:15
AYOUNGDateTime-Event-Holiday-US1.002010-03-13 16:00:57
NWELLNHOFNet-Google-Analytics0.09999_012010-03-13 20:01:00
DHOUSTONAction-Generic0.0000022010-03-13 22:15:18
OHWOWImage-Imgur0.012010-03-14 00:58:14
DRRHOGraphics-DZI0.022010-03-14 13:34:05
SYNCLOVERMath-Lsoda0.012010-03-14 13:57:15
ELLIOTJSPPIx-Utilities1.0002010-03-14 15:44:19
TRWWWCatalyst-Plugin-SwiffUploaderCookieHack0.012010-03-14 15:57:09
VKONLanguage-Lisp-ECL0.282010-03-14 16:49:13
NITOCPANPLUS-Dist-SUSE0.012010-03-15 02:49:26
KITANOTest-ExistsExecutable0.012010-03-15 09:50:38
ITRUNAEVRELP1.002010-03-15 10:30:33
TEODORNet-Cassandra-Easy0.022010-03-15 12:31:11
STEPHANJAtheme0.00012010-03-15 13:50:28
UGEXECatalyst-Vew-GD-Thumbnail0.012010-03-15 15:23:23
UGEXECatalyst-View-GD-Thumbnail0.022010-03-15 15:35:49
ECARROLLCatalyst-Authentication-Store-DBI-ButMaintained0.02_012010-03-15 15:56:30
BINGOSTest-Reporter-Transport-Socket0.022010-03-15 19:38:43
KOSTNet-Nessus-XMLRPC0.012010-03-15 20:34:28
SARTAKPath-Dispatcher-Declarative0.012010-03-16 10:04:26
MARCELDist-Zilla-App-Command-prereqs1.1007502010-03-16 11:19:17
RKITOVERLingua-EN-Inflect-Phrase0.012010-03-16 11:25:13
GBARRAnyEvent-Beanstalk1.1007502010-03-16 15:32:51
HANENKAMPAcme-Elk1.0002010-03-16 17:02:21
DAGOLDENTask-Metabase1.1007602010-03-16 23:10:22
MATEUBracket0.972010-03-16 23:17:42
DOOMApp-Relate-Complex0.042010-03-16 23:19:55
MAKAMAKADBIx-Skinny-Profiler-ProfileLogger0.042010-03-17 02:36:41
MRGRIPHArchive-Any-Plugin-Rar0.012010-03-17 09:06:48
CAVACMaplat-Web-Logging0.992010-03-17 09:53:03
SHARYANTOLog-Any-App0.012010-03-17 10:06:25
MANTOVANIWWW-IBM-Search0.022010-03-17 16:10:27
BINGOSPOE-Component-Metabase-Client-Submit0.022010-03-17 17:25:39
MSTROUTHTML-Zoom0.0090012010-03-17 17:40:46
CREAMYGKinoSearch11.002010-03-17 21:10:20
CDENTTiddlyWeb-Wikrad0.62010-03-18 04:30:09
MIYAGAWAData-Section-Simple0.012010-03-18 04:56:24
EVIUser-AccountChecker0.012010-03-18 09:41:52
OPERAArepa0.742010-03-18 10:11:32
OLIVERAXL-Client-Simple0.012010-03-18 13:12:15
MKUTTERSOAP-Transport-JABBER0.7112010-03-18 15:17:10
MKUTTERSOAP-Transport-MQ0.7112010-03-18 15:49:20
MKUTTERSOAP-Transport-FTP0.7112010-03-18 16:15:02
DAGOLDENVersion-Next0.0012010-03-18 22:58:34
TOKUHIROMRouter-Simple0.012010-03-19 06:16:29
HACHICache-Memcached-Async0.10_012010-03-19 07:16:18
SGRAHAMDancer-Template-TemplateSandbox0.99_012010-03-19 10:09:02
SATOHText-Xatena0.012010-03-19 11:34:29
EKAWASOWL2Perl0.902010-03-19 12:21:39
CYCLESCatalyst-View-HTML-Zoom0.0012010-03-19 14:30:55
DAGOLDENDist-Zilla-Plugin-BumpVersionFromGit0.0012010-03-19 16:08:27
WINTRUClass-Homonymous_Union0.012010-03-19 17:21:14
EXODISTParallel-Runner0.0012010-03-19 21:54:15
ZEFRAMLexical-Import0.0002010-03-20 07:28:40
BOBTFISHApp-RabbitTail0.0012010-03-20 20:08:11
JOHNDRouter-Lite0.001_012010-03-21 01:53:29
MIYAGAWAPlack-Handler-AnyEvent-SCGI0.012010-03-21 04:31:41
PWBENNETTNet-IPAddress-Util0.012010-03-21 13:13:19
ICYDEEDBIx-Class-Tree-NestedSet0.01_012010-03-21 16:43:20
CATONECatalyst-Model-Memcached0.012010-03-21 17:47:10
JOHNDRouter-Generic0.0022010-03-22 00:36:18
DAGOLDENDist-Zilla-Plugin-CheckExtraTests0.0012010-03-22 01:10:19
SAMVPRANG0.012010-03-22 03:27:18
ITRUNAEVSub-Fork1.002010-03-22 13:49:36
MARTINKColor-TupleEncode0.12010-03-22 18:33:07
ZEFRAMScope-Escape0.0002010-03-22 21:04:15
PDONELANPlack-Middleware-iPhone0.012010-03-23 00:10:46
JROCKWAYHook-Fork0.01_012010-03-23 03:51:25
DIEGOKDBIx-Class-I18NColumns0.012010-03-23 11:04:09
DAGOLDENAcme-Module-Build-Tiny0.012010-03-23 13:07:24
JOHNDASP4x-Router0.0012010-03-23 13:41:08
DOUGWGearmanX-Starter0.012010-03-23 17:05:00
LEEDOJavaScript-Sprockets0.012010-03-23 20:08:00
JOHNDASP4x-Captcha-Imager0.0012010-03-23 20:16:00
JJSCHUTZFile-Tail-Dir0.102010-03-23 21:26:00
JJSCHUTZFile-Tail-Scribe0.102010-03-23 21:26:00
KEEDIPod-Weaver-Section-Encoding0.1008302010-03-24 03:04:46
FRANCKCPlack-Middleware-ETag0.012010-03-24 04:36:20
KEEDIAcme-SaBalTongMun1.1008302010-03-24 06:34:18
KURIYAMABSD-devstat0.012010-03-24 10:09:49
PDONELANDist-Zilla-PluginBundle-PDONELAN1.1008302010-03-24 14:42:25
PDONELANLog-Log4perl-Filter-CallerMatch1.1008302010-03-24 14:49:01
BOSBORNEcaGRID-CQL11.02010-03-24 16:27:54
FRODWITHHTTP-Body-Pairs0.12010-03-24 18:56:22
BOOKWWW-Mailman1.002010-03-24 20:36:15
LEOCHARREtextrender1.082010-03-24 23:01:48
LEOCHARREhtmltag1.022010-03-24 23:36:27
BFAISTMojoX-Renderer-XSLT0.012010-03-25 02:37:11
MSTROUTApp-FatPacker0.0090012010-03-25 05:03:51
HABEGGERWebSource2.4.32010-03-25 05:14:00
SHLOMIFFile-Format-CRDv0.0.12010-03-25 06:18:43
MARCELDist-Zilla-Plugin-FatPacker1.1008402010-03-25 06:48:39
KITANOTest-Skip-UnlessExistsExecutable0.032010-03-25 09:04:05
LEOCHARREyamltk1.072010-03-25 11:32:35
LDSBio-BigFile1.002010-03-25 12:04:47
SMANrpn02010-03-25 13:31:29
DOWENSPod-POM-View-Restructured0.012010-03-25 14:19:50
GONERIFusionInventory-Agent-Task-OcsDeploy1.02010-03-25 16:44:15
NACHBAURCatalystX-FacebookURI0.012010-03-25 19:40:58
KAZUHOStarlet0.052010-03-26 01:43:10
AJGBWWW-Sitemapper0.012010-03-26 12:45:34
JCUAnz_top0.0.12010-03-26 14:42:03
EXODISTDevel-Memalyzer0.0012010-03-26 17:21:53
SCHWIGONWWW-TWikiClient0.112010-03-27 07:00:43
AVARBot-Training0.012010-03-27 14:13:02
AVARBot-Training-MegaHAL0.012010-03-27 14:23:49
AVARBot-Training-StarCraft0.012010-03-27 14:36:53
AVARTask-Bot-Training0.012010-03-27 14:38:40
MARCELDist-Zilla-Plugin-UnusedVarsTests1.1008602010-03-27 18:37:28
ICYDEECatalyst-TraitFor-Controller-jQuery-jqGrid0.012010-03-28 12:05:34
NCLEATONTest-ParallelSubtest0.012010-03-28 14:27:03
GPHATData-Money0.012010-03-28 15:01:14
GPHATData-Money-Converter0.012010-03-28 15:01:28
GPHATData-Money-Converter-WebserviceX0.012010-03-28 15:03:00
BOBTFISHCatalystX-Debug-ResponseHeaders0.0012010-03-28 15:27:22
BOBTFISHCatalystX-Debug-RequestHeaders0.0012010-03-28 15:27:35
WYANTAstro-UTDF0.0012010-03-28 17:45:25
TCAINEMooseX-Types-NetAddr-IP0.012010-03-28 18:10:37
BOBTFISHLog-Message-Structured0.0012010-03-28 20:56:21
ALEXNet-TDMA0.1pre2010-03-28 22:21:24
MARCELSub-Documentation1.1008802010-03-29 13:17:52
MARCELPod-Weaver-Section-CollectWithAutoDoc1.1008802010-03-29 13:34:12
MJGARDNERDist-Zilla-Plugin-Subversion1.1008802010-03-29 14:10:31
MSCHOUTApp-Milter-Limit0.502010-03-29 14:27:19
MSCHOUTApp-Milter-Limit-Plugin-BerkeleyDB0.502010-03-29 14:28:43
MSCHOUTApp-Milter-Limit-Plugin-SQLite0.502010-03-29 14:28:55
BPHILLIPSCatalystX-DebugFilter0.012010-03-29 16:01:08
BINGOSPOE-Component-Metabase-Relay-Server0.022010-03-29 18:53:33
MURRAYVend-Payment-Nova1.022010-03-29 21:29:38
MSCHOUTDist-Zilla-PluginBundle-MSCHOUT0.102010-03-30 00:12:11
CRAFTWORKText-ClearSilver0.10.5.02010-03-30 00:13:52
KEEDIWebService-Yes240.1008902010-03-30 06:25:00
BINGOSmetabase-relayd0.022010-03-30 08:16:00
MSCHOUTPod-Weaver-Section-SourceGitHub0.502010-03-30 11:44:23
MSCHOUTPod-Weaver-Section-BugsRT0.502010-03-30 11:52:32
PEVANSTangence0.012010-03-30 14:14:10
NPEREZCatalyst-TraitFor-Controller-Ping0.0012010-03-30 17:01:47
JASONMAYIO-Multiplex-Intermediary0.012010-03-30 20:44:55
IARNELLConfig-MySQL0.012010-03-31 00:03:30
CMILLSWWW-httpBL0.012010-03-31 00:06:20
ZEFRAMPerl4-CoreLibs0.0002010-03-31 01:13:19
NKHTest-Skip0.01_12010-03-31 07:39:13
YUTACv0.022010-03-31 07:59:44
AVARDist-Zilla-Plugin-MakeMaker-Awesome0.022010-03-31 10:21:05
JEFNet-DashCS0.012010-03-31 12:47:36
JMTORRESJS-JS0.012010-03-31 14:05:18
RJBSTask-Deprecations5_12-1.0002010-03-31 16:37:35
RJBSTask-Deprecations-5_121.0002010-03-31 16:37:35

New Distributions for April 2010 (245)

AuthorDistributionVersionRelease Date/Time
JOHNDASP4x-Linker0.0012010-04-01 01:26:32
MELODist-Zilla-Plugin-LatestPrereqs0.22010-04-01 02:01:14
VVELOXText-CSV-SQLhelper0.0.02010-04-01 09:15:19
SEANOLaTeX-BibTeX0.342010-04-01 12:52:29
MSCHOUTng-daily-wallpaper0.022010-04-01 14:45:09
MSCHOUTDist-Zilla-Plugin-ApacheTest0.012010-04-01 15:44:14
WINTRUObject-Episode0.012010-04-01 17:59:28
BINGOSCPANPLUS-Internals-Source-CPANIDX0.01_052010-04-01 19:23:14
CMILLSWWW-Honeypot-httpBL0.012010-04-01 23:47:51
MARKSTOSCGI-Application-Plugin-Config-Perl1.402010-04-02 10:18:34
PEVANSLinux-SocketFilter0.012010-04-02 12:06:35
SNKWATTDigest-Adler32-XS0.012010-04-02 13:47:20
KMXAlien-Tidypv0.99.42010-04-02 14:38:29
PEVANSSocket-Netlink-Taskstats0.012010-04-02 15:20:43
DULHessian-Tiny-Client0.092010-04-02 16:54:42
GONERIFusionInventory-Agent-Task-NetDiscovery1.02010-04-02 19:28:32
GONERIFusionInventory-Agent-Task-SNMPQuery1.02010-04-02 19:28:43
RRATie-ShadowHash1.002010-04-03 19:43:58
AYATESData-Predicate1.0.22010-04-04 12:04:25
MSTROUTIO-Pipeline0.0090012010-04-04 16:55:42
KJETILKRDF-RDFa-Template0.012010-04-04 16:59:48
TROXELGeo-Coordinates-Transform0.102010-04-04 18:40:50
APOCALCPAN-WWW-Top100-Retrieve0.012010-04-04 19:07:52
SNKWATTAlgorithm-Diff-Fast0.012010-04-04 20:51:24
BITTERAPI-CPanel0.032010-04-05 00:37:36
JHELWIGWWW-StaticBlog0.0012010-04-05 00:59:50
DAVIDNICOScope-local_OnExit0.012010-04-05 01:26:36
ASPEERWebDyne1.1582010-04-05 04:01:49
ZEFRAMScope-Escape-Sugar0.0002010-04-05 08:16:06
HOLLYApp-CLI-Plugin-Log-Dispatch-Configurator-YAML1.02010-04-05 12:09:08
ALTREUSBlog-Blosxom0.012010-04-05 14:28:24
CYCLESFey-SQL-Pg0.0032010-04-05 16:39:24
ROGERHALLAgents-Bureau0.012010-04-05 18:43:59
ROGERHALLAgents-Bureau-BLAST0.012010-04-05 18:44:11
ROGERHALLAgents-Bureau-Smith0.012010-04-05 18:44:22
ROGERHALLAgents-Bureau-Stem0.012010-04-05 18:45:49
ROGERHALLAgents-Platform0.012010-04-05 18:45:59
EXODISTExporter-Declare0.0012010-04-05 21:57:04
CEBJYRENet-Google-FederatedLogin0.0.12010-04-06 02:44:49
XSAWYERXData-Collector0.012010-04-06 05:13:34
DAVIDPDevice-WH10910.012010-04-06 07:09:33
TOMHRRNet-IP-XS0.012010-04-06 08:24:26
FIBOPNI.201004062010-04-06 11:12:44
DRUOSOSedna0.0012010-04-06 11:41:39
PSANNESGeo-BUFR1.02010-04-06 12:14:39
AEROWebService-KoreanSpeller0.0012010-04-06 12:48:15
DRUOSOCatalyst-Model-Sedna0.0012010-04-06 13:49:25
DIEGOKCatalyst-TraitFor-Controller-LocaleSelect0.012010-04-06 15:35:44
DOSNIBBLEVMWare-LabmanSoap0.992010-04-06 18:05:57
SNKWATTText-Extract-Word0.012010-04-06 21:41:41
SHARYANTOData-Dump-PHP0.012010-04-07 06:42:08
RIZENSimpleDB-Client1.04002010-04-07 12:36:17
PDONELANDist-Zilla-Plugin-LocaleMsgfmt1.1009702010-04-07 14:50:37
REHSACKthreads-variables-reap0.012010-04-07 15:13:34
AMBSQuiki0.032010-04-07 16:39:32
KRYDEGtk2-Ex-Dashes12010-04-07 18:10:51
APOCALPod-Spell-CommonMistakes0.012010-04-07 18:19:58
APOCALTest-Pod-Spelling-CommonMistakes0.012010-04-07 19:21:44
BURAKApp-Sys-Info0.102010-04-07 19:44:43
HESCOLingua-EN-NameParse-Simple0.102010-04-07 19:58:55
YVESAGOJifty-Plugin-Authentication-ModShibb0.012010-04-08 08:27:09
ASPEERWebDyne-Request-FastCGI1.0132010-04-08 08:41:18
SMUELLERFile-SharedNFSLock0.012010-04-08 08:45:29
ASPEERWebDyne-Install-Lighttpd0.0032010-04-08 08:55:54
MARCELPermute-Named1.1009802010-04-08 09:48:11
KTHAKORESDLx-Widget0.012010-04-08 10:51:07
ANAKCrypt-FNA0.012010-04-08 12:53:53
KGRENNANTest-Rest0.012010-04-08 20:11:26
SIMCOPLanguage-Farnsworth-Functions-GoogleTranslate0.9.02010-04-08 22:39:48
SIMCOPLanguage-Farnsworth0.7.02010-04-08 22:40:00
RDIETRICHRavenel1.02010-04-08 23:28:28
PERLERMooseX-Attribute-Deflator1.1009902010-04-09 01:33:32
AWWAIIDSDLx-Coro-REPL0.012010-04-09 09:41:56
AWWAIIDSDLx-Coro-Widget-Controller0.012010-04-09 09:43:38
JPLATTERApache2-FakeRequest0.012010-04-09 09:52:48
CSJEWELLApp-local-lib-Win32Helper0.9902010-04-09 13:53:39
NPEREZPOEx-Role-Streaming1.1009902010-04-09 14:43:22
TADAMPlack-Middleware-Accessv0.0.12010-04-09 17:40:19
PVANDETest-Mini0.052010-04-09 20:03:08
KRYDEI18N-Langinfo-Wide12010-04-09 20:13:30
SIZURFile-Dir-Map0.012010-04-09 20:18:51
ASPEERWebDyne-Chain1.0392010-04-10 00:07:08
ASPEERWebDyne-Session1.0312010-04-10 02:57:09
MARCELDist-Zilla-App-Command-cover1.1010002010-04-10 09:15:50
ANDKHash-RenameKey-notgzformat0.022010-04-10 10:13:45
SREZICParse-CPAN-Packages-Fast0.012010-04-10 11:58:31
XSAWYERXModule-Version0.022010-04-10 13:38:29
KEICHNERFile-Vctools0.012010-04-10 14:15:02
NKHData-HexDump-Range0.01_12010-04-10 16:03:37
ZEFRAMScope-Cleanup0.0002010-04-10 19:09:30
VOVAFunifs1.02010-04-10 19:30:14
DAVIDFile-Slurp-Unicode0.7.02010-04-10 20:04:30
JUSTERArchlinux-Messages0.012010-04-11 02:14:34
ZAGPerl6-Pod-Lib0.012010-04-11 02:44:19
HMBRANDTest-Smoke-Metabase0.022010-04-11 05:17:41
ASPEERWebDyne-Template1.0162010-04-11 08:53:28
ASPEERBundle-WebDyne1.0022010-04-11 09:25:17
SQUEEKWWW-Pusher0.012010-04-11 14:15:21
NCLEATONDevel-LineName0.012010-04-11 16:19:31
SAPERPOE-Devel-Top0.0012010-04-11 18:27:05
TURNERMMHTML-WikiConverter-DokuWikiFCK-0.32.10-Feb_0912_162010-04-11 19:30:26
STEVANResource-Pack0.012010-04-11 22:17:11
MMERTELDyckWords0.012010-04-11 23:26:34
BOOKPapery0.012010-04-12 03:59:11
OVIDTask-Toolchain-Test0.012010-04-12 06:58:08
KONOBIApplication-Config0.52010-04-12 15:01:00
NPEREZPOEx-Role-PSGIServer1.1010202010-04-12 16:44:00
DWHEELERPod-Site0.502010-04-12 17:12:01
KTHAKOREGames-FrozenBubble0.001_12010-04-12 17:41:46
MOBSys-CpuAffinity0.902010-04-12 22:23:53
NEKOKAKPerlbal-Plugin-UrlGroup0.032010-04-13 02:15:26
DAVIDPDevice-Velleman-K8055-Client02010-04-13 04:49:03
DAVIDPDevice-Velleman-K8055-Server0.012010-04-13 05:21:16
REHSACKFile-Find-Rule-LibMagic0.012010-04-13 13:40:26
JROBINSONBot-BasicBot-Pluggable-Module-Notes0.012010-04-13 16:30:45
GPHATGeo-Address-Mail0.012010-04-13 16:54:58
GPHATGeo-Address-Mail-Standardizer0.012010-04-13 16:55:10
GPHATGeo-Address-Mail-Standardizer-USPS0.012010-04-13 16:56:37
ASHLEYCatalystX-Plugin-Blurb0.012010-04-13 22:32:31
MMERTELMath-DyckWords0.032010-04-13 23:48:57
PDONELANTask-WebGUI1.1010402010-04-14 00:23:15
OVIDDB-Pluggable-Dumper0.012010-04-14 02:54:27
SAMVXML-SRS0.012010-04-14 03:23:46
SAMVXML-EPP0.012010-04-14 03:49:43
AJGBDBIx-BlackBox0.012010-04-14 08:30:35
SGRAHAMText-Matrix0.99_012010-04-14 09:38:41
YOSHIMIPlack-Middleware-DoCoMoGUID0.012010-04-14 11:07:31
REHSACKFile-Find-Rule-DirCompare0.012010-04-14 14:15:49
PDONELANPlack-Middleware-Status1.1010402010-04-14 16:19:03
NPEREZPoke1.101040-TRIAL2010-04-14 16:59:42
BIGPRESHDancer-Plugin-Database0.012010-04-14 17:40:16
CJMDist-Zilla-Plugin-PodLoom0.082010-04-14 19:28:08
CJMDist-Zilla-Plugins-CJM0.082010-04-14 19:30:59
HAARGPlack-Middleware-ForwardedHeaders0.0012010-04-15 11:44:26
DIZGeo-Address-Mail-Standardizer-USPS-AMS0.012010-04-15 16:02:54
NKHANSIColor-ToHTML0.012010-04-15 18:57:30
NKHApp-Requirement-Arch0.01.142010-04-15 19:09:08
STEFFENWLocale-PO-Utils0.012010-04-16 01:37:55
HESCOCGI-FormBuilder-Config-Simple0.062010-04-16 06:21:15
SCHWIGONLinux-Personality0.012010-04-16 07:46:51
SIRROBERTSet-Toolkit0.012010-04-16 17:26:35
JMMILLSModule-Install-AggressiveInclude0.01_012010-04-16 18:47:05
TROXELDevice-VantagePro0.212010-04-16 20:02:07
MAKAROWARSObject0.502010-04-17 14:56:10
CSTEPHENEBioX-SeqUtils-Promoter0.012010-04-17 18:44:03
KAYSBDevice-SpaceNavigator0.012010-04-17 20:01:09
GFUJIText-Xslate0.001_012010-04-18 01:31:53
TADAMTest-Mock-LWP-Dispatchv0.0.12010-04-18 03:25:11
SMUELLERAlien-ROOTv5.26.02010-04-18 03:59:28
FREWDBIx-Class-DeploymentHandler0.001000_012010-04-18 11:23:41
JMERELOES-Senado0.0.32010-04-18 12:52:40
NKHText-Colorizer0.01_012010-04-18 14:41:45
JAMESRDancer-Plugin-SiteMap0.012010-04-18 14:52:06
DAMISpreadsheet-WriteExcel-Styler1.002010-04-18 15:11:46
AMIRICheckout-CyberSource-SOAP0.012010-04-18 15:38:49
FROGGSAlien-PNG0.12010-04-18 16:04:33
BITMANTest-ShellScript0.012010-04-18 21:19:14
DAGOLDENCPAN-Meta2.1010902010-04-19 00:09:00
NYARLAAcme-GodoWord0.000012010-04-19 00:19:39
RCAPUTODist-Zilla-Plugin-ChangelogFromGit0.001-TRIAL2010-04-19 01:10:14
OLEGWebService-Antigate0.12010-04-19 13:48:13
OALDERSDBIx-MySQL-Replication-Slave0.012010-04-19 14:35:35
BIGPRESHDancer-Template-HtmlTemplate0.012010-04-19 15:11:25
DPMEYERWWW-Instapaper-Client0.92010-04-19 15:56:52
DOYResource-Pack-jQuery0.012010-04-19 16:02:13
DOYResource-Pack-JSON0.012010-04-19 16:43:37
MBRANDONBio-Mitomaster0.102010-04-19 17:53:36
KRYDEGtk2-Ex-MenuView12010-04-19 18:53:13
MUJIWWW-JBANetwork-MNB0.012010-04-19 20:56:30
MUJIWWW-MyNewsletterBuilder0.01b012010-04-20 00:19:34
BINGOSModule-CoreList-DBSchema0.022010-04-20 08:43:16
JCNORTONTk-Canvas-Draw0.052010-04-20 12:04:59
JEREMIAHdh-make-perl0.66.orig2010-04-20 15:35:51
KRYDEupfiles22010-04-20 21:04:28
SETITESUKsetitesuk-Test--Data--Structures-v0.020-g2b1e9612010-04-21 09:15:19
SETITESUKTest-Data-Structures0.022010-04-21 09:19:38
SHARYANTOTask-BeLike-SHARYANTO-Apps0.012010-04-21 11:19:56
JHTHORSENApp-Mypp0.032010-04-21 16:43:53
BLUEFEETDBIx-Meld0.012010-04-21 23:50:57
PAJASTreex-PML2.022010-04-22 08:04:04
MORIYAMooseX-Types-Moose-MutualCoercion0.002010-04-22 11:34:24
AWNCORPOogly0.012010-04-22 12:34:17
DMUEYClass-Action0.12010-04-22 14:13:56
JOEATZBusiness-EDI0.012010-04-22 16:32:48
LEOCHARRELEOCHARRE-X11-WMCtrl0.012010-04-22 17:49:23
CLKAOWeb-Hippie0.302010-04-23 02:22:13
SEAGIRLPlack-Middleware-AMF0.012010-04-23 04:10:28
ALLOLEXSculptor-Date0.012010-04-23 12:10:34
SUNNAVYApp-moduleshere0.012010-04-23 15:20:41
LEOCHARREvimabb1.072010-04-23 21:23:06
BAHOOTYPRDBI-Factory0.052010-04-24 07:56:37
JKUTEJData-Keys0.012010-04-24 15:52:51
RSAVAGECGI-Application-Demo-Basic1.062010-04-24 23:03:46
LEOCHARREkiaki1.022010-04-25 08:13:00
LEONTThread-Const0.0012010-04-25 10:10:37
LEOCHARRELEOCHARRE-Strings1.022010-04-25 16:19:42
LEOCHARRELEOCHARRE-Basename1.052010-04-25 16:41:52
LEOCHARREdsvfields1.042010-04-25 16:52:22
LEOCHARREcpanauthor1.012010-04-25 16:55:11
GTERMARSClass-DBI-Plugin-TO_JSON0.032010-04-25 19:07:26
GTERMARSTemplate-Plugin-LinkTarget0.022010-04-25 19:25:00
DAGOLDENDist-Zilla-Plugin-Twitter0.0012010-04-25 23:47:03
AVARBot-Twatterhose0.012010-04-26 08:11:48
BAHOOTYPRDBIx-Factory0.082010-04-26 10:24:31
TURUGINAModule-Setup-Plugin-VC-Bazaar0.012010-04-26 12:14:58
TODDRMap-Copy0.001_0012010-04-26 13:10:55
KTHAKORESDLx-TTF0.0012010-04-26 15:28:37
RGLAUEGetopt-LongUsage0.102010-04-26 16:56:54
ARODLANDCrypt-PBKDF20.1011602010-04-26 19:45:00
RSAVAGELocale-Nationality-en1.002010-04-26 20:33:30
PSILVAWWW-Wordnik-APIv0.0.12010-04-27 03:48:32
REHSACKthreads-variables-reap-attr0.052010-04-27 08:24:08
NCLEATONTest-LineName0.012010-04-27 10:08:26
SHARYANTOData-Filesystem0.012010-04-27 11:08:10
VTIMojo-JSON-Any0.9901012010-04-27 11:24:15
MDORMANCDB-TinyCDB-Wrapper0.022010-04-27 12:20:34
LKUNDRAKNet-Splunk1.002010-04-27 14:55:04
DSOLIMANOFinance-Bank-SentinelBenefits-Csv401kConverter0.52010-04-27 21:55:35
FRANCKCPlack-Middleware-Throttle0.012010-04-28 03:20:49
DMAKIAlgorithm-ConsistentHash-Ketama0.000012010-04-28 04:47:02
NKHApp-Chained0.02.32010-04-28 05:44:57
TOBYINKXML-LibXML-Debugging0.042010-04-28 06:20:58
LKUNDRAKWWW-Splunk1.022010-04-28 12:18:00
SHELLTUXMerror1.42010-04-28 14:48:57
SHELLTUXProperties1.22010-04-28 15:04:39
JESSSSSTHTTP-DAV-Xythos1.1011802010-04-28 16:31:03
STSANDERvanprod2.52010-04-28 16:59:22
TOBYINKXML-Atom-Microformats0.00_002010-04-28 17:08:42
SWALTERSautobox-Bless0.012010-04-28 18:23:33
KRYDEpodlinkcheck12010-04-28 18:58:51
KRYDEFilter-gunzip12010-04-28 19:29:49
DMUEYTest-Carp0.12010-04-28 22:31:39
MMLANGENet-BlueCoat-SGOS0.442010-04-29 04:47:09
KJETILKRDF-LinkedData0.012010-04-29 05:48:55
REDICAPSApp-Twpin0.0012010-04-29 07:32:35
VERESCNet-OpenID-Server-Standalone0.1.12010-04-29 08:37:11
SBECKTest-Inter1.002010-04-29 08:56:41
NKHTest-HexDump-Range0.01_12010-04-29 17:20:11
MARNANELLocale-PO-Callback0.012010-04-29 20:35:54
RKRIMENTest-t0.0012010-04-29 21:10:30
MADCATWWW-OpenX-APIv0.1.62010-04-30 11:03:32
NESCGI-Application-Plugin-Nes0.00_12010-04-30 16:51:19
APOCALDist-Zilla-Plugin-DualBuilders0.012010-04-30 19:21:20
APOCALDist-Zilla-Plugin-ApocalypseTests0.012010-04-30 19:24:10
DOYCarp-Always-Color0.012010-04-30 19:24:22

New Distributions for May 2010 (228)

AuthorDistributionVersionRelease Date/Time
MONSAnyEvent-Handle-Writer0.012010-04-30 21:03:48
RKRIMENModule-Install-ParseRequires0.0012010-04-30 22:54:27
GENEHACKMooseX-Role-Pluggable0.012010-05-01 11:36:57
MSCHWERNObject-IDv0.0.12010-05-01 12:05:02
IVANNet-HTTPS-Any0.102010-05-01 16:44:23
APOCALDist-Zilla-Plugin-MinimumPerl0.012010-05-01 17:50:07
DAVIDPDevice-DSE-Q15730.12010-05-02 05:24:11
VTIMojoX-Renderer-Haml0.9901012010-05-02 08:33:05
TEMPIREMojolicious-Plugin-BasicAuth0.01-TRIAL2010-05-02 14:32:30
DOYTask-BeLike-DOY0.012010-05-02 15:23:56
TOBYINKHTML-HTML5-Writer0.012010-05-02 18:48:07
VVELOXSys-Dev-LDAP-Populate0.0.02010-05-02 18:49:34
EVOWeb-oEmbed-Common0.012010-05-02 21:35:50
JINGRAMData-Maker-Field-Currency0.012010-05-02 23:39:28
PHREDWebService-Viglink0.012010-05-03 01:36:13
JAUERNet-Canopy-BAM0.022010-05-03 01:51:38
LGEHLENSVG-Rasterize0.0000072010-05-03 03:19:25
KTATPod-Section0.012010-05-03 05:31:10
MAXSPalm-MaTirelire1.102010-05-03 10:06:56
STEVANCatalyst-Plugin-Bread-Board0.012010-05-03 10:39:42
BDFOYTask-EffectivePerlProgramming1.002010-05-03 17:10:47
SMASHHTML-Examiner0.01_12010-05-03 17:35:46
DRUOSOMooseX-TransactionalMethods0.0012010-05-03 18:12:09
ETJMail-POP33.02010-05-04 00:00:25
RKRIMENDist-Dzpl0.00012010-05-04 00:03:13
ANDYAcme-Test-420.12010-05-04 03:22:59
MIRKNet-Z3950-UDDI0.042010-05-04 11:04:09
MRUIZDate-Holidays-CA_ES0.012010-05-04 13:16:39
DRUOSOMooseX-AuthorizedMethods0.0032010-05-04 13:38:44
HOLLYApp-CLI-Plugin-Parallel-ForkManager1.02010-05-04 14:02:33
AVARSoftware-License-DWTFYWWI0.012010-05-04 14:41:45
MIYAGAWAPlack-Middleware-ConsoleLogger0.012010-05-04 19:21:42
EXODISTFennec-Declare0.0012010-05-04 20:15:44
FLORASoftware-License-WTFPL0.012010-05-04 22:08:55
TOBYINKHTML-Embedded-Turtle0.012010-05-05 07:31:12
SANTERITkx-ImageButton0.102010-05-05 10:16:15
XSAWYERXAlgorithm-Diff-Callback0.012010-05-05 11:50:31
XENOCIDESoftware-License-GPL_3_Artistic_2_00.012010-05-05 14:36:00
XENOCIDESoftware-License-GPL_3_Artistic2_0-0.012010-05-05 14:36:26
PHREDWebService-LinkShare0.012010-05-05 18:27:52
RKRIMENText-Split0.00102010-05-05 21:07:16
PHREDApache2-Connection-Arp0.012010-05-05 21:25:30
BLUEFEETDBIx-ResultSet0.102010-05-05 23:09:18
RJBSRole-Subsystem0.1012502010-05-05 23:37:19
ASGLvalue0.12010-05-06 00:14:27
JJSCHUTZMath-Random-Zipf0.102010-05-06 01:54:36
SUKRIADancer-Plugin-REST0.0001_012010-05-06 04:35:36
SHARIFULNBundle-TK1.02010-05-06 04:56:14
XENOCIDESoftware-License-GPL3andArtistic20.032010-05-06 09:04:02
FLORAPod-Weaver-PluginBundle-FLORA0.012010-05-06 13:47:08
FLORADist-Zilla-PluginBundle-FLORA0.012010-05-06 14:22:19
ALEXMVJifty-Plugin-AccessLog12010-05-06 15:17:25
MSCHOUTTemplate-Plugin-Filter-String-Truncate0.012010-05-06 16:53:17
APOCALDist-Zilla-Plugin-Authority0.012010-05-06 18:58:48
SHARYANTOLanguage-Expr0.012010-05-06 22:16:26
NESTemplate-Nes-Inject0.00_12010-05-07 05:10:05
FLORATask-BeLike-FLORA0.012010-05-07 15:26:21
JMATESConfig-OpenSSH-Authkey0.522010-05-07 17:02:41
JJOREInternals-GraphArenas0.012010-05-07 19:04:43
JJORERunops-Movie0.012010-05-07 19:08:48
ADAMKCPAN-Test-Dummy-Perl5-NoBugTracker1.002010-05-08 08:25:17
NKHApp-Plog0.01.122010-05-08 11:36:26
RSRCHBOYCPAN-MetaMuncher0.007_012010-05-08 16:43:23
RSRCHBOYCPAN-Easy0.001_012010-05-08 21:18:02
DANIELPLog-Any-Adapter-Syslog1.02010-05-09 10:34:38
TOBYINKRDF-RDFa-Generator0.012010-05-09 14:23:32
EXODISTDevel-Declare-Parser0.0102010-05-09 16:21:22
EXODISTBlock-NamedVar0.0012010-05-09 18:59:23
CSJEWELLPod-Simple-XHTML-BlendedCode1.0002010-05-09 20:03:16
TOBYINKIcon-FamFamFam-Silk0.001.001.0032010-05-10 05:20:51
INFIDELWWW-Shorten-ShadyURL0.012010-05-10 08:36:34
NKUITSEMARC-Loop0.012010-05-10 09:39:18
TBONEDBIx-Cookbook0.032010-05-10 10:41:56
RKRIMENPackage-Pkg0.00102010-05-10 15:18:17
PHREDApache2-Connection-XForwardedFor0.012010-05-10 16:34:25
PHREDWebService-VigLink0.052010-05-10 21:32:42
GTERMARSData-FormValidator-Profile0.032010-05-11 01:43:14
MUTANTDBIx-Class-Numeric0.0012010-05-11 04:05:32
MALAHTTP-Response-Parser0.012010-05-11 04:30:05
REHSACKWin32-pwent0.012010-05-11 08:50:45
ZENOGPadre-Plugin-LaTeX0.012010-05-11 13:03:35
APOCALPod-Weaver-Section-Support0.0062010-05-11 13:17:44
MLEHMANNGames-Sokoban0.022010-05-11 19:22:00
JHALLOCKGtk2-Ex-FormFactory-TimeEntry0.012010-05-11 21:21:08
NORBUNet-Dropbox-API0.022010-05-11 22:24:44
RKRIMENConfig-Identity0.00102010-05-11 22:44:38
RKRIMENApp-GitHub-update0.00102010-05-12 11:54:31
ROKRDist-Zilla-PluginBundle-ROKR0.00102010-05-12 12:38:55
MOBAcme-SafetyGoggles0.012010-05-12 13:34:56
SHARYANTOApp-perlmv0.242010-05-12 14:00:42
DOYStash-Manip0.012010-05-12 18:26:09
DAGOLDENDist-Zilla-Plugin-CheckChangesHasContent0.0012010-05-12 18:39:13
PERIGRINTask-SDK-Moose0.012010-05-12 19:38:21
ROKRApp-GitHub-create0.00102010-05-12 22:55:58
SAMVSRS-EPP-Proxy0.12010-05-13 03:47:03
SHARYANTOLocale-ID-GuessGender-FromFirstName0.012010-05-13 05:31:48
SHARIFULNMojoX-Renderer-Mail0.32010-05-13 12:23:23
JOBEROGIS-Distance-Lite1.02010-05-13 14:10:13
CHOCOLATEScope-With0.012010-05-14 06:41:24
FIBOPNI-Node-Tk0.012010-05-14 09:47:27
SHARIFULNMojoX-Renderer-Mail-Lite0.12010-05-14 09:56:36
DAGOLDENDist-Zilla-PluginBundle-DAGOLDEN0.0062010-05-14 10:36:32
REHSACKDBD-Sys0.012010-05-14 12:13:12
DOYPackage-Stash0.032010-05-14 12:47:04
VVELOXDNS-Record-Check0.0.02010-05-14 16:05:22
RGEMooseX-DFV0.012010-05-14 17:26:33
SKIApp-DualLivedList0.00_012010-05-14 18:54:50
ATHOMASONLog-Syslog-Constants1.002010-05-14 20:36:32
RJBSMooseX-Types-Perl0.1013402010-05-14 23:09:25
FLORADist-Zilla-Plugin-SanityTests0.012010-05-15 07:06:28
AVARCrypt-CVS0.012010-05-15 10:35:10
DCANTRELLGames-SGF-Go-Rotator1.02010-05-15 12:08:12
RJBSMixin-Historian0.1013502010-05-15 14:41:33
MSOUTHCGI-Untaint-us_date0.012010-05-15 14:53:11
XSAWYERXPerlbal-Plugin-ForwardedFor0.012010-05-16 03:23:28
ZOULDist-Zilla-Plugin-Rsync0.12010-05-16 03:55:39
JMERELOData-ES-Senado0.0.42010-05-16 04:39:03
JHTHORSENAnyEvent-Handle-UDP0.012010-05-16 05:37:54
JHTHORSENAnyEvent-TFTPd0.102010-05-16 06:40:27
FRANCKCMooseX-Privacy0.012010-05-16 09:04:44
JVOpenOffice-Wordlist0.022010-05-16 09:52:07
AWNCORPDancer-Plugin-Validation0.012010-05-16 14:18:07
DAGOLDENPerl-OSType0.0052010-05-16 21:53:15
AWNCORPDancer-Plugin-Email0.012010-05-16 22:02:31
TJCRetry0.102010-05-17 00:00:13
ANSGARDebian-Snapshot0.0012010-05-17 02:59:29
JIRACHI-Driver-TokyoTyrant0.012010-05-17 12:02:32
ALEXBIOTwitShell4.062010-05-17 12:06:36
AWNCORPDancer-Plugin-RunAsScript0.012010-05-17 13:53:17
DROLSKYDist-Zilla-Plugin-ConsistentVersionTest0.012010-05-17 15:53:16
BINGOSDevel-PatchPerl0.022010-05-17 17:32:05
DROLSKYDist-Zilla-Plugin-Mercurial0.012010-05-17 17:36:14
RGEData-FormValidator-Moose0.012010-05-17 18:24:47
TECHCODEGSM-Nbit0.082010-05-17 19:10:55
AVARApp-QuoteCC0.012010-05-17 19:33:29
JQUELINTk-Role-Dialog1.1013802010-05-18 13:12:54
PHREDAny-URI-Escape0.012010-05-18 14:12:23
CORIONDBIx-RunSQL0.032010-05-18 14:19:06
LEOCHARREmanifest2description1.012010-05-18 17:10:16
JOHNDIma-DBI-Lite0.0012010-05-18 20:02:51
DMAKICatalyst-View-Xslate0.000012010-05-18 23:08:08
GWYNPOEx-IKC-Queue0.00012010-05-18 23:09:47
GWYNPOEx-DirNotify0.00_012010-05-19 00:18:46
EXODISTDevel-CallerStack0.0012010-05-19 01:56:16
JOHNDIma-DBI-Contextual0.0022010-05-19 02:39:00
OPIText-Template-Library0.022010-05-19 12:13:12
OPITX0.082010-05-19 12:13:23
TOBYINKRDF-RDFa-Linter0.012010-05-19 16:17:18
EMAZEPDBIx-DoMore0.010002010-05-19 20:21:24
BERLEKiokuDB-Backend-CHI0.01-TRIAL2010-05-20 06:46:43
JNWText-LineNumber0.022010-05-20 07:26:15
JNWText-GuessEncoding0.012010-05-20 07:27:42
MARCELApp-distfind1.1014002010-05-20 08:04:26
JNWDigest-FP56x1xor0.142010-05-20 09:21:39
JNWText-Fracture1.022010-05-20 09:56:36
JNWSearch-WuManber0.222010-05-20 10:19:02
PHREDWebService-CityGrid-Search0.012010-05-20 14:07:34
LEOCHARRElscolors1.092010-05-20 14:37:26
LEOCHARREmkthumbs1.032010-05-20 14:50:45
FLORAMooseX-Types-Meta0.012010-05-20 17:13:52
GUGODAcme-DreamyImage1.02010-05-20 20:28:44
ZERODOGGSMS-CPAGateway0.012010-05-21 04:44:42
POTYLMemphis0.012010-05-21 08:59:50
AVARTask-BeLike-AVAR0.012010-05-21 10:04:26
BINGOSsmokebrew0.022010-05-21 11:23:18
BRANSCHARepl-Loop1.002010-05-21 18:18:59
EMAZEPDBIx-MultiStatementDo0.010002010-05-21 21:32:59
KENTNLDist-Zilla-PluginBundle-KENTNL0.010006002010-05-22 04:33:33
DRBEANVroom-Vroom-Link0.012010-05-22 05:43:17
SMASHApp-TinyMVC0.01_12010-05-22 14:48:19
KSTEPMEFusqlFS0.0012010-05-22 16:23:38
HOLLYApp-CLI-Plugin-DBI1.02010-05-23 11:33:49
MARNANELApp-Bernard0.012010-05-23 12:34:00
SPROUTClassic-Perl0.012010-05-23 16:24:00
ZBSDicomPack0.92010-05-23 17:30:55
PHREDApache2-Connection-SkipDummy0.012010-05-23 18:31:56
MDBGRIZGtk2-Ex-WYSIWYG0.022010-05-24 01:38:24
CINDYTie-Hash-Identity0.012010-05-24 05:14:54
CINDYHash-Identity0.012010-05-24 05:15:06
GPHATCatalyst-Plugin-Session-Store-MongoDB0.012010-05-24 08:40:00
DROLSKYText-TOC0.012010-05-24 14:40:08
DMUEYModule-Want0.12010-05-24 19:19:00
DBRIANTest-MultiProcess0.012010-05-24 19:20:00
DMITRYNODAnyEvent-WebArchive0.012010-05-25 06:51:08
SIFUKURTAuthen-OATHv1.0.02010-05-25 12:25:02
RJBSConfig-MVP-Reader-INI1.1014502010-05-25 18:17:07
DAVIDPXymon-Client0.012010-05-26 03:57:04
XERXESMicrosoft-AdCenter6.00_012010-05-26 04:09:57
PJACKLAMAcme-Cow-Interpreter0.012010-05-26 08:25:06
JKVAPostscript-TextDecode0.12010-05-26 08:26:34
SHARYANTOAcme-CPANAuthors-Female0.012010-05-26 10:52:37
TOBYINKTask-HTML50.0012010-05-26 16:00:52
EGILESX11-Terminal0.12010-05-26 16:47:44
PEVANScircle-be0.012010-05-27 07:59:57
PEVANScircle-fe-gtk0.012010-05-27 08:00:08
EMAZEPSQL-SplitStatement0.010002010-05-27 08:36:02
EXUSSUMVoldemort0.022010-05-27 09:30:22
PENMAHash-PriorityQueue0.012010-05-27 10:43:55
PRIVIPOE-Component-SSLify-NonBlock0.202010-05-27 15:29:04
PENMAGraph-Fast0.012010-05-27 18:29:00
KARMANSearch-OpenSearch-Server0.012010-05-27 23:07:46
BBAXTERData-Bvec1.002010-05-28 00:03:08
APOCALTest-Pod-LinkCheck0.0042010-05-28 00:31:09
FDULAUGraph-Chart0.522010-05-28 08:27:12
DANIELPDist-Zilla-PluginBundle-DANIELP1.022010-05-28 12:17:00
DANIELPDancer-Template-Alloy1.002010-05-28 12:18:00
APOCALPod-Weaver-Section-SeeAlso0.0032010-05-28 14:02:53
MSCHWERNFile-fgetsv0.0.12010-05-28 17:39:13
SORTIZJSP0.99_072010-05-28 20:42:58
NFERRAZDBIx-MultiDB0.012010-05-28 21:09:41
TUSHARUniqueColumns0.12010-05-29 09:53:30
FLORADist-Zilla-Plugin-NoTabsTests0.012010-05-29 11:11:56
FLORADist-Zilla-Plugin-EOLTests0.012010-05-29 11:12:08
DOLMENParse-nm0.012010-05-29 11:38:20
TUSHARText-CSV-UniqueColumns0.22010-05-29 11:56:33
DCOLLINSMediaWiki-Bot-Plugin-Admin0.1.02010-05-29 14:06:13
SLAFFANGeo-Converter-dms2dd0.012010-05-30 01:39:44
XSAWYERXPerlbal-Plugin-ExpandSSL0.012010-05-30 03:57:00
DANIELPDist-Zilla-Plugin-ReportVersions-Tiny1.002010-05-30 08:54:01
MONSXML-Declare0.012010-05-30 10:49:14
ALEXBIOWWW-Vimeo-Simple0.012010-05-30 13:50:44
ROKRYAML-Tiny-LikeJSON0.00102010-05-30 14:31:47
FLORADist-Zilla-App-Command-weaverconf0.012010-05-30 17:53:01
DOOMEmacs-Rep0.012010-05-31 04:52:04
DAVIDPDevice-Kiln0.012010-05-31 07:06:41
DROLSKYSilki0.012010-05-31 11:08:32
CCCPCCCP-SQLiteWrap0.012010-05-31 15:05:40
PDWWebService-Viddler0.102010-05-31 17:13:24

New Distributions for June 2010 (237)

AuthorDistributionVersionRelease Date/Time
YHAPod-Clipper0.012010-05-31 23:19:00
IEFREMOVCrypt-XXTEA-CImpl0.012010-06-01 02:31:32
MSCHILLISys-Ramdisk0.012010-06-01 03:38:56
DAVIDPDevice-Kiln-Orton0.012010-06-01 05:13:04
MENDELMooseX-DBIC-AddColumn0.012010-06-01 06:00:21
JAMHEDDancer-Plugin-Scoped0.012010-06-01 07:35:49
DJIBELTk-Canvas-GradientColor1.002010-06-01 09:35:32
CCCPCCCP-AttributeInspector0.012010-06-01 11:36:09
ROKRText-Clip0.00142010-06-01 12:57:42
MDIETRICHCloudApp-REST0.012010-06-01 18:11:22
XEONTIMEApache-Sling0.012010-06-02 03:50:41
ASHISHMWWW-SlideShare1.02010-06-02 05:07:41
JLMARTINOpsview-StatusAPI0.012010-06-02 14:30:00
SCHWIGONemacs-pod-cperl-mode0.012010-06-02 20:03:33
KHAMPTONRole-LibXSLT-Extender0.012010-06-02 21:06:44
ROKRGetopt-Usaginator0.00102010-06-02 21:54:00
ROKRApp-starbucksloginator0.00102010-06-02 23:53:14
SAXJAZMANXML-Malware0.00_012010-06-03 00:50:11
NEKOKAKQudo-Plugin-Logger0.012010-06-03 01:46:31
NEKOKAKQudo-Hook-Notify0.012010-06-03 05:38:15
GRANTMApp-BCVI3.002010-06-03 07:24:13
GRANTMApp-BCVI-InstallManager1.002010-06-03 07:25:42
GRANTMApp-BCVI-NotifyClient1.002010-06-03 07:25:48
GRANTMApp-BCVI-NotifyDesktop1.002010-06-03 07:25:59
LEONTPerlIO-Layers0.0012010-06-03 10:58:16
DGLAcme-mA13372010-06-03 15:53:36
CVICENTENetdot-Client-REST1.02010-06-03 19:41:00
NEKOKAKApp-MadEye-Plugin-Agent-Qudo0.012010-06-04 00:58:00
FRANCKCDancer-Logger-PSGI0.012010-06-04 06:19:29
FRANCKCDancer-Session-PSGI0.012010-06-04 06:28:37
ZEROWWW-Yandex-MailForDomain0.12010-06-04 16:07:38
NATANAELTest-FileReferenced0.012010-06-04 17:50:22
ABERNDTwin32-snarl1.012010-06-04 18:41:54
BCOrpmbootstrap0.9.92010-06-04 18:44:47
DROLSKYSilkiX-Converter-Kwiki0.012010-06-04 23:25:56
DAVIDPXymon-Monitor-Informix0.012010-06-05 06:41:01
MSTROUTIPC-Command-Multiplex0.0080012010-06-05 11:31:38
FLORAPod-Weaver-Plugin-Encoding0.012010-06-05 14:15:55
ULIZAMACGI-Application-Muto0.022010-06-05 18:57:56
ULIZAMACGI-Application-Muto-withoutworldwriteables02010-06-05 18:59:27
TOKUHIROMHTTP-Session-State-MobileAttributeID0.372010-06-06 10:23:34
XDRperlcritic-checker1.22010-06-06 12:46:00
ALEXBIOWWW-GitHub-Gist0.012010-06-06 14:56:30
KHEMICALSMongoDB-Admin0.012010-06-06 20:25:55
SHAWTime-Timecode0.22010-06-06 23:51:49
GARUWWW-Correios-SRO0.012010-06-07 01:56:29
DAVIDPXymon0.012010-06-07 03:35:16
TMASer-BinRPC0.012010-06-07 07:41:04
CYCLESPerlanet-IronMan0.02_012010-06-07 07:53:57
MERIXZONWebService-Google-Closure0.012010-06-07 07:54:08
MITHALDUDist-Zilla-Plugin-ProgCriticTests1.101580-TRIAL2010-06-07 10:43:36
SALVASocket-Linux0.012010-06-07 12:52:46
ROKRTerm-EditorEdit0.00102010-06-07 16:29:06
AGRUNDMAMP3-Cut-Gapless0.012010-06-07 16:56:30
CYCLESMooseX-Types-DBIx-Class0.012010-06-07 18:46:37
CYCLESPerlanet-DBIx-Class0.012010-06-07 19:29:40
TROXELDevice-IRU_GE0.902010-06-07 20:46:09
GSLONDONStlgen0.0122010-06-07 21:05:31
GFUJIText-Xslate-Bridge-TT21.00002010-06-08 03:57:47
GFUJIText-Xslate-Bridge-Alloy1.00002010-06-08 04:10:41
ROHANBrowser-FingerPrintv0.12010-06-08 07:31:08
BSNOOPFinance-Bank-DE-DTA-Create1.002010-06-08 13:18:18
ABERNDTNet-Snarl0.052010-06-08 14:17:41
BPHILLIPSDR-SAP0.152010-06-08 16:55:04
ROKRApp-PAUSE-cleanup0.00102010-06-08 19:22:30
DAVIDPXymon-Server0.012010-06-08 22:09:35
DMAKIText-Xslate-Bridge-TT2Like0.000012010-06-09 03:39:14
TOBYINKRDF-MicroTurtle0.0012010-06-09 08:27:13
PAIXAOPWWW-Salesforce-Report0.012010-06-09 11:27:00
PEVANSIO-Async-SSL0.012010-06-09 19:37:00
GETTYpodloc0.0012010-06-09 21:10:20
BLUEFEETAcme-Lemur9004573.123983462010-06-09 22:58:28
XENODist-Zilla-Plugin-SubmittingPatches0.012010-06-09 23:59:07
DAVIDPXymon-DB-Schema0.022010-06-10 00:55:06
DAVIDPXymon-Server-History0.012010-06-10 00:56:34
BINGOSDist-Zilla-Plugin-GithubMeta0.022010-06-10 05:37:00
BINGOSTask-CPAN-SmokeBox0.022010-06-10 06:30:05
MARCELData-SmartMunge1.1016102010-06-10 07:41:26
JQUELINFile-HomeDir-PathClass1.1016102010-06-10 07:49:17
TLOUSKYNet-IPAddress-Minimal0.012010-06-10 10:47:41
FRODWITHFlea0.012010-06-10 22:15:03
ZEROHPLinux-Pdeathsig0.00_012010-06-10 23:10:07
TORUXML-LibXML-LazyMatcher0.012010-06-11 01:05:08
KENTNLDist-Zilla-Plugin-MetaData-BuiltWith0.010000222010-06-11 07:48:36
FSEITZClassLoader1.000052010-06-11 07:56:26
JQUELINFile-ShareDir-PathClass1.1016202010-06-11 08:40:27
EGORRandom-Quantum0.012010-06-11 09:05:54
BINGOSDist-Zilla-Plugin-AssertOS0.022010-06-11 09:44:36
BINGOSDist-Zilla-Plugin-NoAutomatedTesting0.022010-06-11 10:08:00
ZEROHPCoro-DBI0.00_012010-06-11 13:37:53
JMATESMusic-LilyPond-Praxis0.012010-06-11 19:16:06
BOOKGit-Repository1.002010-06-12 06:00:55
ALEXBIOWWW-Vimeo-Download0.012010-06-12 08:46:11
EVDBNet-SMS-TxtLocal0.012010-06-12 12:32:41
DRBEANDist-Zilla-Plugin-SVK0.012010-06-13 04:22:56
ROBINSXML-Rabbit0.0.12010-06-13 07:29:44
ROBINSW3C-XMLSchema0.0.12010-06-13 07:35:04
ROBINSIMS-CP-Manifest0.0.12010-06-13 07:36:31
MMCLERICUbic1.042010-06-13 08:30:08
ZOULDateTime-Format-Czech0.12010-06-13 10:40:47
DOYPod-Weaver-Section-Template0.012010-06-13 11:52:46
TOKUHIROMText-VisualWidth-PP0.012010-06-13 12:11:01
SEKIAMath-Random-Xorshift0.012010-06-13 12:42:11
TOKUHIROMHTTP-Session-State-MobileAgentID0.402010-06-13 13:07:22
JPRbigmath02010-06-13 13:19:45
RSRCHBOYCatalyst-ControllerRole-Resources-Verbs0.001_012010-06-13 14:08:04
DOYDist-Zilla-PluginBundle-DOY0.012010-06-13 15:38:00
CLOOSRT-Extension-Gravatar0.012010-06-13 15:42:42
CLOOSRT-Extension-HistoryFilter0.022010-06-13 18:12:46
SABECKData-Matcher0.00022010-06-13 18:13:00
SABECKTie-MooseObject0.00012010-06-13 18:14:32
FRANCKCNet-Riak0.012010-06-14 07:41:31
LEONTPOSIX-RT-Timer0.0012010-06-14 08:57:40
GBROWNWWW-CNic0.332010-06-14 12:06:39
JOHAYEKapp-xlstar-1362010-06-14 12:17:04
MYSTERYTEGallery-Remote-APIv0.1.12010-06-14 17:20:00
JETEVEClass-TLB0.012010-06-14 18:47:59
SANKOAnyEvent-Handle-Throttle0.0000012010-06-14 20:42:39
ROKRNet-ClientServer0.00052010-06-14 21:32:04
MKANATRPC-Any1.00_12010-06-15 02:44:54
TLOUSKYAlgorithm-Shape-RandomTree0.012010-06-15 08:38:27
MARKOVXML-Compile-SOAP-WSA0.102010-06-15 09:24:43
GOMORLib-Sonypi0.802010-06-15 13:44:24
NXONEPAcme-AGMorse0.012010-06-15 17:24:36
PETDANCEpodium0.012010-06-15 23:48:00
ZAGFlow0.12010-06-16 04:45:00
MENDELDBIx-Class-MooseColumns0.062010-06-16 09:11:00
ROSCIOTk-NumKeypad1.02010-06-16 14:54:10
ROSCIOTk-FullKeypad1.02010-06-16 15:12:23
DJIBELTk-ColoredButton1.002010-06-16 18:55:33
FRODWITHPlack-Middleware-Inline0.012010-06-16 19:17:14
MEMOWEMojolicious-Plugin-ContentManagement0.012010-06-16 19:47:44
JPIERCEclobber0.022010-06-16 20:39:38
NPEREZFancy-Middleware1.1016802010-06-16 22:07:23
SOREARDevel-CountOps0.012010-06-16 23:32:33
DHOUSTONCatalystX-Controller-Pluggable0.012010-06-17 00:17:26
MAMAWEGeNUScreen-Config0.0.52010-06-17 02:10:28
CINDYPlack-Middleware-Session-SerializedCookie12010-06-17 05:18:00
BINGOSDist-Zooky0.022010-06-17 11:37:53
PDONELANPlack-App-JSP0.1016802010-06-17 11:51:27
SJNApp-Kaizendo0.000_0012010-06-17 12:07:25
GREENBEANAsterisk-AMIv0.2.02010-06-17 16:21:39
ROSCIOTk-FmtEntry0.12010-06-17 16:38:38
BINGOSDist-Zilla-PluginBundle-BINGOS0.022010-06-17 17:30:50
AFFCParse-Log-Smbd0.01_012010-06-17 17:39:56
TOKUHIROMProc-Guard0.012010-06-18 00:37:29
DMITRYNODAnyEvent-ImageShack0.012010-06-18 04:07:46
AVARNet-FCP-Tiny0.012010-06-18 09:06:58
INGYJSYNC0.012010-06-18 16:50:45
NAIMAnyEvent-HTTPBenchmark0.052010-06-18 17:12:27
PRIVIPOE-Filter-SSL0.012010-06-18 17:38:15
SABECKData-SPath0.00012010-06-18 21:42:22
SAPERTime-Duration-fr1.002010-06-19 13:13:11
KNORRFile-Checksum0.012010-06-19 15:50:45
BJOERNGeo-MedianCenter-XS0.012010-06-19 19:12:19
JMGDOCODF-lpOD0.1102010-06-19 21:03:52
OPIIPC-ScoreBoard0.012010-06-20 08:18:58
FRANCKCDancer-Debug0.012010-06-20 08:20:25
GUGODObject-Method0.012010-06-20 13:13:14
SPROUTModule-ConfigureRequires0.012010-06-20 15:14:00
MRAMBERGWebService-PutIo0.12010-06-20 16:14:55
MLEHMANNAnyEvent-DBus0.12010-06-20 20:14:00
DAVIDPTime-Business0.042010-06-20 22:38:42
ADAMKFBP0.012010-06-21 03:52:10
LCONSDirectory-Queue0.52010-06-21 03:55:14
ROSCIOTk-DoCommand0.12010-06-21 13:39:20
RGEMac-MotionSensor0.012010-06-21 20:01:20
KRYDEImage-Base-GD12010-06-21 20:12:13
KRYDEImage-Base-PNGwriter12010-06-21 20:12:26
EWILHELMPostal-US-Statev0.0.12010-06-21 20:35:53
MEPHISTDancer-Template-Ctpp20.012010-06-22 04:04:31
DCONWAYIO-Prompter0.0010012010-06-22 05:41:24
DCONWAYAcme-Crap0.0010022010-06-22 06:11:54
DCONWAYData-Show0.0010012010-06-22 06:16:09
MELOBash-Completion0.0012010-06-22 07:23:48
PRAVUSCatalyst-Authentication-Credential-CAS0.002010-06-22 08:18:42
COKETask-Parrot0.012010-06-22 08:55:56
CCCPPlugins-Factory0.012010-06-22 14:53:43
NOTBENHTest-Structure0.012010-06-22 16:46:33
NOTBENHFennec-Assert-Wrapper-Structure0.012010-06-22 16:50:50
NOTBENHFennec-Assert-Wrapper-Deep0.012010-06-22 16:52:17
NOTBENHFennec-Assert-Wrapper-Differences0.012010-06-22 16:55:01
ZEROData-Password-Entropy0.032010-06-22 17:09:00
HINRIKPOE-Quickie0.012010-06-23 09:30:58
UKAUTZMail-Decency0.1.02010-06-23 13:59:46
ROSCIOpwhich0.12010-06-23 14:58:13
ROSCIOpmwhich0.12010-06-23 15:21:45
JJNAPIORKMooseX-Types-Parameterizable0.012010-06-23 15:24:37
NOTBENHFennec-Assert-Wrapper-Pod-Coverage0.012010-06-23 15:43:55
GRAYGeo-Coder-Bing-Bulk0.012010-06-23 18:00:07
JJSCHUTZWWW-Analytics-MultiTouch0.012010-06-23 20:50:02
SMUELLERExtUtils-XSpp-Plugin-Cloning0.012010-06-24 04:01:41
SALVAIO-Socket-Forwarder0.022010-06-24 05:30:05
OPERACache-Memcached-Mock0.012010-06-24 10:07:52
JKUTEJTest-Dirs0.012010-06-24 13:20:01
PMORCHParallel-Loops0.012010-06-24 18:21:33
SORTIZJSPL1.032010-06-25 03:07:00
DESPAIRTemplate-Context-Cacheable0.022010-06-25 08:47:46
ADAMKFBP-Perl0.012010-06-25 13:45:07
ZAKAMEMojoX-Renderer-WriteExcel0.012010-06-25 14:22:35
AVIKAKAlgorithm-KMeans1.02010-06-25 15:03:32
HINRIKApp-Pocoirc0.012010-06-25 15:47:20
IDOPERELBrannigan0.12010-06-25 20:57:22
GPHATDBIx-Class-ResultSet-Faceter0.012010-06-25 23:17:24
MARTIREaLid1.02010-06-26 09:36:56
MLAWRENDate-Remind-Event0.012010-06-26 12:01:51
MSCHILLIProc-Info-Environment0.012010-06-26 12:30:08
MSCHILLISVN-Utils-ClientIP0.012010-06-26 14:21:55
NUFFINCache-Ref0.012010-06-26 15:05:00
NUFFINCache-Profile0.012010-06-26 15:36:49
BLUEFEETTask-BeLike-BLUEFEET0.012010-06-26 20:33:43
GRAYGeo-Coder-OSM0.012010-06-26 22:11:14
CINDYHTTP-Body-MultiPart-Extend0.012010-06-27 03:58:44
QUELCOMGeo-Coordinates-KKJ0.012010-06-27 04:35:45
GRAYGeo-Coder-TomTom0.012010-06-27 06:10:24
CCCPCCCP-HTML-Truncate0.012010-06-27 07:26:13
ADIRAJCGI-Widget-DBI-Browse0.142010-06-27 11:59:46
POWERMANIO-Stream-Proxy-SOCKSv51.0.02010-06-27 14:52:42
XENODist-Zilla-Plugin-Catalyst0.012010-06-27 19:09:15
DGLSys-Trace0.012010-06-27 20:21:28
AQUILINAWWW-Indeed0.012010-06-28 00:13:01
BRAINBUZIhasQuery0.0222010-06-28 01:19:00
SMUELLERExtUtils-CppGuess0.012010-06-28 05:59:21
KUNIYOSHITime-StopWatchWithMessage0.012010-06-28 11:19:55
ANDREWNet-OpenAMDv0.0.12010-06-28 16:46:01
CHILTSXML-Assert0.012010-06-28 19:52:44
DROLSKYDist-Zilla-Plugin-PurePerlTests0.012010-06-28 21:53:11
RHANDOMFile-KeePass0.012010-06-29 10:52:50
SHARYANTOData-Dump-Partial0.012010-06-29 11:01:57
ALEXBIOModule-CheckDeps0.012010-06-29 14:13:04
BINGOSAcme-Vuvuzela0.022010-06-29 16:41:19
SSCAFFIDIBackPAN-Version-Discover0.012010-06-29 18:48:37
RGEXML-Feed-Aggregator0.012010-06-29 19:46:48
DPCHRISTMath-TriangularNumbers1.0122010-06-30 00:08:26
BARBIEDevel-Platform-Info0.012010-06-30 08:24:46
REDSIO-Socket-RedisPubSub0.012010-06-30 16:20:21
KTHAKORESDLxTTF0.005_12010-06-30 17:45:48

New Distributions for July 2010 (235)

AuthorDistributionVersionRelease Date/Time
GWILLIAMSRDF-Endpoint0.01_012010-06-30 20:24:17
JOHNDWWW-Crawler-Lite0.0012010-07-01 14:59:36
IFOMICHEVCrypt-Rijndael-MySQL0.012010-07-01 16:28:27
DJERIUSLua-API0.012010-07-01 17:40:00
DATAApp-Nopaste-Service-Pastedance0.022010-07-02 02:49:00
PMAKHOLMAnyEvent-JSONRPC0.13_12010-07-02 05:15:46
RHANDOMFile-KeePass-Agent0.012010-07-02 11:28:46
RHANDOMAutoRole0.012010-07-02 11:41:58
MLFISHERpmtools-perl60.012010-07-02 12:28:50
RSMITHVUser-Google-Api1.0.02010-07-02 15:41:14
EGILESApp-Xssh0.12010-07-02 17:15:48
WRATHIPC-Pipeline0.2-201007022010-07-02 17:31:13
GPHATConfig-Path0.012010-07-02 20:05:00
KRYDEMath-PlanePath12010-07-02 20:27:06
KAZUHOParallel-Scoreboard0.012010-07-02 22:26:42
TYPESTERText-MicroTemplate-DataSection0.012010-07-02 23:18:00
DPCHRISTDpchrist-Module1.0182010-07-03 01:23:51
DPCHRISTDpchrist-Is1.0172010-07-03 01:25:18
LEOCHARREWordPress-Base-MediaObject1.022010-07-03 01:26:40
DPCHRISTDpchrist-LangUtil1.0032010-07-03 01:26:47
DPCHRISTDpchrist-Term1.0082010-07-03 01:27:04
DPCHRISTDpchrist-Timestamp1.0112010-07-03 01:28:32
DPCHRISTDpchrist-File-Append1.0262010-07-03 01:28:43
DPCHRISTDpchrist-Tag1.0292010-07-03 01:30:24
DPCHRISTDpchrist-Debug1.0382010-07-03 01:31:55
DPCHRISTDpchrist-Cvs-NerfTags1.0042010-07-03 01:33:21
DPCHRISTDpchrist-Directory1.0092010-07-03 01:33:27
DPCHRISTDpchrist-File-Find-Duplicates1.0072010-07-03 01:34:53
DPCHRISTDpchrist-File-Newest1.0232010-07-03 01:35:00
DPCHRISTDpchrist-ShellScript1.0052010-07-03 01:36:27
DPCHRISTBundle-Dpchrist1.0172010-07-03 01:36:33
DPCHRISTDpchrist-File-LimitPath1.0272010-07-03 01:50:42
DPCHRISTDpchrist-TriangularNumber1.0152010-07-03 01:52:10
YOSHIMIDBIx-Skinny-Mixin-BulkInsertWithTrigger0.012010-07-03 02:15:20
CKRASWebService-Rackspace-CloudFiles1.002010-07-03 05:00:32
SMUELLERExtUtils-Typemap-Default0.012010-07-03 13:45:34
EDECATCP-Rebuild0.012010-07-03 14:38:05
EDECAWWW-Adblock0.012010-07-03 16:26:23
AESPENHTML-EditableTable0.102010-07-03 19:02:22
CRAKRJACKSys-Mlockall0.012010-07-04 15:53:58
ALEXBIOAcme-Compress0.012010-07-04 16:07:04
KOHTSsnaked0.012010-07-04 17:39:33
LEOCHARREWordPress-CLI1.032010-07-04 23:16:49
NEKOKAKQudo-Parallel-Manager0.012010-07-05 04:44:07
NEKOKAKDBIx-Skinny-Mixin-DBHResolver0.012010-07-05 04:53:40
OPIHTTP-LoadGen0.012010-07-05 13:25:57
BILLWALZData-Sharkv2.12010-07-05 14:58:07
XSAWYERXNet-WOT0.012010-07-05 15:33:03
GRAYGeo-Coder-Navteq0.012010-07-05 22:47:25
GRAYGeo-Coder-PlaceFinder0.012010-07-06 02:46:04
GFUJIMouseX-StrictConstructor0.012010-07-06 07:25:32
MSTROUTModule-Metadata1.0000002010-07-06 17:16:54
MONSImage-JpegTran0.012010-07-06 19:40:24
RSRCHBOYMooseX-AutoDestruct0.001_022010-07-06 23:15:02
JROCKWAYMooseX-Types-Signal1.101880-TRIAL2010-07-07 07:02:11
MOLECULESBio-SNP-Inherit0.00100001-TRIAL2010-07-07 12:54:07
FRIEDDateTime-NT0.0012010-07-07 18:13:16
KSURIApp-Mver0.012010-07-07 18:32:50
DAVIDPXymon-Server-ExcelOutages0.032010-07-07 23:12:00
BINGOSApp-Metabase-Relayd-Plugin-IRC0.022010-07-08 09:53:50
FRIEDTime-NT0.0022010-07-08 10:46:51
SCHWIGONpod-mode1.032010-07-08 18:06:04
RIZENFacebook-Graph0.01002010-07-08 21:39:02
GERHARDLaTeX-ToUnicode0.012010-07-09 07:38:04
SMUELLERModule-Build-WithXSpp0.012010-07-09 08:52:34
MICHAELFile-TTX0.012010-07-09 15:28:23
RUBYKATDist-Zilla-Plugin-GitFmtChanges0.0032010-07-10 06:18:21
ZAGPerl6-Pod-Slide0.012010-07-10 11:06:16
ESPDevel-EdTrace0.952010-07-10 23:25:57
MOBLanguage-GolfScript0.012010-07-11 12:44:53
ALEXBIOTask-BeLike-ALEXBIO0.012010-07-11 15:32:00
DCOLLINSMediaWiki-Bot-Plugin-Steward0.0.42010-07-11 18:02:45
YANICKXML-XSS0.1_02010-07-11 21:50:42
GFUJIKeyword-Boolean0.0012010-07-12 07:03:58
SHAMROCKCOPS-Client0.012010-07-12 09:30:50
SHIRIRUJavascript-Closure1.002010-07-12 12:16:38
ALEXBIOAcme-Minify0.012010-07-12 12:47:41
DSHEROHOrmlette0.012010-07-12 13:07:27
DROLSKYPackage-DeprecationManager0.012010-07-12 16:11:52
DJERIUSAstro-XSPEC-Model-Parse0.012010-07-12 16:54:20
JOHNDEmail-Verify-SMTP0.0012010-07-12 18:17:41
KRYDEImage-Base-Gtk212010-07-12 21:23:59
REDSDanga-Socket-Redis0.012010-07-12 23:28:21
DAMIText-Transliterator1.002010-07-13 02:16:08
DAMISearch-Tokenizer1.002010-07-13 02:18:58
DMITRYNODMojolicious-Plugin-CaptchaRenderer0.012010-07-13 03:01:12
SMUELLERZeroMQ0.012010-07-13 07:48:04
CPANELcPanel-TaskQueue0.42010-07-13 14:02:22
GETTYCatalyst-Model-MongoDB0.012010-07-13 14:58:39
DUFFModule-Install-RPM0.012010-07-13 17:07:52
GUNNARHTTP-ProxyTest0.102010-07-14 00:49:59
GPHATMessage-Stack-Parser0.012010-07-14 11:36:00
FLUFFYParams-Attr1.002010-07-14 11:55:58
MONSAnyEvent-RPC0.042010-07-14 12:00:02
ALEXKDist-Zilla-PluginBundle-ALEXK0.0012010-07-14 12:24:43
GETTYNet-APE0.0012010-07-14 12:46:50
KESTEBScaffold0.012010-07-14 13:16:03
JEZRATerm-Shell-MultiCmd1.012010-07-14 15:46:26
PSHANGOVRef-List0.0012010-07-14 16:07:54
TOBYINKXML-GRDDL0.0012010-07-14 16:24:44
AESOPDevice-ACPI-Battery0.12010-07-15 02:24:06
RUNEOSS-LDAPops1.02010-07-15 04:52:16
TOKUHIROMSmart-Args0.032010-07-15 06:50:36
REHSACKMLDBM-Serializer-JSON0.0012010-07-15 10:37:26
TOBYINKXML-Saxon-XSLT20.0012010-07-15 16:12:35
BUNDACIALog-Log4perl-Appender-RabbitMQ0.012010-07-15 17:25:31
OALDERSBusiness-CA-GST0.012010-07-15 18:47:24
FRODWITHMonkey-Patch0.012010-07-15 19:33:23
MONSXML-Fast0.012010-07-15 19:48:48
SALVALinux-Proc-Net-TCP0.012010-07-16 05:45:17
MONSCrypt-RSA-Yandex0.042010-07-16 06:40:19
VVELOXIcon-Theme-Helper0.0.02010-07-16 07:41:38
PMURIASSTD0.012010-07-16 11:22:00
LEOCHARREmovieinfo1.022010-07-16 13:29:32
LEOCHARREmoviecap1.022010-07-16 13:43:47
TIMBJava-2Perl6API0.062010-07-16 15:41:14
FIREPEARFirepear-Catechesis1.0002010-07-16 17:26:08
DROLSKYDist-Zilla-Plugin-ModuleBuild-XSOrPP0.012010-07-16 21:14:49
GETTYAlien-APE-Server1.0000000490012010-07-16 22:50:28
AWNCORPOogly-Aagly0.022010-07-17 04:29:59
ZEFRAMPerlIO-bitswap0.0002010-07-17 07:34:06
ANDYAWWW-Notifo0.012010-07-17 13:46:13
EXODISTFennec-Template0.0012010-07-17 16:49:40
MSTROUTstrictures1.0000002010-07-18 01:49:39
FRANCKCNet-HTTP-API0.132010-07-18 03:06:45
LEOCHARREimgautorotate1.022010-07-18 07:59:17
ZEFRAMPerlIO-rewindable0.0002010-07-18 16:48:51
PMURIASMildew0.012010-07-19 03:33:24
PMURIASSMOP0.12010-07-19 03:48:52
PMURIASMildew-Setting-SMOP0.012010-07-19 03:49:05
GFUJIText-Clevy0.0001_012010-07-19 04:16:07
HARSHAGUMLS-Norm0.012010-07-19 09:54:56
KRYDEImage-Base-X11-Protocol12010-07-19 19:24:04
NLEWISNet-ILO0.402010-07-19 20:02:32
ROBNMooseX-Types-LWP-UserAgent0.012010-07-19 22:13:57
JEAGLELazy-Lockfile1.162010-07-20 01:35:35
XENOTemplate-Plugin-Haml0.1.02010-07-20 02:08:35
KAZEBUROPlack-Middleware-Expires0.012010-07-20 10:46:24
IDOPERELAbilities0.12010-07-20 16:32:19
IDOPERELEntities0.12010-07-20 17:17:21
YANICKTest-Wrapper0.1.02010-07-20 22:04:10
EXODISTChild0.0012010-07-21 00:50:04
FREWDBIx-Class-Candy0.0010002010-07-21 01:18:05
CORNELIUSApp-gh0.012010-07-21 02:03:08
DOTTKDomain-Register-DomainShare1.002010-07-21 04:00:00
OISHIDBIx-ObjectMapper0.30052010-07-21 08:02:51
MUIRHTML-Transmorgify0.022010-07-21 15:12:00
SABECKBlack-Board0.00012010-07-21 19:12:05
LYOKATOOAuth-Lite20.01_012010-07-22 01:19:31
AESOPHTML-FormHandler-View-Email0.032010-07-22 03:14:27
IDOPERELWWW-Postmark0.12010-07-22 06:05:27
AJGBDate-Holidays-PL0.012010-07-22 13:38:33
DWUEPPELWebService-Autotask1.0002010-07-22 14:59:51
KRYDEImage-Base-Other12010-07-22 18:43:11
KRYDEmath-image112010-07-22 20:40:11
MAMODNet-Postage-App0.012010-07-23 00:24:26
HAWKMOONCGI-Application-Plugin-Authorization-Driver-ActiveDirectory0.012010-07-23 02:02:35
KENTNLTest-StructuredObject0.010000092010-07-23 02:35:54
SKXCGI-Session-Driver-redis0.22010-07-23 03:58:22
SHLOMIFTest-WWW-Mechanize-LibXMLv0.0.12010-07-23 05:52:54
VPITLaTeX-TikZ0.012010-07-23 07:38:00
BRIANGMooseX-PrivateSetters0.012010-07-23 08:56:35
JURUENApache-Session-libmemcached0.012010-07-23 12:25:57
SGERSTENTriggermail0.022010-07-23 15:27:00
DUFFDist-Zilla-Plugin-GitObtain0.012010-07-23 15:28:00
MUIRObject-Dependency0.312010-07-23 19:12:00
DWHEELERTAP-Parser-SourceHandler-MyTAP3.222010-07-23 20:09:09
EXODISTChild-Socket0.0012010-07-23 21:12:59
SHIBAZAKIWebService-Bitly0.012010-07-23 22:02:57
MAMODMail-Simple-DKIM-Signer0.012010-07-23 22:56:15
TOKUHIROMRouter-Simple-Sinatraish0.012010-07-24 02:17:54
KENTNLDist-Zilla-Plugin-MetaProvides-Package1.110342012010-07-24 09:38:44
KENTNLDist-Zilla-Plugin-MetaProvides-Class1.110342012010-07-24 09:41:35
KENTNLDist-Zilla-Plugin-MetaProvides-FromFile1.110342012010-07-24 09:44:27
ZIGOROUTest-Fixture-DBI0.012010-07-24 15:08:09
BENNIEVMware-API-LabManager1.002010-07-24 19:26:42
WIGGLYAutocache0.0012010-07-24 20:24:57
DGLre-engine-RE20.01_012010-07-25 06:22:29
GEOJSParser-IPTables-Save0.012010-07-25 13:52:02
LEEDOHTML-Highlighter0.012010-07-25 17:45:36
AGORMANCatalyst-Controller-DirectoryDispatch0.01-TRIAL2010-07-25 21:06:57
REHSACKFile-ConfigDir0.0012010-07-26 04:25:39
ADRIANLustre-Info0.012010-07-26 04:37:25
ATANATIONString-FriendlyID0.012010-07-26 06:27:06
DANHGNGeo-Coder-Many0.12010-07-26 06:31:11
AESOPHTML-FormHandler-Email0.0442010-07-26 09:45:57
AESOPHTML-FormHandler-Email-Template0.012010-07-26 09:46:10
MDUNHAMBusiness-OnlinePayment-SynapseGateway0.012010-07-26 10:48:14
EXUSSUMTest-Pockito0.012010-07-26 12:00:24
ODYNIECWebService-EditDNS0.102010-07-26 13:34:15
TOBYINKFinance-Bitcoin0.0012010-07-26 16:29:44
DMUEYString-BOM0.12010-07-26 23:07:00
MARKFSub-Clean0.012010-07-27 03:25:29
ADRIANLustre-LFS0.012010-07-27 04:04:56
ADARSHTPNet-SMS-WAY2SMS02010-07-27 08:35:12
ADARSHTP-withoutworldwriteables02010-07-27 08:36:43
SGRAHAMTask-Template-Benchmark0.99_012010-07-27 12:06:15
GARUGames-Zumbis0.012010-07-27 14:35:36
REHSACKReport-Generator0.0012010-07-27 16:16:08
KENTNLDist-Zilla-PluginBundle-KENTNL-Lite0.010000022010-07-28 00:32:41
SHARYANTODevel-EndStats0.022010-07-28 02:11:30
MELOApp-HTTPThis0.0012010-07-28 11:52:55
MAMODNet-Facebook-Oauth20.012010-07-28 11:58:15
GREPBOYbig-brother_perl1.302010-07-28 13:00:45
MLAWRENSQL-Tree0.012010-07-28 13:37:49
SKXMaildir-Reader0.22010-07-28 14:39:06
DMAKIGeo-Hash-XS0.000012010-07-28 20:38:20
JERIlibtext-lookuptable-perl0.02-12010-07-29 04:07:07
JTOPJIANNagios-Scrape0.012010-07-29 05:05:59
NIERLEINWebinject1.502010-07-29 05:22:38
TOBYINKJSON-Path0.080_002010-07-29 05:25:27
LIOSHAGeo-Parse-OSM0.012010-07-29 06:01:49
KOSTYAYandex-PhoneDetector1.002010-07-29 06:31:20
UNIFIEDSWFinance-BankVal-UK0.12010-07-29 09:22:21
UNIFIEDSWFinance-BankVal-International-IBANValidate0.12010-07-29 09:23:50
UNIFIEDSWFinance-BankVal-International-GetSWIFT0.12010-07-29 09:24:01
UNIFIEDSWFinance-BankVal-International-GetABA0.12010-07-29 09:25:29
TIMLingua-SV-Numbers0.012010-07-29 09:27:03
JERIText-LookUpTable0.032010-07-29 19:39:06
KAZEBUROPlack-Middleware-ServerStatus-Lite0.012010-07-30 03:50:00
TOBYINKJSON-T0.090_002010-07-30 03:57:00
KMXAlien-IUPv0.0.22010-07-30 05:05:13
BARBIEWWW-Scraper-ISBN-Wheelers_Driver0.012010-07-30 07:49:25
BARBIEWWW-Scraper-ISBN-TheNile_Driver0.012010-07-30 09:47:40
TADAMUbic-Service-Plack1.102010-07-30 14:58:42
PMURIASForest-Tree-Viewer-Gtk20.012010-07-30 15:23:00
REHSACKApp-Report-Generator0.0012010-07-30 15:34:00
BRIANKappaCUDA1.3.12010-07-30 18:58:00
HINRIKNet-EvalServer0.012010-07-30 22:50:16
HINRIKApp-EvalServer0.012010-07-30 23:20:00
HAOSANClass-DI0022010-07-31 00:05:08
HAOSANAspect-Loader0.022010-07-31 00:07:56
ROBINSMethod-Assert0.0.12010-07-31 05:38:09
TIMGames-Pentago0.012010-07-31 08:27:40
TOBYINKJSON-GRDDL0.001_002010-07-31 15:50:55

New Distributions for August 2010 (218)

AuthorDistributionVersionRelease Date/Time
DOGGYMongoX0.0012010-08-01 06:05:33
VVELOXDBI-Wikileaks-AfWD0.0.02010-08-01 12:24:21
TBRApp-sipa0.00012010-08-01 15:54:09
MELOTask-BeLike-MELO0.0012010-08-01 16:39:22
TOMASZOWL-Simple0.42010-08-01 17:10:05
KEROYONLog-Dispatch-Email-EmailSender0.01_12010-08-01 20:21:26
FRANCKCDancer-Template-Xslate0.012010-08-02 06:25:21
TOBYINKJSON-Schema0.001_002010-08-02 09:26:59
TOBYINKJSON-Hyper0.001_002010-08-02 09:27:13
ADAMKMooseX-Atom0.012010-08-02 09:43:19
DUFFDist-Zilla-Plugin-SvnObtain0.012010-08-02 12:50:26
SEMUELFPPI-XS-Tokenizer0.012010-08-02 14:10:53
ZEFRAMPod-Simple-FromTree0.0002010-08-02 14:25:01
ZEFRAMXML-Easy-SimpleSchemaUtil0.0002010-08-02 14:39:10
ODYNIECWebService-Gravatar0.102010-08-02 17:50:49
KEROYONLog-Dispatch-Config-Watcher0.01_12010-08-02 20:23:32
DMUEYPerl-ImportReport0.12010-08-02 20:26:20
XENODist-Zilla-Plugin-OurPkgVersion0.1.02010-08-03 01:16:08
TOBYINKSpreadsheet-Wright0.1022010-08-03 05:03:18
FIRMICUSLaTeX-Decode0.022010-08-03 05:21:24
INGYGloom0.012010-08-03 05:25:23
RINTARONet-IP-AddrRanges0.012010-08-03 05:34:29
RINTAROPlack-Middleware-IPAddressFilter0.012010-08-03 05:39:49
INGYParse-Pegex0.012010-08-03 05:42:38
PRBRENANDBM-Deep-Blue1.012010-08-03 09:01:00
XAICRONApp-pmuninstall0.032010-08-03 10:41:47
ZDMPharaoh-BootStrap3.002010-08-03 13:36:07
DBARTLETemplate-Directive-XSSAudit0.052010-08-03 18:40:56
BRAINBUZPg-BulkCopy0.142010-08-03 19:17:42
MCANTONIText-Extract-Stuff0.012010-08-03 19:36:54
ZDMPharaohBootStrap3.002010-08-04 03:29:00
TOMASZMeSH-Parser-ASCII0.012010-08-04 09:42:58
JNWURL-Checkout1.012010-08-04 19:07:34
DYLANXML-Crawler0.012010-08-05 02:33:58
RURBANJit0.012010-08-05 10:29:41
JJNAPIORKApp-local-lib-helper0.012010-08-05 13:52:04
JESSERT-Extension-MobileUI0.92010-08-05 16:58:09
LIMAONEText-CSV-R0.012010-08-05 19:26:30
JERIDevice-MegaSquirt0.012010-08-05 23:11:00
XEONTIMESakai-Nakamura0.012010-08-06 09:53:56
TOKUHIROMTfall0.01_012010-08-07 02:26:54
TUSHARLog-SelfHistory0.12010-08-07 07:04:18
KOHTSYandex-Tools0.012010-08-07 11:14:44
RINTAROPlack-Middleware-CSRFBlock0.012010-08-07 18:22:52
CHILTSString-Random-NiceURL0.012010-08-07 19:25:28
DEEPAKGPrinter-HP-Display0.012010-08-08 03:40:50
TOKUHIROMTiffany0.01_062010-08-08 13:45:25
STEFANOSMIME-Base161.02010-08-09 00:19:00
STEFANOSMIME-Base911.02010-08-09 04:26:36
POCKETData-Sheet0.012010-08-09 06:03:33
VTIMojoX-Validator0.00012010-08-09 09:35:00
ZENTOOOPlack-App-Proxy-Selective0.022010-08-09 10:03:09
PHREDConfig-SL0.012010-08-09 15:29:00
PHREDApp-SilverSplash0.012010-08-09 16:17:52
PHAYLONSyntax-Feature-Function0.0012010-08-09 18:05:15
PHAYLONsyntax0.0012010-08-09 18:06:42
PHAYLONSyntax-Feature-Method0.0012010-08-09 22:43:26
KCOTTTk-ROSyntaxText1.0002010-08-09 23:21:50
FLUFFYRRD-Daemon1.002010-08-10 00:05:14
INGYPegex0.022010-08-10 04:19:44
NPLATONOVDist-Zilla-Plugin-JSAN0.01-TRIAL2010-08-10 09:37:18
BARBIEBundle-WWW-Scraper-ISBN-Drivers1.002010-08-10 09:40:16
BARBIEWWW-Scraper-ISBN-Booktopia_Driver0.012010-08-10 09:44:58
BARBIEWWW-Scraper-ISBN-A1Books_Driver0.012010-08-10 09:45:10
HMBRANDTie-Hash-DBD0.052010-08-10 10:03:00
ALEXBIOAlgorithm-URL-Shorten0.012010-08-10 12:54:30
IDOPERELPlack-Session-Store-MongoDB0.12010-08-10 13:42:41
CLIFFORDJNet-Trustico0.012010-08-10 14:14:32
IDOPERELDancer-Session-MongoDB0.12010-08-10 15:10:36
SIMONWNet-Posterous0.82010-08-10 19:17:06
EXODISTFennec-External0.0012010-08-10 20:07:00
STEFANOSMIME-Base21.02010-08-11 05:37:43
STEFANOSMIME-Base851.02010-08-11 10:46:57
HOLLYApp-CLI-Plugin-Daemonize1.02010-08-11 11:17:00
TOKUHIROMTiffany-JSON0.01_012010-08-11 20:12:08
BRIANGCPAN-Mini-Visit-Filtered0.01_012010-08-12 06:30:01
TONYCImager-File-PNG0.762010-08-12 07:21:40
VDGDBIx-Class-Tree-Mobius0.00001_032010-08-12 10:48:08
PVANDETest-Mini-Unit0.0503002010-08-12 20:58:51
JALDHARObject-WithParams0.12010-08-13 00:39:57
AYANOKOUZWebService-Simple-Yahoo-JP-API0.012010-08-13 00:54:24
BOBTFISHMooseX-Types-DateTime-MySQL0.0012010-08-13 12:49:17
STEFANOSBio-BMI1.02010-08-13 15:51:28
JVTemplate-Plugin-HTML_NonAsc0.012010-08-13 16:23:21
CSJEWELLDist-Zilla-BeLike-CSJEWELL0.9002010-08-13 18:38:53
SREZICTk-Xcursor0.012010-08-14 05:06:18
VTIMojolicious-Plugin-TweetButton0.00012010-08-14 05:19:17
REHSACKAlien-Packages0.000_0012010-08-14 12:17:19
JAMEFTN-Log0.022010-08-14 19:43:30
KRYDEGtk2-Ex-History12010-08-14 20:01:35
JAMEFTN-Database0.012010-08-14 20:11:00
DWHEELERTAP-Parser-SourceHandler-pgTAP3.222010-08-14 21:07:00
JAMEFTN-JAM0.032010-08-15 01:12:16
DATAMojolicious-Plugin-YamlConfig0.0.12010-08-15 09:53:08
NEVESENINRegexp-RegGrp0.01_012010-08-15 13:08:12
MILAMooseX-Role-Timer0.012010-08-15 14:41:16
SKXBlog-Spam0.12010-08-15 16:00:24
JABRANexposeSimpleXML-Parser0.012010-08-15 16:08:27
JABRAMetasploitExpress-Parser0.012010-08-15 16:09:54
GRAYMojoX-Renderer-Xslate0.012010-08-15 17:15:58
EGORSHNet-Google-Blogger0.012010-08-15 17:44:56
RODRIGOMongoose0.01_012010-08-15 18:42:19
JSIMPSONApp-Guiio0.992010-08-16 04:32:26
KAMALLiteProcess0.012010-08-16 08:51:31
DUEBERBLibrary-CallNumber-LC0.102010-08-16 13:14:03
RYANGIESperl-Misc-Stopwatch00.010002010-08-16 13:14:16
KENTNLDist-Zilla-Plugin-Bootstrap-lib0.010000032010-08-16 14:24:00
NFERRAZDataWarehouse0.012010-08-16 14:56:05
SREZICAcme-PM-Berlin-Meetings201008.162010-08-16 16:05:58
KAKERegexp-Chinese-TradSimp0.012010-08-16 16:21:12
RYANGIESperl-Apache2-LogUtil00.010012010-08-16 19:32:10
CINDYMemcached-Server0.012010-08-17 01:59:45
PETDANCETAP-Parser-SourceHandler-PHP0.012010-08-17 12:53:15
ABHYellowBot-API0.902010-08-17 15:39:28
TOBYINKRDF-TriN30.1262010-08-17 16:23:15
NOTBENHNet-OAuth-Easy0.001_012010-08-17 19:14:19
YANNKControlFreak1.0.02010-08-17 19:18:26
MARTperl-local-env0.012010-08-17 20:16:01
NACHBAURTest-Story0.072010-08-17 20:23:00
NEKOKAKDBIx-DBHResolver-Strategy-RoundRobin0.012010-08-17 22:40:20
IDOPERELDist-Zilla-PluginBundle-IDOPEREL0.12010-08-18 06:40:49
KJETILKRDF-Helper-Properties0.082010-08-18 08:34:52
ALEXBIOText-Todo-Simple0.012010-08-18 09:27:25
RBUELSCatalyst-View-HTML-Mason0.01-TRIAL2010-08-18 12:29:47
CUBABITDBIx-Class-InflateColumn-DateTime-Duration0.010002010-08-18 15:37:00
DUFFDist-Zilla-Plugin-TemplateFile0.012010-08-18 17:34:54
SSCAFFIDIDate-Extract-Surprise0.0012010-08-18 18:50:48
CERNEYTcl-pTk0.82010-08-18 21:14:29
JMCNAMARAApp-Pod2Epub0.012010-08-18 21:20:47
TJCCatalyst-Authentication-Credential-YubiKey0.022010-08-18 23:06:00
DMAKIDateTime-Astro0.99999_012010-08-19 00:23:33
DUFFDist-Zilla-PluginBundle-Rakudo0.012010-08-19 01:50:27
GFUJIPOSIX-AtFork0.01_012010-08-19 04:12:39
STUIFZANDApp-DoubleUpv0.1.02010-08-19 09:39:16
SUKRIATest-TinyMocker0.012010-08-19 10:30:45
TURUGINAWWW-Shorten-ptl0.012010-08-19 13:21:46
VVELOXMP3-Tag-Utils0.0.02010-08-19 18:18:33
DAPATRICKPod-Coverage-MethodSignatures0.012010-08-20 02:29:50
PMOONEYWWW-Lovefilm-API0.102010-08-20 06:48:00
KUBINAText-Corpus-Summaries-Wikipedia0.202010-08-20 09:59:34
SMUELLERMath-Clipper0.012010-08-20 11:11:41
JJNAPIORKPlack-Middleware-Debug-W3CValidate0.012010-08-20 13:19:20
ABIGAILApp-Bitly20100820012010-08-20 14:58:40
BINGOSTask-CPANPLUS-Metabase0.022010-08-20 17:47:59
AWNCORPScrappy0.52010-08-21 00:25:00
JALDHARREST-Utils0.12010-08-21 02:47:04
CORNELIUSAnyEvent-Cron0.012010-08-21 09:55:02
EGORSHWebService-Blogger0.092010-08-21 10:14:44
LESPEATask-BeLike-LESPEA1.002010-08-21 16:01:32
REVMISCHARTSP-Server0.012010-08-21 19:37:37
CORNELIUSApp-cpansearch0.012010-08-22 00:43:18
NPLATONOVDist-Zilla-Plugin-JSAN-Shotenjin0.01_012010-08-22 09:14:39
DAGOLDENCPAN-Testers-Config0.0012010-08-22 11:50:55
DGLdeferred0.012010-08-22 13:58:50
PEVANSoverload-substr0.01_0012010-08-22 15:08:37
DANKOGAIData-Decycle0.012010-08-22 16:02:07
KLYNCParallel-Supervisor0.022010-08-22 22:29:44
RSAVAGEWWW-Scraper-Typo31.002010-08-23 02:03:14
DMAKIPlack-Handler-Mongrel20.01000_012010-08-23 05:59:40
MADZData-Dmap0.012010-08-23 07:55:00
MITHALDUCode-Statistics1.102350-TRIAL2010-08-23 08:21:10
JNWFile-Unpack0.172010-08-23 15:32:26
KRYDEMath-Polynomial-Horner12010-08-23 18:16:36
KRYDEdistlinks12010-08-23 18:18:12
KRYDEMath-Aronson12010-08-23 18:18:24
DAVIDPXymon-Monitor-SNMP0.012010-08-23 19:51:00
SHARIFULNMojolicious-Plugin-Mail0.52010-08-24 09:46:13
MNFCSS-Preparev0.92010-08-24 10:00:04
GDMLWP-UserAgent-OfflineCache0.022010-08-24 10:24:10
HSWCGI-Session-Driver-dbic1.002010-08-24 11:27:24
RURBANBundle-CPANReporter20.012010-08-24 15:00:47
PEVANSTest-MemoryGrowth0.012010-08-24 18:05:04
TOBYINKJSON-JOM0.0012010-08-25 07:26:03
DPAVLINPrinter-EVOLIS0.012010-08-25 08:14:00
DPAVLINRFID-Biblio0.022010-08-25 08:26:36
DPAVLINBiblio-RFID0.032010-08-25 13:29:22
NANISTemplate-Plugin-GoogleLaTeX0.012010-08-25 13:33:31
MJGARDNERDist-Zilla-Plugin-WSDL0.1023702010-08-25 15:10:33
DAVECROSSNet-Songkick0.012010-08-25 15:59:58
MMORGANAttribute-Method-Tags0.102010-08-25 17:41:58
MMORGANTest-Class-Filter-Tags0.102010-08-25 17:42:10
JJNAPIORKCatalyst-ActionRole-BuildDBICResult0.012010-08-25 18:25:21
TOBYINKJSON-JOM-Plugins-JsonPath0.0012010-08-26 04:33:19
KAZUHOTest-Httpd-Apache20.012010-08-26 04:39:07
BBIMBERLabkey-query0.012010-08-26 12:14:50
INGYMousse0.012010-08-26 18:08:32
SCHWIGONTAP-DOM0.102010-08-26 19:25:38
EASTWWW-YouTube-Info0.012010-08-27 05:08:53
EASTWWW-YouTube-Info-Simple0.012010-08-27 05:09:08
LEONTConst-Fast0.0032010-08-27 09:31:17
BLAIZERGame-ConnectFour0.012010-08-27 10:03:18
SQUEEKWebService-Forrst0.012010-08-27 10:41:02
SNKWATTTest-Uses0.012010-08-27 21:49:05
BLAIZERGames-ConnectFour0.0122010-08-28 04:02:00
BLXXSDSQL201008282010-08-28 04:36:00
FIBOPNI-GUI0.022010-08-28 10:29:22
CHANSENPerlIO-fgets0.012010-08-28 14:57:54
VVELOXMail-Maildir-Is-A0.0.02010-08-28 18:51:25
EXODISTHook-AfterRuntime0.0012010-08-29 00:17:00
YKOMojoX-CPAN-Uploader0.01_42010-08-29 07:09:20
CCCPSigAction-SetCallBack0.012010-08-29 09:59:55
NEOPHENIXRedis-hiredis0.0.12010-08-29 11:04:34
EXODISTDevel-Declare-Parser-Fennec0.0012010-08-29 11:36:49
EXODISTMooseX-AutoImmute0.0012010-08-29 21:48:28
JKEGLMarpa-XS0.001_0002010-08-29 23:54:00
JEAGLEIPC-Fork-Simple1.452010-08-30 03:08:48
JEAGLESpawn-Safe1.72010-08-30 03:24:22
JEAGLEGetopt-Tree1.102010-08-30 06:01:27
LUXSquid-Guard0.082010-08-30 15:40:56
GGALLONEBio-Homology-InterologWalk0.012010-08-30 19:21:29
SISYPHUSMath-MPFI0.012010-08-31 09:23:19
ZEFRAMTime-OlsonTZ-Download0.0002010-08-31 09:44:21
ZEFRAMTime-OlsonTZ-Data0.2010122010-08-31 10:15:22
ZEFRAMDateTime-TimeZone-Olson0.0002010-08-31 10:32:05
LEONTSignal-Mask0.0012010-08-31 12:04:04
JJNAPIORKTask-BeLike-JJNAPIORK0.012010-08-31 12:04:39
MCAUDILLNet-Bot-IRC-NumericCodes0.012010-08-31 14:13:28
EXODISTMethod-Workflow0.0012010-08-31 19:14:05

New Distributions for September 2010 (205)

AuthorDistributionVersionRelease Date/Time
POCKETPipe-Between-Object0.012010-08-31 20:12:00
GENEHACKApp-Poly0.001-TRIAL2010-08-31 22:49:00
HINRIKPOE-Component-IRC-Plugin-Eval0.012010-09-01 00:37:00
JONASBNTask-BeLike-JONASBN1.002010-09-01 07:58:00
BBIMBERLabkey-Query0.042010-09-01 09:05:49
XSAWYERXData-PowerSet-Hash0.012010-09-01 09:24:16
SHIRIRUWebService-GData0.01012010-09-01 11:58:00
BANGUnzip-Passwd0.0.5-Alpha2010-09-01 14:31:05
KAMELKEVCSS-Simple26982010-09-01 14:44:28
TTGGoogle-GeoCoder-Smart1.122010-09-01 14:57:23
CMCOSSECrypt-SimpleGPG0.22010-09-01 15:09:40
DAGOLDENCPAN-Testers-Metabase-Feed0.0012010-09-01 18:29:00
TOBYINKJSON-JOM-Plugins-JsonT0.0012010-09-02 06:00:00
SALVABit-Grep0.012010-09-02 08:24:00
WIRELESSDpersevere02010-09-02 15:21:18
WIRELESSDPersevere-Client0.12010-09-02 17:24:23
EXODISTMethod-Workflow-SPEC0.0012010-09-02 21:27:21
GRIANDeep-Encode0.022010-09-03 03:40:00
MARCELPod-Weaver-Section-Availability1.1024602010-09-03 06:03:56
MARCELPod-Weaver-Section-BugsAndLimitations1.1024602010-09-03 06:26:39
DOYPlack-Middleware-Auth-Htpasswd0.012010-09-03 14:42:10
KOSTYAWWW-Yandex-PhoneDetector1.032010-09-03 14:50:39
MMCLERICUbic-Service-Memcached1.002010-09-03 15:11:40
CSRVideo-CPL0.09_12010-09-03 19:13:12
JWEBSTERDigest-FNV-PurePerl0.012010-09-04 06:31:50
CLKAONumber-Extreme0.292010-09-04 12:25:39
FLORADevel-bt0.012010-09-04 16:25:39
EXODISTMethod-Workflow-Case0.0012010-09-04 17:52:48
KRYDEGtk2-Ex-NumAxis12010-09-04 21:50:00
MCAUDILLNet-Bot-IRC-Message0.012010-09-04 23:00:59
JASALOMONUNLbeautifier1.02010-09-04 23:17:00
BEANZSMS-Send-CSoft1.1024802010-09-05 10:01:04
BEANZSMS-Send-SMSDiscount1.1024802010-09-05 16:19:14
CTRONDLPImage-SubImageFind0.012010-09-05 16:49:30
AWNCORPDancer-Plugin-DBIC0.012010-09-05 19:46:22
LEEDOPlack-Session-Store-Redis0.012010-09-06 00:39:45
BARBIEWWW-Scraper-ISBN-WordPower_Driver0.012010-09-06 05:23:43
BARBIEWWW-Scraper-ISBN-OpenLibrary_Driver0.012010-09-06 05:23:54
LEONTThread-SigMask0.0012010-09-06 05:30:43
GUIMARDApache-Session-NoSQL0.022010-09-06 05:58:57
TOBYINKRDF-Prefixes0.0012010-09-06 06:08:05
LUKEROSSAcme-Nest0.012010-09-06 11:29:24
COSIMOText-Hunspell2.002010-09-06 12:39:35
DOGGYAnyMongo0.022010-09-07 13:10:33
HESSUHam-APRS-DeviceID1.002010-09-07 14:21:41
JONASBNPerl-Critic-Policy-logicLAB-ProhibitUseLib0.012010-09-07 15:43:55
JONASBNPerl-Critic-Policy-logicLAB-RequireVersionFormat0.012010-09-07 15:44:13
JONASBNPerl-Critic-logicLAB0.012010-09-07 15:48:22
DAMIDBD-SQLite-FTS3Transitional1.002010-09-07 18:49:41
SHARIFULNMojolicious-Plugin-ShareHelpers0.012010-09-08 05:33:51
JHTHORSENMooseX-BatmanBeforeRobin0.022010-09-08 08:56:46
PECOCPM1.0012010-09-08 09:54:06
PARTICLEtesting-pause-upload-criteria1.002010-09-08 11:04:27
BENBOOTHSet-IntervalTree0.012010-09-08 17:31:19
XSAWYERXApp-cpang0.032010-09-08 18:00:08
JAMEFTN-SRIF0.052010-09-08 22:57:35
BTROTTWWW-TypePad-CmdLine0.012010-09-08 23:28:00
AGRUNDMAImage-Scale0.012010-09-08 23:36:00
DANKOGAIPSGI-OR-CGI0.012010-09-09 03:42:32
IEFREMOVShared-Queue0.042010-09-09 04:44:54
MUTANTTest-MockObject-Extra0.0012010-09-09 06:56:53
RENEEBPadre-Plugin-RegexExplain0.012010-09-09 06:59:41
TURNERMMHTML-WikiConverter-DokuWikiFCK-0.32.10-Sep_0908_102010-09-09 08:30:08
AJGBCatalyst-ActionRole-ExpiresHeader0.012010-09-09 10:53:02
AJGBCatalyst-ActionRole-NotCacheableHeaders0.012010-09-09 10:53:15
TBESTEGPS0.012010-09-09 11:55:59
JJNAPIORKPlack-Middleware-Debug-DBIC-QueryLog0.012010-09-09 11:59:13
JJNAPIORKCatalyst-TraitFor-Model-DBIC-Schema-QueryLog-AdoptPlack0.012010-09-09 11:59:26
TBESTEBT368i0.012010-09-09 13:00:00
XIONGAcme-Teddy1.0020032010-09-09 18:03:10
IEFREMOVQueue-Mmap0.042010-09-10 03:19:52
IDOPERELLingua-EN-Titlecase-Simple0.12010-09-10 07:41:55
SALVABit-Util0.012010-09-10 08:59:37
SQUEEKWebService-HashBlue0.012010-09-10 09:03:47
OPIMath-EMA0.022010-09-10 10:23:46
OPIApache2-ScoreBoardFile0.012010-09-10 10:26:45
INGYModule-Install-ManifestSkip0.102010-09-10 15:25:10
WORRWWW-Formspring0.01-22010-09-10 15:29:37
PSCUSTAsm-Preproc0.012010-09-10 16:51:34
ABIGAILAcme-CPANAuthors-Booking20100911012010-09-10 19:52:00
IRONCAMELNet-Rackspace-Notes0.00012010-09-11 05:36:06
SUNNAVYLingua-Han-CanonicalPinYin0.012010-09-11 08:02:31
TBRNet-RabbitMQ-Simple0.00022010-09-11 16:28:17
BFITCHText-BSV1.012010-09-11 17:00:30
SILASMONKTest-CGI-Multipartv0.0.12010-09-11 17:07:05
EXODISTExodist-Util0.0012010-09-11 18:13:14
SGRAHAMPod-Weaver-Role-SectionReplacer0.99_012010-09-11 21:31:41
FAYLANDBusiness-AuthorizeNet-CIM0.012010-09-12 01:35:54
JROCKWAYAnyEvent-Inotify-Simple0.012010-09-12 05:14:21
RENEEBPadre-Plugin-DistZilla0.012010-09-12 09:01:31
VCRINIDice0.26.1-TRIAL2010-09-12 09:25:43
MTHURNLingua-Alphabet-Phonetic-StarWars1.022010-09-12 10:13:25
SGRAHAMPod-Weaver-PluginBundle-ReplaceBoilerplate0.99_012010-09-12 11:14:08
EMORGANLingua-EN-Ngram0.012010-09-12 16:46:21
MRDVTString-ProperCase-Surname0.022010-09-13 00:52:59
ABHHTML-Mason-PSGIHandler0.502010-09-13 01:43:22
TIMOSConvert-ASN1-asn1c0.012010-09-13 11:23:46
MBPMojo-MojoX-Dispatcher-Qooxdoo-Jsonrpc0.512010-09-13 12:43:50
EGORSHAudio-Metadata0.012010-09-13 14:01:01
MBPMojoX-Dispatcher-Qooxdoo-Jsonrpc0.512010-09-13 14:07:57
AWNCORPDancer-Plugin-Authorize0.012010-09-13 21:50:53
RHARMANRTx-AttachmentZip1.02010-09-13 23:57:33
INTERMINEInterMine-TypeLibrary0.942010-09-14 00:41:57
INTERMINEInterMine-Model0.942010-09-14 00:43:48
INTERMINEInterMine-Item0.942010-09-14 00:45:17
INTERMINEWebservice-InterMine0.942010-09-14 00:46:39
CORNELIUSApp-I18N0.0022010-09-14 02:30:19
TYPESTERData-AMF-XS0.01_012010-09-14 07:10:46
BARBIEWWW-Scraper-ISBN-BookDepository_Driver0.012010-09-14 09:16:18
BARBIEWWW-Scraper-ISBN-EmporiumBooks_Driver0.012010-09-14 09:18:36
JONASBNModule-Build-Bundle0.012010-09-14 09:21:26
BARBIEWWW-Scraper-ISBN-EdenBooks_Driver0.012010-09-14 10:13:32
BARBIEWWW-Scraper-ISBN-GoogleBooks_Driver0.012010-09-14 10:15:02
PSHANGOVApp-Pmhack0.0012010-09-14 11:12:48
INASjisTk0.012010-09-14 13:19:00
AHERNITClass-Injection1.012010-09-14 15:11:56
KRYDEGtk2-Ex-ComboBoxBits12010-09-14 19:00:32
ABIGAILGames-Word-Wordlist-SGB20100915012010-09-14 20:10:54
INGYModule-Install-AckXXX0.102010-09-14 20:24:00
PEVANSIO-Socket-IP0.012010-09-14 20:25:58
XIONGTest-Rangerv0.0.32010-09-15 05:31:52
EXODISTFennec-Lite0.0012010-09-15 14:58:37
TOBYINKJSON-JOM-Plugins-YAML0.0012010-09-15 15:02:55
TBESTEInsolation0.012010-09-15 15:46:56
SANTERIVT-API0.102010-09-15 16:57:48
FILINCatalyst-Authentication-Store-LDAP-AD-Class0.012010-09-16 07:12:05
TIMOSNet-CSTAv3-Client0.012010-09-16 08:14:22
SAPERPOE-Component-Client-BigBrother1.002010-09-16 11:35:37
DWHEELERSemVerv0.1.02010-09-16 15:09:00
INGYScalar-Random-PP0.102010-09-16 20:28:27
HAGGAINet-StackExchange0.1026002010-09-17 03:38:40
SMUELLERDumbbench0.012010-09-17 09:49:29
SMUELLERClass-XSAccessor-Compat0.012010-09-17 10:37:27
OPERANet-MyOpera0.012010-09-17 11:33:54
JJNAPIORKModule-Setup-Flavor-JJNAPIORK0.012010-09-17 13:41:45
MAMAWEApp-Checklist-Formatter0.0.22010-09-17 16:28:04
SSCAFFIDIPod-Stupid0.0012010-09-17 16:57:54
INGYModule-Install-VersionCheck0.102010-09-17 20:12:15
FAYLANDBusiness-PayflowPro-Reporting0.012010-09-18 00:26:16
TWINKLEHTML-EmbeddedPerl0.012010-09-18 03:46:59
ANDYAPath-Class-Each0.012010-09-18 08:36:54
TWINKLEHTML-EmbeddedPerl-Test0.012010-09-18 09:47:03
BINGOSAcme-CPANAuthors-ToBeLike0.022010-09-18 13:57:26
KOORCHIKDLM-Client0.012010-09-18 14:48:57
SANKOSolution0.0000000012010-09-18 21:00:48
HAARGPlack-Middleware-CrossOrigin0.0012010-09-19 13:35:26
DJIBELVenn-Chart1.002010-09-19 14:55:00
ASGTest-Magic0.102010-09-19 14:57:00
LIFEGUARDMediaWiki-Bot-Shell0.0012010-09-19 16:54:34
INGYApp-AYCABTU0.012010-09-19 20:46:17
ARODLANDTAP-Spec-Parser0.022010-09-19 23:42:16
STEPHANJAudio-RPLD0.0012010-09-20 12:16:03
LEONTLinux-FD0.0012010-09-20 13:18:58
BINGOSApp-SmokeBox-PerlVersion0.022010-09-20 18:33:01
DAVIDPXymon-Server-Status0.012010-09-20 19:04:16
RSAVAGEDBIx-Tree-Persist1.002010-09-20 20:49:26
TEMPIREGoogle-Voice0.012010-09-20 20:52:24
GRIANWin32-FindFile0.012010-09-21 03:40:55
GRIANAlgorithm-TSort0.012010-09-21 07:40:56
MARCELDist-Zilla-Plugin-FindDirByRegex1.1026402010-09-21 08:57:00
SPRADEEPData-RoundRobinShared0.102010-09-21 09:00:40
DJIBELTk-Chart1.002010-09-21 13:10:39
MDORMANMemcached-Client0.952010-09-21 14:12:41
JOHNDASP4-PSGI0.0012010-09-21 19:14:21
JCONERLYCDN-Edgecast-Client0.01.00-TRIAL2010-09-21 20:25:12
RGEApp-Syndicator0.0012010-09-22 08:56:42
AREGGIORIAMF-Connection0.102010-09-22 11:26:00
SMUELLERStatistics-CaseResampling0.012010-09-22 12:29:41
TOBYINKRDF-Crypt0.0012010-09-22 17:04:03
SNKWATTConfig-Ant0.012010-09-22 17:36:26
SUNNAVYRT-Extension-JSGantt0.042010-09-22 21:39:19
KAZUHOString-Filter0.012010-09-23 02:21:17
STRODist-Zilla-Plugin-GatherFromManifest0.0012010-09-23 10:24:01
KAARECatalyst-Model-REST0.012010-09-23 15:06:49
NORBUStore-CouchDB1.32010-09-23 21:15:15
GFUJIMouseX-Foreign0.0012010-09-24 06:55:23
TWINKLEURI-UTF8-Punycode0.012010-09-24 10:31:13
GTERMARSCrypt-OpenToken0.022010-09-24 16:12:55
XAICRONGetopt-Compact-WithCmd0.012010-09-25 02:22:04
GOMORNet-Lorcon22.022010-09-25 04:40:31
JEBNet-Dynect-REST0.012010-09-25 06:01:22
MHASCHMath-ModInt0.0012010-09-25 20:54:12
RENEEBPadre-Plugin-Pastebin0.012010-09-26 04:16:38
JKUTEJModule-Overview0.012010-09-26 05:14:49
SREZICAcme-SREZIC-Obsolete0.012010-09-26 14:45:37
CCCPMooseX-ConsistentHash0.012010-09-26 15:46:55
KEROYONAnyEvent-FlashSocketPolicy0.01_12010-09-27 00:51:28
JAKFile-Checkm0.012010-09-27 03:26:00
ERIAMPOE-Component-Server-MySQL0.01_012010-09-27 05:51:00
ERNESTOFrost0.65-TRIAL2010-09-27 10:36:25
AHERNITHash-Work0.012010-09-27 16:48:26
SDENMedical-ICD100.012010-09-28 07:20:00
PSHANGOVApp-PodPreview0.0012010-09-28 16:57:24
HINRIKObject-Pluggable1.272010-09-29 00:37:48
STASHFeersum0.932010-09-29 04:36:24
PSHANGOVApp-Rcsync0.012010-09-29 09:08:00
RJBSTest-Routine0.0012010-09-29 11:25:29
YANICKCatalyst-Plugin-Sitemap0.0.12010-09-29 20:18:00
AKALINUXNet-IPRangeCompare0.0012010-09-29 22:18:50
GFUJIText-Clevery0.00032010-09-29 23:01:34
KEROYONWebService-Async0.012010-09-30 08:50:43
KEROYONWebService-Async-Google-TranslateV1_0-0.012010-09-30 08:53:37
KEROYONWebService-Async-Google-TranslateV1_00.012010-09-30 08:53:37
TONODERAColor-Model-Munsell0.012010-09-30 15:02:08
DCANTRELLDevel-CheckApplicationCapabilities1.02010-09-30 18:14:05

New Distributions for October 2010 (221)

AuthorDistributionVersionRelease Date/Time
AWNCORPMojolicious-Command-Package0.012010-09-30 22:20:57
KEROYONWebService-Async-Microsoft-TranslateV20.012010-10-01 06:55:44
DONEILLMemory-Usage0.2012010-10-01 16:37:28
MSISKNet-Nmsg0.042010-10-01 18:11:07
BINGOSCPANPLUS-Internals-Source-CPANMetaDB0.022010-10-01 18:48:19
DANKOGAIAcme-Akashic-Records0.012010-10-02 12:42:27
HAGGAINet-isoHunt0.1027602010-10-02 23:57:45
STEFANOSURI-ftps0.012010-10-03 07:39:11
STEFANOSURI-scp0.012010-10-03 07:52:05
STEFANOSURI-ftpes0.012010-10-03 07:58:00
AKALINUXDBIx-BulkLoader-Mysql0.012010-10-03 18:41:57
STEFANOSText-Phonetic-Caverphone02010-10-03 21:17:08
STEFANOSText-Phonetic-Nysiis1.02010-10-03 22:27:08
STEFANOSFinance-Currency-Convert-ECB0.12010-10-04 04:45:43
TONYCImager-File-GIF0.782010-10-04 07:39:58
CHRISANet-SAML20.01_012010-10-04 08:38:54
STEFANOSGames-Killingfloor-Mapcache0.12010-10-04 13:38:21
ECARROLLnextgen0.012010-10-04 16:23:00
JUSTERWWW-AUR0.012010-10-04 17:07:55
AKALINUXDBIx-SimpleGoBetween0.012010-10-04 17:56:02
HANENKAMPSword0.1027702010-10-04 19:18:20
STEFANOSText-Phonetic-MultiPhone1.02010-10-05 00:11:58
STEFANOSText-Phonetic-TransMetaphone1.02010-10-05 01:26:48
STEFANOSText-Phonetic-Phonet1.02010-10-05 01:46:02
RSAVAGETree-DAG_Node-Persist1.002010-10-05 02:14:05
ZEROLIUBio-KEGGIv0.0.22010-10-05 03:29:00
AWNCORPMongrel0.012010-10-05 06:18:10
SHUFFWebService-Uptrackv0.0.12010-10-05 14:00:19
SILASMONKHTML-Acidv0.0.12010-10-05 19:50:00
HITSUCache-Memcached-Fast-CGI0.022010-10-05 20:23:56
AKALINUXIP-RangeCompare2.0122010-10-05 23:44:54
STEFANOSText-Phonetic-Soundex-Length1.02010-10-06 01:47:06
CHRISACrypt-OpenSSL-VerifyX5090.01_012010-10-06 06:43:15
MAROSCatalystX-I18N1.002010-10-06 09:26:48
MERIXZONWWW-Shorten-Googl0.992010-10-06 09:49:42
HERNANCatalyst-Example-InstantCRUDStylish0.0362010-10-06 12:25:24
IONCACHEPlack-Middleware-HTMLify0.1.02010-10-06 15:38:00
DORMANDOMogileFS-Server2.412010-10-06 17:45:27
OALDERSPlack-Middleware-NoDeflate0.012010-10-06 23:36:30
XIONGCheat-Metav0.0.42010-10-07 02:30:53
MANWARTest-Excel0.012010-10-07 06:51:49
MELEZHIKAMZ_TEST0.0.12010-10-07 08:54:46
BFITCHAI-SimulatedAnnealing1.012010-10-07 14:52:56
TBRMooseX-Log-Syslog-Fast0.12010-10-07 22:15:25
DWHEELERModule-Build-DB0.102010-10-07 22:29:50
TONYCImager-File-TIFF0.782010-10-07 23:51:00
TONYCImager-File-JPEG0.782010-10-08 00:15:00
TONYCImager-Font-FT20.782010-10-08 01:23:14
FRODWITHPlack-Middleware-Compile0.012010-10-08 01:50:12
TONYCImager-Font-W320.782010-10-08 02:32:21
TOKUHIROMHTML-Pictogram-MobileJp0.012010-10-08 03:24:19
SPRADEEPNet-SMS-MunduSMS0.012010-10-08 10:20:19
TBRRole-Log-Syslog-Fast0.112010-10-08 13:59:07
FLORADevel-ChangePackage0.012010-10-08 21:28:11
YAPPOWWW-Shorten-Google0.012010-10-09 01:08:38
CLKAOTest-Log-Log4perl0.292010-10-09 05:47:11
YSASAKIIterator-ToArray0.022010-10-09 08:22:14
CLKAOAnyEvent-Monitor0.292010-10-09 09:31:04
STEFANOSText-MatchRatingCodex0.012010-10-09 10:17:50
STEFANOSText-Phonetic-MatchRatingCodex1-02010-10-09 10:19:17
STEFANOSText-Phonetic-MatchRatingCodex-102010-10-09 10:19:17
CLKAOLog-Log4perl-Appender-Gearman0.292010-10-09 11:25:58
EDWARDIIIApp-Nopaste-Service-Madduck0.012010-10-09 11:41:00
AWWAIIDSDLx-Controller-Coro0.032010-10-09 14:24:04
AWWAIIDApp-turtleshell20101009.02010-10-09 14:34:50
EXODISTMeta-Builder0.0012010-10-09 16:58:03
HINRIKPOE-Component-IRC-Plugin-MultiProxy0.012010-10-09 17:40:05
TOKUHIROMKyotoTycoon0.012010-10-09 22:38:25
TOKUHIROMCache-KyotoTycoon0.022010-10-09 23:01:40
JALDHARCGI-Application-Plugin-REST0.12010-10-10 05:50:56
STEFANOSBusiness-Tax-VAT-Validation-DE0.12010-10-10 05:52:23
PAWELKROLD64-Disk-Image0.012010-10-10 11:25:14
MELOProtocol-Notifo0.0012010-10-10 12:39:06
MELOWebService-Notifo0.0012010-10-10 12:41:57
MELOApp-Notifo0.0012010-10-10 12:47:17
MELOAnyEvent-WebService-Notifo0.0012010-10-10 12:51:21
BTIETZNet-DNS-ZoneParse0.12010-10-10 14:56:00
CKAISERTerm-ReadLine-TTYtter1.02010-10-10 15:47:00
MMLANGEBlueCoat-SGOS0.942010-10-10 22:50:50
DAMSDancer-Plugin-Params-Normalization0.12010-10-11 12:18:00
JETEVEApp-PgCryobit0.01_022010-10-11 15:22:11
ANELSONGeo-Address-Mail-Standardizer-USPS-AMS-Results0.022010-10-11 15:45:26
SDECASTEPlack-Middleware-Debug-Profiler-NYTProf0.032010-10-11 16:52:22
JMCNAMARAExcel-Writer-XLSX0.012010-10-11 17:21:56
DHORNEETLp0.012010-10-11 20:16:50
FREMANDevice-Inverter-Aurora0.012010-10-11 22:15:33
TOKUHIROMCache-KyotoTycoon-REST0.012010-10-12 01:01:26
XAVSpreadsheet-XlateExcel0.012010-10-12 01:36:22
XAICRONModule-Install-ExtendsMakeTest0.01_012010-10-12 06:58:38
TOKUHIROMHTTP-Session-Store-KyotoTycoon0.012010-10-12 07:35:29
SGRAHAMApp-podweaver0.99_012010-10-12 08:42:00
FRANCKCNet-HTTP-Spore0.012010-10-12 11:19:58
SILASMONKCGI-Application-Plugin-AJAXUploadv0.0.12010-10-12 11:46:06
RURBANBundle-CygwinVendor0.012010-10-12 13:01:50
ROKRApp-lntree0.00102010-10-12 17:49:01
FAYLANDNet-Todoist0.012010-10-12 23:23:21
ADITYADigest-XSAdler320.012010-10-13 03:55:08
AWNCORPDancer-Plugin-ORMesque0.01002010-10-13 10:11:19
AXANTHOSLingua-TreeTagger0.012010-10-13 12:48:34
KCHAITANYahoo-Weather0.032010-10-13 12:58:56
JROCKWAYAnyEvent-Multilog1.1028602010-10-13 14:18:52
ARMSTRONGPNC0.012010-10-13 16:06:14
STEFANOSLove-Match-Calc0.12010-10-13 16:13:08
AKALINUXData-Range-Compare1.0022010-10-13 22:13:18
RUSSOZNet-LDAP-SimpleServerv0.0.42010-10-13 23:50:43
AHERNITTemplate-Plugin-UTF8toANSI0.012010-10-14 06:42:44
HOBBESTIGDancer-Plugin-FormValidator0.12010-10-14 13:30:03
PRAVUSCatalyst-Plugin-Log-Log4perl0.002010-10-14 19:28:32
AJGBData-ArrayList0.012010-10-14 20:27:00
TODDRRazor2-Client-Agent2.832010-10-15 11:00:02
BKBLingua-JA-Moji0.022010-10-15 12:30:16
AWNCORPDancer-Plugin-DataFu0.01002010-10-15 15:11:16
AKALINUXData-IPV4-Range-Parse0.012010-10-15 16:48:40
HERNANImage-Simple-Gradient0.012010-10-15 18:13:13
GBARRMooseX-DBIC-Scaffold0.1028802010-10-15 18:23:58
DWHEELERRouter-Resource0.102010-10-15 23:10:21
KAAREJet0.0012010-10-16 03:52:51
JHTHORSENVideo-Webcam-DCS66200.012010-10-16 07:42:22
EDECAHTTP-Sessioniser0.052010-10-16 11:03:30
IDOPERELText-SpanningTable0.12010-10-16 11:04:57
MATTNGrowl-Any0.012010-10-16 11:11:29
JIRACGI-Application-Plugin-DetectAjax0.012010-10-16 14:45:47
SPAZMNet-HTTP-Factual0.1028902010-10-16 19:04:10
KITANOPlackX-RouteBuilder0.012010-10-16 22:36:23
DETINet-ENUM0.12010-10-17 02:44:16
ZBYWebNano0.0012010-10-17 04:35:59
ZBYWebNano-Renderer-TT0.0012010-10-17 04:36:15
ZBYWebNano-Controller-CRUD0.0012010-10-17 04:39:31
GFUJIAcme-Hidek40.02010-10-17 06:01:25
AJCTDancer-Plugin-Mongo0.012010-10-17 06:17:48
KITANOWeb-Dispatcher0.042010-10-17 06:40:53
KITANOWeb-Dispatcher-Simple0.052010-10-17 06:48:57
ZIGUZAGUPlack-Middleware-Watermark0.012010-10-17 10:48:00
CAVACMaplat-Web-ComputerDB0.9942010-10-17 14:50:30
CARWASHAcme-AwesomeQuotes0.0.12010-10-17 15:44:31
AMBSTask-Lingua-PT0.022010-10-17 15:46:04
AKALINUXNet-IP-RangeCompare3.0192010-10-17 19:49:30
KAZUHOPlack-Middleware-AddDefaultCharset0.012010-10-18 04:58:06
DMITRYNODMojolicious-Plugin-Recaptcha0.12010-10-18 05:08:35
SARTAKPlack-Middleware-Test-StashWarnings0.012010-10-18 06:28:48
MALAURI-CrawlableHash0.012010-10-18 07:09:59
DOHERTYWWW-Pastebin-Sprunge-Retrieve0.0012010-10-18 10:37:36
DOHERTYWWW-Pastebin-Sprunge-Create0.0012010-10-18 10:40:26
DOHERTYApp-Pastebin-sprunge0.0012010-10-18 10:41:53
JROCKWAYDist-Zilla-PluginBundle-JROCKWAY1.1029102010-10-18 10:41:59
DOHERTYApp-Nopaste-Service-Sprunge0.0012010-10-18 10:43:27
DOHERTYDist-Zilla-PluginBundle-TestingMania0.0012010-10-18 10:44:57
DOHERTYDist-Zilla-Plugin-LocalInstall0.0012010-10-18 10:46:24
RCAPUTOApp-SnerpVortex1.0002010-10-18 11:38:58
SHARYANTOData-Dump-OneLine0.012010-10-18 12:38:00
AYOUNGPod-PseudoPod-XHTML1.02010-10-18 21:21:22
RJBSMooseX-OneArgNew0.0012010-10-18 21:36:26
RJBSString-Errf0.0012010-10-18 21:40:30
RJBSThrowable-X0.0012010-10-18 21:43:51
SANTERIACME-PM-Voronezh0.012010-10-19 16:09:33
HOBBESTIGDancer-Plugin-Browser0.12010-10-19 17:43:55
BERLEAmphibic-Log0.01-TRIAL2010-10-19 20:51:45
CSJEWELLPerl-Dist-WiX-BuildPerl-51221.250_1002010-10-19 23:31:53
ZERODOGGText-FromAny0.12010-10-20 07:13:00
KGRENNANNet-OAuth20.012010-10-20 15:24:29
JWILLIAMSClass-Classless-C31.002010-10-20 15:47:10
MUGUETPFIX0.032010-10-20 17:28:43
GETTYCatalyst-Model-Facebook0.0012010-10-21 00:00:45
MONSImage-LibExif0.012010-10-21 07:50:51
KITANODBIx-Simple-DataSection0.012010-10-21 08:33:07
SQUEEKDancer-Template-Semantic0.012010-10-21 09:51:00
TONODERAColor-Model-Munsell-Util0.012010-10-21 15:32:00
JHALLOCKGtk2-Ex-CellRendererWrappedText0.022010-10-21 23:08:18
KAZEBUROLog-Minimal0.012010-10-21 23:16:14
COMPLXDBD-cego1.1.132010-10-22 03:19:15
XAICRONModule-Install-TestTarget0.102010-10-22 10:51:48
DIZBot-BasicBot-Pluggable-Module-JIRA0.012010-10-22 15:44:00
DTRISCHUKCoro-Amazon-SimpleDB0.012010-10-22 16:37:59
SANTERITkx-WinIco0.012010-10-22 17:50:27
AZAWAWIDist-Zilla-PluginBundle-PadrePlugin0.012010-10-23 01:28:53
SKXSWF-Scripter0.22010-10-23 04:10:41
AZAWAWIPadre-Plugin-NYTProf0.012010-10-23 04:12:44
ROGERHALLNCBIx-Geo1.002010-10-23 05:44:05
IFOMICHEVIO-File-WithFilename0.012010-10-23 10:10:00
RJBSTest-Fatal0.0012010-10-24 00:23:40
TOKUHIROMFurl0.012010-10-24 04:03:24
BAYASHIPlack-Middleware-NanoResponse0.012010-10-24 08:35:49
OTTERLEYAnyEvent-STOMP0.12010-10-24 14:41:06
DINOMITEWebService-LOC-CongRec0.1_012010-10-24 19:40:34
LEONTSysV-SharedMem0.0012010-10-24 20:00:11
DOHERTYLingua-Boolean0.0012010-10-24 20:14:00
OTTERLEYAnyEvent-Curl-Multi0.012010-10-24 21:14:40
CSJEWELLPerl-Dist-WiX-BuildPerl-51011.250_1002010-10-24 21:50:03
CSJEWELLPerl-Dist-Strawberry-BuildPerl-51012.11_102010-10-24 22:10:05
CSJEWELLPerl-Dist-Strawberry-BuildPerl-51222.11_102010-10-24 22:10:19
RWSTAUNERGit-DescribeVersion0.004008-TRIAL2010-10-25 01:09:53
TOMIufs02010-10-25 03:37:05
XANTUSMojoX-AIO0.012010-10-25 04:18:20
RBUELSDist-Zilla-PluginBundle-RBUELS0.12010-10-25 14:05:48
BESSARABVMock-Person0.012010-10-26 00:16:00
RJBSPod-CYOA0.0012010-10-26 10:24:55
JSOBRIERNet-Google-SafeBrowsing20.12010-10-26 13:09:51
MANWARMap-Tube0.012010-10-26 13:37:03
AZAWAWIDist-Zilla-Plugin-LoadTests0.012010-10-26 14:10:20
RIZENChat-Envolve0.01002010-10-26 16:33:00
JESSERTx-TicketlistTransactions0.012010-10-27 08:45:31
SIMEONNet-OAI-ORE0.912010-10-27 10:22:38
TROXELBusiness-FedEx-RateRequest0.912010-10-27 23:36:29
NEKOKAKSub-Args0.012010-10-28 01:26:56
LMCMySQL-Privilege-Reader0.012010-10-28 08:32:55
AJGBApache2-Layer0.012010-10-28 08:38:24
GFUJIMouseX-Traits0.11012010-10-28 09:42:29
HOBBESTIGNet-Gandi0.12010-10-28 09:50:59
RJBSRole-Identifiable0.0052010-10-28 15:26:22
RJBSRole-HasMessage0.0052010-10-28 15:26:37
RJBSRole-HasPayload0.0052010-10-28 15:26:55
DANIELMMojoX-Session-Store-Libmemcached0.152010-10-28 18:03:31
ROGERHALLCGI-UploadEngine0.912010-10-29 05:23:49
TIMBPlack-Middleware-Debug-CatalystPluginCache0.0012010-10-29 14:26:54
TIMBPlack-Middleware-Debug-DBIProfile0.1012010-10-29 16:43:56
MOBSignals-XSIG0.042010-10-31 01:19:56
REHSACKApp-Math-Trainer0.000_0012010-10-31 05:13:19
DOHERTYDist-Zilla-PluginBundle-DOHERTY0.0012010-10-31 14:00:43
DOHERTYPod-Weaver-PluginBundle-DOHERTY0.0012010-10-31 14:02:00
PEVANSTest-Identity0.012010-10-31 15:16:33
MITHALDUNet-FTP-Mock0.1030402010-10-31 19:39:44

New Distributions for November 2010 (266)

AuthorDistributionVersionRelease Date/Time
RSAVAGEApp-Office-CMS0.902010-10-31 22:30:00
HEYTRAVParseUtil-Domainv1.0.02010-11-01 06:39:17
MNFImage-Placeholderv1.0.02010-11-01 10:00:23
BINGOSApp-CPANIDX-HTTP-Server0.022010-11-01 10:55:00
MASARTZQudo-Driver-DBI0.022010-11-01 12:14:46
MARKOVXML-Compile-SOAP-AnyEvent0.012010-11-01 12:33:06
DLUXmaildirsync1.22010-11-01 14:41:30
GBARRHTML-Mason-PlackHandler0.1030602010-11-01 20:17:02
GBARRPlack-Middleware-XForwardedFor0.1030602010-11-01 20:17:13
BRAINBUZPg-BulkCopyTest0.162010-11-01 21:22:00
BARBIEWWW-Scraper-ISBN-BarnesNoble_Driver0.012010-11-02 08:20:37
BARBIEWWW-Scraper-ISBN-WHSmith_Driver0.012010-11-02 08:22:04
BINGOSApp-SmokeBox-Mini-Plugin-Stats0.022010-11-02 10:48:49
DRUXAMorpheus0.322010-11-02 14:00:06
GETTYApp-Twitch0.0012010-11-02 23:30:44
KENTNLDist-Zilla-Util-Test-KENTNL0.010000012010-11-03 01:01:55
SQUEEKDancer-Plugin-Memcached0.012010-11-03 07:10:09
IDERRICKYash0.12010-11-03 13:31:48
KENTNLDist-Zilla-Util-EmulatePhase0.010000152010-11-03 13:57:53
OPERANet-OperaLink0.032010-11-03 18:24:24
SEKIAAlgorithm-KernelKMeans0.022010-11-03 23:50:56
SEKIAAlgorithm-KernelKMeans-XS0.012010-11-03 23:52:23
RJBSMooseX-ComposedBehavior0.0012010-11-04 00:32:17
ZARQUONArray-Transpose-Ragged0.012010-11-04 00:36:00
KAZEBUROScope-Container0.012010-11-04 03:06:21
STEFANOSWWW-DHL-Detail0.12010-11-04 04:27:00
TEDDYBusiness-RO-CNP0.012010-11-04 05:53:03
STEFANOSWWW-DPD-Detail0.12010-11-04 06:36:00
STEFANOSWWW-GLS-Detail0.12010-11-04 08:05:30
SATOHEncode-Base58-BigInt0.012010-11-04 08:39:00
KNIIPC-MPS0.082010-11-04 09:10:00
HOBBESTIGDancer-Plugin-Browser-Detect0.32010-11-04 10:18:21
STEFANOSWWW-Hermes-Detail0.12010-11-04 11:13:37
OLEGNet-Proxy-Type0.012010-11-04 11:18:06
VOJData-Beacon0.2.12010-11-04 12:06:06
MITHALDUWin32-Detached1.1030802010-11-04 13:17:02
GETTYDist-Zilla-PluginBundle-GETTY0.0012010-11-04 15:00:40
AJGBDist-Zilla-Plugin-AutoMetaResources1.1030802010-11-04 16:34:49
AJGBDist-Zilla-PluginBundle-AJGB1.1030802010-11-04 16:48:03
GENEHACKDist-Zilla-PluginBundle-GENEHACK0.01-TRIAL2010-11-04 21:14:00
CEBJYRETask-BeLike-Cebjyre0.0.12010-11-05 00:28:19
KAZEBUROPlack-Middleware-Log-Minimal0.012010-11-05 01:39:23
STEFANOSWWW-UPS-Detail0.12010-11-05 02:30:18
JROCKWAYAnyEvent-Retry0.012010-11-05 04:33:37
ADULAUNet-Whois-RIS0.12010-11-05 06:38:47
STEFANOSWWW-Deutschepost-Detail0.12010-11-05 07:57:22
STEFANOSWWW-iloxx-Detail0.12010-11-05 08:25:00
AHERNITObject-GlobalContainer0.012010-11-05 10:55:54
XAICRONDBIx-QueryLog0.012010-11-05 11:50:43
NICZEROMysql-PrettyPrinter0.12010-11-05 16:51:00
BIGPRESHDancer-Plugin-MPD0.012010-11-05 18:36:05
IPENBURGWWW-Wookie0.012010-11-05 19:36:00
BIGPRESHDancer-Plugin-DebugDump0.012010-11-05 19:39:00
ROBNNet-OpenID-Common1.030099_0012010-11-05 22:21:32
GETTYPOE-Component-Client-Feed0.0012010-11-05 23:29:29
KJETILSQLite-More0.102010-11-06 00:14:09
GETTYPOE-Component-FeedAggregator0.001-TRIAL2010-11-06 01:49:17
SLAFFANBundle-Biodiverse0.152010-11-06 03:42:27
SLAFFANBundle-BiodiverseNoGUI0.152010-11-06 03:54:09
STEFANOSWWW-Yahoo-Horoskop0.12010-11-06 04:23:00
XSAWYERXDancer-Logger-ConsoleSpinner0.012010-11-06 07:08:03
XSAWYERXDancer-Serializer-UUEncode0.012010-11-06 07:08:14
PEVANSNet-LibAsyncNS0.012010-11-06 08:03:22
GENEHACKApp-GitGot0.1-TRIAL2010-11-06 12:17:06
GARUCatalyst-View-Haml0.012010-11-06 13:51:26
SDENWebservice-ClinicalTrialsdotGov0.012010-11-06 16:13:11
FREWSyntax-Keyword-Junction0.0010002010-11-06 20:22:32
KHUSSEINCouchDB-Simple0.00012010-11-06 23:53:28
MIKOString-Util1.012010-11-07 01:07:00
MARTYLOOAlgorithm-Kuhn-Munkresv0.0.32010-11-07 01:57:00
AZAWAWIPadre-Plugin-WxWidgets0.012010-11-07 04:23:39
SDENWebService-ClinicalTrialsdotGov0.022010-11-07 06:34:28
JROCKWAYMooseX-APIRole0.012010-11-07 07:19:04
AMBRUSObject-Import1.0012010-11-07 07:48:48
MIKOData-Default0.102010-11-07 18:23:42
MIKODebug-MessageArray0.102010-11-07 18:30:23
GENEHACKApp-MiseEnPlace0.12010-11-07 23:27:47
PKAROUKINCatalyst-Model-Bitcoin0.012010-11-08 00:47:24
JROCKWAYnonsense0.012010-11-08 09:31:53
MOTIFBio-LITE-Taxonomy0.012010-11-08 09:58:52
MOTIFBio-LITE-Taxonomy-RDP0.012010-11-08 10:04:35
MOTIFBio-LITE-Taxonomy-NCBI0.012010-11-08 10:06:16
MOTIFBio-LITE-Taxonomy-NCBI-Gi2taxid0.012010-11-08 10:13:26
JROCKWAYMooseX-MultiObject0.012010-11-08 10:30:03
AHERNITLog4Perl-ImportHandle0.012010-11-08 13:35:26
FRODWITHTemplate-Plugin-HTML-Entities0.012010-11-08 14:57:50
FREDERICDMarc0.001-TRIAL2010-11-09 03:11:10
FRODWITHTemplate-Plugin-XML-Unescape0.022010-11-09 09:51:47
GRAYDigest-BMW0.012010-11-09 10:44:19
GRAYDigest-BLAKE0.012010-11-09 10:48:55
GRAYDigest-CubeHash0.012010-11-09 10:50:26
GRAYDigest-Shabal0.012010-11-09 10:53:14
AHERNITString-FilenameStatic0.012010-11-09 11:18:01
GRAYDigest-Keccak0.012010-11-09 11:35:13
GRAYDigest-Luffa0.012010-11-09 12:27:12
ANDOZERYm0.012010-11-09 12:27:25
GRAYDigest-Groestl0.012010-11-09 13:07:00
GRAYDigest-ECHO0.012010-11-09 13:32:02
GRAYDigest-Fugue0.012010-11-09 13:46:23
GRAYDigest-JH0.012010-11-09 14:12:57
WARRINGDElive-StandardV20.00_12010-11-09 19:38:12
GRAYDigest-SIMD0.022010-11-10 01:04:22
KAZEBUROPlack-Middleware-Scope-Container0.012010-11-10 01:41:47
AHERNITDir-ListFilesRecursive0.012010-11-10 09:11:04
AXIAKMeta-CTNCPackages12010-11-10 11:10:51
LONERRCatalyst-Plugin-Widget0.012010-11-10 13:30:54
QIUHWStatistics-embedR0.012010-11-11 07:39:27
MANWARCompare-Directory0.012010-11-11 13:00:29
MMCLERICDist-Zilla-Deb0.012010-11-11 13:55:40
SKUPSYCrypt-OpenSSL-PBKDF20.022010-11-11 15:58:45
AHERNITClass-ModuleByFile0.012010-11-11 16:08:18
GAASEncode-Locale0.012010-11-11 16:12:29
GPHATRule-Engine0.012010-11-11 18:25:13
GRAYDigest-SHAvite30.012010-11-11 22:24:15
GRAYDigest-Hamsi0.012010-11-11 22:25:42
FREWwarnings-illegalproto0.0010002010-11-11 23:05:02
GFUJIData-Validator0.012010-11-12 01:00:02
IRONCAMELAtomMQ0.00012010-11-12 05:11:05
FREDERICDmarc-moose0.0062010-11-12 06:12:18
DIZHopkins-Plugin-HMI0.9002010-11-12 15:59:56
DIZHopkins-Plugin-RPC0.9002010-11-12 16:23:24
BLAIRFinance-FIX0.012010-11-12 16:47:08
FAYLANDNet-SMTP-TLS-ButMaintained0.13_012010-11-12 22:00:03
NWELLNHOFPlack-Middleware-XSLT0.100002010-11-13 00:14:14
BINGOSCPAN-Recent-Uploads0.022010-11-13 15:06:23
DOHERTYDist-Zilla-Plugin-InstallRelease0.0022010-11-13 15:34:00
ASGWhatever0.102010-11-13 21:17:01
PUNYTANHTML-Entities-Recursive0.012010-11-14 04:08:10
LIGHTSEYCrypt-Passwd-XS0.42010-11-14 16:18:18
NATGData-Babel1.00_012010-11-14 17:07:16
DOYEval-Closure0.012010-11-14 17:50:45
NHORNECGI-Lingua0.012010-11-14 19:04:23
PARANOIDDBIx-Changeset1.112010-11-14 22:21:54
TZADIKVEncode-DosHebrew0.502010-11-14 22:36:21
RSAVAGEDBIx-Admin-DSNManager1.002010-11-15 00:04:05
GOYALIDomainOperations0.012010-11-15 01:58:12
MBAASMath-PercentChange0.012010-11-15 03:03:23
XIONGDevel-Commentsv1.1.32010-11-15 13:34:36
AWNCORPORMesque1.1031902010-11-15 14:35:46
CYCLESData-TreeValidator0.012010-11-15 16:03:09
RWSTAUNERDist-Zilla-PluginBundle-GopherRepellent0.0030112010-11-15 17:50:37
ILMARImultidimensional0.0012010-11-15 21:26:35
MSTROUTMoo0.0090012010-11-15 21:34:46
DPCHRISTDpchrist-CGI1.0182010-11-16 01:43:54
KAZEBUROJavaScript-Value-Escape0.012010-11-16 04:29:06
UNDEFMojoX-Redis0.42010-11-16 07:27:00
DSHEROHLocalOverride1.0002010-11-16 07:50:36
DOYPackage-Stash-XS0.15-TRIAL2010-11-16 10:38:58
XSAWYERXGit-Flux0.0_012010-11-16 10:48:32
MLEHMANNAnyEvent-Porttracker0.12010-11-16 12:37:00
LONERRCatalystX-Widget-Paginator0.012010-11-16 13:10:19
DROLSKYAntispam-Toolkit0.012010-11-16 15:25:56
LEONTLinux-Epoll0.0012010-11-16 16:10:03
MITHALDUSub-Exporter-Simple1.1032002010-11-16 17:11:41
SEESTIETOWosbee-Admin0.012010-11-16 17:55:45
GRAYAnyEvent-Digg-Stream0.012010-11-16 18:15:01
RWSTAUNERDist-Zilla-Plugin-Git-DescribeVersion0.0070062010-11-17 11:22:00
JOSHRDBIx-FileStore0.052010-11-17 12:16:46
FRODWITHException-Caught0.012010-11-17 12:50:02
CYCLESTest-Magpie0.01_012010-11-17 13:43:07
DMCBRIDETest-Command-Simple0.012010-11-17 14:06:23
BOBWX86-Disasm0.012010-11-17 14:43:59
POWERMANLog-Fast1.0.02010-11-17 16:13:55
MIKOApache2-Request-Plus0.102010-11-17 23:02:30
IMIOSGATomTom-WEBFLEET-Connect2.012010-11-18 07:46:45
DMUEYText-Fold0.12010-11-18 09:05:23
BARBIEWWW-Scraper-ISBN-Blackwell_Driver0.012010-11-18 09:39:49
BARBIEWWW-Scraper-ISBN-Foyles_Driver0.012010-11-18 09:41:21
BARBIEWWW-Scraper-ISBN-PickABook_Driver0.012010-11-18 09:42:19
BARBIEWWW-Scraper-ISBN-Waterstones_Driver0.012010-11-18 09:44:01
AHERNITConfig-IniHashReadDeep0.012010-11-18 10:48:53
AJGBMooseX-Types-DateTime-W3C1.1032202010-11-18 15:59:36
TOKUHIROMFile-Stamped0.012010-11-19 01:57:06
KAZUHONet-DNS-Lite0.012010-11-19 05:29:02
BALDURPlack-Middleware-ESI0.12010-11-19 05:46:24
SHARYANTOData-Format-Pretty-Console0.012010-11-19 06:35:27
KARUPAPlack-Middleware-Gzipv0.0.12010-11-19 08:00:06
VASEKDWebService-Futu0.012010-11-19 09:25:57
CYCLESocharles-Test-Magpie-v0.042-g9a8e6492010-11-19 22:28:42
BEANZDevice-RFXCOM1.1032402010-11-20 03:20:38
PSCUSTAsm-Z80-Table0.012010-11-20 16:16:59
GSLINAlgorithm-Bayesian0.12010-11-20 16:47:08
JHALLOCKStorm0.012010-11-20 18:41:50
POLETTIXDist-Zilla-Plugin-CustomLicense0.1.0_012010-11-20 19:49:00
KENTNLGentoo-Overlay0.010000152010-11-20 22:17:00
GENEHACKApp-GitGitr0.1-TRIAL2010-11-20 23:37:37
INGYStrategic-Wiki0.012010-11-21 01:54:00
BEANZAnyEvent-RFXCOM1.1032502010-11-21 07:56:57
POLETTIXText-Translate-Format0.1.0_012010-11-21 12:49:16
DROLSKYAntispam-httpBL0.012010-11-21 13:39:30
BFGMojoX-Run0.102010-11-21 15:17:51
RCLVideo--Flvstreamer0.12010-11-21 16:08:05
PSCUSTCPU-Z80-Disassembler0.012010-11-21 17:09:37
DETISTUN-RFC_53890.12010-11-21 17:45:04
GENEHACKWebService-FitBit0.1-TRIAL2010-11-21 21:51:34
RHOOPERVOIP-MS0.012010-11-21 22:52:36
MROZLinkLocal-IPv4-Interface0.12010-11-21 22:55:26
DOYDist-CheckConflicts0.012010-11-22 00:57:34
KARUPASledge-Template-Xslate0.0.12010-11-22 02:27:19
ROWAAString-CP12510.012010-11-22 04:18:52
MOTEMENScript-State0.012010-11-22 06:28:51
MITHALDUArray-Split1.1032612010-11-22 06:49:39
KAORUNumber-Format-SouthAsian0.012010-11-22 11:31:53
GETTYText-Socialize0.001-TRIAL2010-11-22 12:58:16
SBECKData-PrettyPrintObjects1.002010-11-22 15:38:55
DROLSKYDist-Zilla-Plugin-Conflicts0.012010-11-22 15:43:00
ESSELENSNet-LDAP-Filter-SQL0.012010-11-22 20:29:00
GSLINLingua-Gram0.012010-11-23 06:38:58
RJBSSub-Exporter-GlobExporter0.0012010-11-23 15:23:52
SWESTRUPApp-FileTools-BulkRename0.032010-11-23 18:02:37
AJGBWWW-Sitemap-XML1.1032702010-11-23 18:55:54
KENTAROProject-Libs0.012010-11-24 00:23:22
PANYUTicket0.012010-11-24 00:46:18
PANYUTicketmaster0.012010-11-24 01:20:56
TOBYINKRDF-Everywhere0.0012010-11-24 05:32:07
KAZUHOCache-LRU0.012010-11-24 07:00:37
POWERMANCGI-Easy1.0.02010-11-24 11:44:00
DMUEYAcme-ChuckNorris0.12010-11-24 21:40:16
DROLSKYPg-CLI0.012010-11-24 23:03:37
WOLDRICHTerm-ExtendedColor0.162010-11-25 00:12:56
GRAYDigest-GOST0.012010-11-25 01:37:51
POWERMANCGI-Easy-SendFile1.0.02010-11-25 02:48:25
POWERMANCGI-Easy-URLconf1.0.02010-11-25 04:40:00
VTIProtocol-WebSocket0.00012010-11-25 05:04:20
GRAYDigest-EdonR0.012010-11-25 06:20:00
PFARRNet-SMS-Clickatell-SOAPv0.012010-11-25 08:30:20
POTYLSOAP-Transport-HTTP-Log4perl0.012010-11-25 15:44:35
DHOUSTONBing-Search1.1032902010-11-25 17:00:29
DPCHRISTDpchrist-Scripts1.0082010-11-25 17:03:15
POWERMANText-MiniTmpl1.0.02010-11-25 18:03:08
NEKOKAKJonk0.012010-11-25 22:20:46
TADAMAnyEvent-HTTP-LWP-UserAgent0.012010-11-25 22:34:25
MONSAnyEvent-DBD-Pg0.012010-11-26 08:01:03
PEVANSNet-Async-WebSocket0.012010-11-26 14:07:53
ACIDCatalystX-PathContextv0.0.12010-11-26 16:31:35
DOHERTYString-Trim0.0012010-11-26 19:17:52
LKUNDRAKApache2-Filter-GoogleAnalytics1.002010-11-26 19:47:00
JREDwhat-i-did1.0.92010-11-27 06:02:26
MAKAMAKAJSON-PP-Compat50051.102010-11-27 12:22:35
MAKAMAKAJSON-PP-Compat50061.092010-11-27 12:39:22
MAKAMAKAJSON-PPdev2.271002010-11-27 12:52:16
SHLOMIFModule-Formatv0.0.12010-11-27 13:32:05
AQUILINAWWW-LaQuinta-Returns0.012010-11-27 14:12:46
ALTREUSBot-R9K0.012010-11-27 15:47:30
HOBBESTIGDancer-Plugin-Auth0.12010-11-27 18:06:16
ROKRDBIx-NoSQL0.00102010-11-27 22:36:51
FULLERMDCGI-Struct1.002010-11-28 07:29:00
RENEEBFabForce-DBDesigner-40.3052010-11-28 11:04:37
HOBBESTIGDancer-Plugin-Feed0.12010-11-28 13:26:43
AJGBMooseX-Types-Implements1.1033202010-11-28 16:52:14
KAORUApp-highlight0.012010-11-28 18:03:05
ROKRApp-prove4air0.00102010-11-28 19:32:52
YANICKCatalyst-Plugin-MemoryUsage0.0.12010-11-28 23:05:00
MRDVTArray-Average0.022010-11-29 00:44:19
SHELLINGApp-LDAP0.012010-11-29 01:31:57
TOKUHIROMDBIx-Inspector0.012010-11-29 07:56:40
FLORAMemoize-Saves0.662010-11-29 12:22:08
ESSELENSWWW-IRail-API0.0012010-11-29 13:32:14
RSAVAGEData-Session1.002010-11-29 22:54:00
NOBODYKinoSearchX-Simple0.022010-11-30 05:00:04
YOBERTApp-AutoBuild0.012010-11-30 06:21:56
MONSIEURApp-get_flash_videos1.24_012010-11-30 10:06:40
DOGGYNet-SinaWeibo0.0012010-11-30 10:34:51
PMAKHOLMPlack-App-WrapApacheReq0.012010-11-30 11:12:16
DROLSKYPg-DatabaseManager0.012010-11-30 11:44:14
XSAWYERXDancer-Session-KiokuDB0.012010-11-30 13:59:06

New Distributions for December 2010 (251)

AuthorDistributionVersionRelease Date/Time
CADEException-Sink3.012010-11-30 19:40:06
AHERNITString-Boolean0.012010-12-01 11:07:00
DPCHRISTDpchrist-ExtUtils-MakeMaker1.0112010-12-01 15:41:24
DPCHRISTDpchrist-Test1.0062010-12-01 15:41:41
PSHANGOVDist-Zilla-Plugin-Inject0.0012010-12-02 11:25:04
PHONYBONEData-Babel-Client0.01_012010-12-02 17:44:23
TWRIGHTNet-DHCPv6-DUID-Parser1.002010-12-02 23:21:46
NEKOKAKDBIx-TransactionManager0.012010-12-03 02:32:35
SUKRIADancer-Plugin-MobileDevice0.012010-12-03 06:36:28
SATOHPlack-Middleware-StaticShared0.012010-12-03 06:42:11
ROBNText-SpamAssassin2.0002010-12-03 06:42:26
GRAYGeo-Coder-SimpleGeo0.012010-12-03 06:48:18
SAUBERWWW-Phanfare-API0.012010-12-03 08:32:04
MJDDpchrist-FileType0.102010-12-03 09:56:06
CDFHAlgorithm-DependencySolver0.12010-12-03 10:21:01
BESSARABVSQL-Easy0.012010-12-04 08:35:02
MPGUTTANet-SMS-160By20.012010-12-04 11:04:00
POLETTIXLog-Log4perl-Tiny0.1.0_12010-12-04 12:23:45
TIMAConfig-YAML-Tiny1.42.02010-12-04 15:27:37
TIMAURL-RegexMatching1.12010-12-04 15:37:01
DHOUSTONPod-Weaver-Section-ClassMopper1.1033802010-12-04 17:58:05
CLKAOFinance-FITF0.292010-12-05 01:52:00
GRAYAcme-CPANAuthors-GitHub0.012010-12-05 07:07:27
DGLDevel-Valgrind-Client0.012010-12-05 10:13:23
MSTROUTEval-WithLexicals1.0000002010-12-05 12:21:05
MIKIHOSHIAcme-PrettyCure0.012010-12-05 13:01:25
CORNELIUSWeb-API-Mapper0.012010-12-05 13:13:09
MITHUNTMDB0.012010-12-05 14:50:37
PEVANSIO-Async-Loop-POE0.012010-12-05 17:31:38
METADOOTie-REHash1.002010-12-05 20:35:00
MICHAELWin32-Word-Declarative0.012010-12-06 03:18:46
PATBAKERZenoss-API1.02010-12-06 03:24:34
OTTERLEYAnyEvent-Redis20.12010-12-06 04:21:49
SATOHTest-HTML-Differences0.012010-12-06 06:32:48
SIMEONSemanticWeb-OAI-ORE0.942010-12-06 09:58:54
DROLSKYMooseX-Configuration0.012010-12-06 12:30:41
KANRange-Stringv0.012010-12-06 16:29:25
PATBAKERZenoss1.042010-12-06 18:51:53
RJBSApp-Addex-AddressBook-AppleScript0.0012010-12-06 22:08:01
NPEREZReflexive-Stream-Filtering1.1034102010-12-07 02:21:00
MLEHMANNApp-Staticperl0.12010-12-07 05:40:33
JEAGLEXBee-API0.22010-12-07 05:42:19
PIROLIXMIME_Base32_Readable02010-12-07 08:40:32
RTHOMPSONDist-Zilla-VersionPluginTester1.103410-TRIAL2010-12-07 17:34:16
NOTBENHTool-Bench0.0012010-12-07 19:49:52
RTHOMPSONList-Flatten-Recursive0.1034202010-12-07 22:39:35
FREWLog-Structured0.0010002010-12-07 23:58:26
FREWLog-Sprintf0.0010002010-12-07 23:59:53
NPEREZReflexive-Role-DataMover1.1034202010-12-08 04:51:00
JEAGLEDevice-XBee-API0.22010-12-08 05:39:00
FLORACatalyst-Authentication-Credential-Facebook-OAuth20.012010-12-08 07:38:00
TOKUHIROMSQL-Maker0.012010-12-08 09:19:26
AHERNITString-HexConvert0.012010-12-08 12:39:02
RTHOMPSONDist-Zilla-Plugin-CopyFilesFromBuild0.1034202010-12-08 16:32:50
FREWDBIx-Exceptions0.001000_012010-12-08 19:24:29
DAMEOAcme-W0.022010-12-08 20:06:58
XSAWYERXDancer-Plugin-Auth-RBAC1.1034302010-12-09 04:00:16
OLDERTest-Unit-ITestRunner0.012010-12-09 05:28:21
KITOMERHTTP-AppServer0.012010-12-09 06:03:07
RUDYCapture-SystemIO0.01_42010-12-09 09:14:39
FLORADBIx-Class-InflateColumn-Authen-Passphrase0.012010-12-09 10:10:29
FLORADBIx-Class-PassphraseColumn0.012010-12-09 10:14:41
IVSOKOLOVMojolicious-Plugin-GroupedParams0.012010-12-09 12:39:04
BOBTFISHApp-TailRabbit0.0012010-12-09 13:39:09
BOBTFISHApp-TailRabbit-Growl0.0012010-12-09 13:45:58
PECOEmail-Send-SMTP-Gmail0.12010-12-09 14:36:07
FLORADevel-SelfStubber1.032010-12-09 15:28:02
TOBYINKHTML-HTML5-Outline0.0012010-12-09 16:16:51
DJIBELTk-Dressing1.002010-12-09 17:11:17
ALTREUSOpt-Imistic0.012010-12-09 17:16:05
AYOUNGPod-Weaver-PluginBundle-AYOUNG0.142010-12-09 20:10:44
AYOUNGPPIx-IndexLines0.032010-12-09 20:31:00
IVANBusiness-OnlinePayment-CardFortress0.012010-12-09 21:22:11
RTHOMPSONDist-Zilla-Plugin-StaticVersion0.1034402010-12-10 01:37:44
PSHANGOVHTML-FormFu-Manual0.0012010-12-10 05:55:40
FLORAI18N-Collate1.012010-12-10 08:49:32
RWSTAUNERDist-Zilla-Plugin-PodLinkTests1.0030052010-12-10 14:41:34
FLORAEnv1.012010-12-10 16:24:06
SARTAKJifty-Plugin-EmailErrors0.012010-12-10 16:51:56
SUKRIADancer-Plugin-Auth-Twitter0.012010-12-10 17:05:04
FLORAautouse1.062010-12-10 17:16:43
ALYXAudio-Audacious0.9322010-12-10 17:22:19
ZOFFIXApp-ZofCMS-Plugin-HTMLMailer0.01012010-12-10 18:18:32
AJGBMojoX-Renderer-Alloy1.1034502010-12-10 20:36:00
TOMITAAcme-Ikamusume0.022010-12-11 01:20:32
KENTNLCave-Wrapper0.010000022010-12-11 03:14:33
DAGOLDENHTTP-Tiny0.0012010-12-11 07:59:31
FLORAFile-CheckTree4.42010-12-11 13:07:16
PEVANSParser-MGC0.012010-12-11 14:46:20
NPEREZReflexive-Role-Collective1.1034602010-12-11 19:52:02
GETTYDist-Zilla-Plugin-Run0.0012010-12-11 22:15:30
GRAYFinance-Card-Discover0.012010-12-12 07:11:14
SHLOMIFTest-Run-Plugin-BreakOnFailurev0.0.12010-12-12 13:51:17
SIXTEASEDateTime-TimeAgo0.012010-12-12 14:29:36
NHORNECGI-Info0.012010-12-12 22:25:04
IKEBEFurl-S30.012010-12-12 22:51:54
AVIKAKAlgorithm-DecisionTree1.02010-12-13 00:12:51
MOTEMENWebService-8tracks0.012010-12-13 07:53:00
GRIANEval-Compile0.102010-12-13 09:49:00
TOMFAHLEAcme-PM-Frankfurt-Meetings0.12010-12-13 15:29:00
ERIAMData-Generator0.0112010-12-13 16:21:56
MRAMBERGMojolicious-Plugin-Proxy0.12010-12-13 16:43:19
RJBSGlobal-Context0.0012010-12-13 22:49:37
KENTNLPaludis-UseCleaner0.010003072010-12-13 23:24:13
TOKUHIROMAmon22.092010-12-13 23:26:09
ASKADNAPlack-Middleware-Session-Fixation0.012010-12-14 04:09:36
ADAMKSDL-Tutorial-3DWorld0.012010-12-14 07:34:00
GWYNPOEx-HTTP-Server0.012010-12-14 11:25:00
APLANet-RabbitMQ-Channel0.012010-12-14 16:42:24
ATHOMASONList-MergeSorted-XS1.032010-12-14 17:00:38
BKASys-Hwloc0.042010-12-14 18:39:00
FLORADumpvalue1.142010-12-14 19:18:28
DWHEELERPlack-Middleware-MethodOverride0.102010-12-14 23:18:32
KAZEBURODBIx-Printf-Named0.012010-12-14 23:47:54
SIXTEASEDateTime-Duration-Fuzzy0.022010-12-15 08:28:38
CARMARKAcme-Letter0.012010-12-15 08:45:42
FLORADist-Zilla-Plugin-DualLife0.012010-12-15 13:06:16
ZOFFIXApp-ZofCMS-Plugin-UserLogin-ForgotPassword0.01012010-12-15 18:18:46
GREENconstant-our0.012010-12-15 20:09:00
SHARYANTOSHARYANTO-YAML-Any0.722010-12-15 22:19:57
ALYXWWW-Shorten-ISSM0.0012010-12-15 23:00:20
TYPESTERAnyEvent-Impl-NSRunLoop0.012010-12-16 00:56:41
TYPESTERCocoa-Growl0.012010-12-16 04:14:57
SAKOHTGenome0.012010-12-16 10:51:16
RWSTAUNERDist-Zilla-Role-DynamicConfig1.0010022010-12-16 11:30:15
RWSTAUNERDist-Zilla-Role-Stash-Plugins1.0020052010-12-16 11:37:12
RWSTAUNERDist-Zilla-Stash-PodWeaver1.0010002010-12-16 11:47:46
RWSTAUNERPod-Weaver-Plugin-StopWords1.0000012010-12-16 11:51:52
XAICRONData-Encoder0.022010-12-16 11:52:07
HOBBESTIGgandi-hosting0.12010-12-16 14:20:54
DAGOLDENDist-Zilla-Plugin-AppendExternalData0.0012010-12-16 14:47:42
TOBYINKHTML-Data-Parser0.0012010-12-16 17:54:26
PEVANSIO-Async-Loop-IO-Async0.012010-12-16 19:21:30
TPEDERSEWebService-UMLSKS-Similarity0.012010-12-16 19:29:18
BMORROWTest-Exports12010-12-16 23:39:31
RTHOMPSONPod-Weaver-Section-WarrantyDisclaimer0.1035102010-12-17 02:14:53
TOKUHIROMDBIx-Kohada0.012010-12-17 03:49:46
DAGOLDENDist-Zilla-Plugin-Doppelgaenger0.0012010-12-17 08:49:51
DAGOLDENCPAN-Meta-YAML0.0012010-12-17 08:54:11
BRONTOLog-Stderr1.002010-12-17 10:10:10
GARUSub-Frequency0.012010-12-17 10:31:09
ADAMKOpenGL-List0.012010-12-17 11:04:48
ZOFFIXApp-ZofCMS-Plugin-AccessDenied0.01012010-12-17 12:32:12
GWYNPOE-Wheel-Sendfile0.01002010-12-17 15:33:39
RTHOMPSONPod-Weaver-Plugin-EnsureUniqueSections0.1035102010-12-17 15:39:19
RTHOMPSONPod-Weaver-PluginBundle-RTHOMPSON0.1035102010-12-17 16:11:19
MEHHam-Locator0.00012010-12-17 16:22:02
RTHOMPSONDist-Zilla-Plugin-ReadmeAnyFromPod0.103520-TRIAL2010-12-17 22:51:58
RTHOMPSONDist-Zilla-PluginBundle-RTHOMPSON0.1035212010-12-18 00:03:44
ADAMKOpenGL-RWX0.012010-12-18 00:32:07
HANENKAMPData-Rx-TypeBundle-Rx0.1035202010-12-18 02:31:55
KENTNLData-Handle0.010113222010-12-18 05:14:39
OKAMUUUTest-Groonga0.022010-12-18 06:28:19
WREISCatalystX-SimpleAPI0.012010-12-18 09:49:18
MURUGUTest-XMLElement0.012010-12-18 11:01:33
GRAYGeo-Coder-Ovi0.012010-12-18 12:15:07
CORNELIUSI18N-Handle0.012010-12-18 18:07:41
RODRIGOrig0.01_012010-12-19 18:37:27
TJYANGPOE-Component-Client-Xymon0.012010-12-19 19:02:23
TJYANGPOE-Filter-Xymon0.012010-12-19 19:10:14
MATEUWeather-WWO0.012010-12-19 20:12:00
TOMITAEncode-UTF8Mac0.022010-12-20 01:16:19
MAKAMAKAJSON-PP2.271012010-12-20 03:52:31
RBODist-Zilla-PluginBundle-RBO0.0012010-12-20 04:25:52
TJYANGMonitor-Xymon-Server0.012010-12-20 05:54:04
INGYCogWiki0.012010-12-20 06:21:49
TJYANGMonitor-Xymon-Client0.012010-12-20 06:23:38
KENTNLApp-colourhexdump0.010000202010-12-20 07:42:14
HEDWIGNet-Twitpic0.012010-12-20 08:44:56
AMBSPOSIX-Open30.012010-12-20 13:35:22
SARAVANANWater0.012010-12-20 14:21:05
DROLSKYEmplacken0.012010-12-20 18:28:25
RBOApp-StaticImageGallery0.0012010-12-20 19:20:08
JJNAPIORKPlack-Middleware-DBIC-QueryLog0.012010-12-20 21:29:59
KARMANFile-Rules0.012010-12-20 22:20:39
DPCHRISTDpchrist-CvsUtil1.0172010-12-21 02:25:22
NOUDARDDancer-Plugin-SporeDefinitionControl0.022010-12-21 04:24:55
KANMultiplex-TCPv0.012010-12-21 09:02:08
KANMultiplex-CMDv0.012010-12-21 09:03:40
YANICKDist-Zilla-PluginBundle-YANICK0.0.12010-12-21 10:18:53
KANTCPServer-Interfacev0.1.02010-12-21 12:43:21
EILARAMooseX-Role-Listenable0.0012010-12-21 15:26:58
DOYKiokuDB-Serializer-Crypt0.012010-12-21 16:45:06
BIGPRESHDancer-Plugin-SimpleCRUD0.012010-12-21 19:14:23
NUFFINDist-Zilla-PluginBundle-NUFFIN0.012010-12-21 20:13:00
KANJob-MapReducev0.1.02010-12-21 23:48:58
ASKADNAPlack-Middleware-Session-FixationDefender0.042010-12-22 02:07:18
KARTHIKUNumber-Convert1.02010-12-22 04:33:38
NOUDARDDBIx-Class-Result-Validation0.032010-12-22 04:49:27
NOUDARDDBIx-Class-Result-ColumnData0.022010-12-22 04:54:00
NOUDARDDBIx-Class-Result-ProxyField0.012010-12-22 04:59:30
ZOFFIXApp-ZofCMS-Plugin-PreferentialOrder0.01012010-12-22 09:21:02
ZOFFIXApp-ZofCMS-Plugin-BoolSettingsManager0.01012010-12-22 14:52:03
JCONERLYWebService-Edgecast0.01.002010-12-22 16:08:47
RENEEBPerl-Critic-OTRS0.012010-12-22 20:37:14
RENEEBModule-OTRS-CoreList0.012010-12-22 21:01:56
TOKUHIROMEmail-MIME-MobileJP0.012010-12-23 00:33:17
MKANATCrypt-Random-Source-Strong-Win320.062010-12-23 03:25:10
SQUEEKIO-Async-Loop-KQueue0.012010-12-23 08:34:06
DMUEYString-Unquotemeta0.12010-12-23 14:25:46
SYMKATWebService-VaultPress-Partner0.01.002010-12-23 20:42:37
KOSTRapid7-NeXpose-API0.012010-12-24 01:26:45
TYPESTERCocoa-EventLoop0.012010-12-24 02:36:01
TJYANGCPAM-TWW0.012010-12-24 08:25:45
OLIVERDist-Zilla-PluginBundle-OLIVER1.1035812010-12-24 16:25:38
OLIVERDist-Zilla-Plugin-MetaResourcesFromGit1.1035902010-12-24 19:51:00
KENTNLRegexp-Grammars-Common-String0.010000012010-12-24 20:21:21
GAMModule-Install-AutoConf0.0012010-12-25 10:46:14
SIMEONarXiv1.012010-12-25 12:39:31
NARBEYDevice-Velleman-PPS100.012010-12-25 13:16:16
IDOPERELMongoDBx-Class0.12010-12-25 13:40:30
IDOPERELWolowitz0.12010-12-25 15:27:32
IDOPERELLocale-Wolowitz0.22010-12-26 09:02:36
MATEUChart-Weather-Forecast0.012010-12-26 18:20:17
ZOFFIXApp-ZofCMS-Plugin-StartPage0.01012010-12-26 18:34:31
ZOFFIXApp-ZofCMS-Plugin-CurrentPageURI0.01012010-12-26 21:21:24
BKBFile-Versions0.012010-12-27 07:05:42
TEEJAYCatalyst-TraitFor-Component-ConfigPerSite0.022010-12-27 09:13:04
ZOFFIXApp-ColorNamer0.01012010-12-27 09:50:52
JGOULAHWWW-Getsy0.9990012010-12-27 14:34:52
DCMERTENSExtUtils-nvcc0.012010-12-27 17:46:04
ADAMCNETIOM0.102010-12-27 22:55:17
BKBVideo-Subtitle-SBV0.012010-12-27 22:56:44
OVIDRole-Basic0.012010-12-28 04:05:01
PUCKApp-BCVI-AutoInstall0.12010-12-28 05:18:12
MKANATMath-Random-Secure0.012010-12-28 05:33:38
JENSLClass-Bind0.12010-12-28 09:11:14
GBARRAnyEvent-MongoDB0.103620_0012010-12-28 09:28:11
VPITTest-Leaner0.012010-12-28 11:58:23
JASONJAYRLog-Any-Adapter-FileHandle0.0012010-12-28 12:48:39
TWESTWINDFlame-Palette0.022010-12-28 18:43:11
ZOFFIXDevice-KOBOeReader0.01012010-12-28 20:10:00
TEAMProtocol-IMAP0.0012010-12-28 21:22:25
TEAMNet-Async-IMAP0.0012010-12-28 21:37:44
ZOFFIXPOE-Component-IRC-Plugin-ColorNamer0.01012010-12-28 21:43:23
ZZZNginx-Engine0.012010-12-28 22:17:00
HATENATest-Apache-RewriteRules1.02010-12-29 03:16:00
MATEUWeather-Underground-Forecast0.012010-12-29 11:04:45
PERLERMooseX-Attribute-Dependent1.0.02010-12-29 13:55:31
DJZORTNetAddr-MAC0.72010-12-29 23:08:46
HEUMANNNumber-Phone-AU0.012010-12-30 02:00:17
FOOLISHApp-rtpaste0.00012010-12-30 02:58:06
AWNCORPEmailesque1.1036402010-12-30 10:49:37
RWSTAUNERString-Substitution1.0000082010-12-30 14:19:36
DONEILLSendmail-Queue0.4002010-12-30 14:44:34
DONEILLMail-Header-Generator0.3012010-12-30 14:48:54
MARCELBrickyard1.1036402010-12-30 15:21:16
OKOPNIKTerm-Menu-Hierarchical0.012010-12-31 04:44:46
ZOFFIXApp-ZofCMS-Plugin-FeatureSuggestionBox0.01012010-12-31 10:08:55
YAPPOGeo-Coordinates-Converter-Format-Geohash0.012010-12-31 14:35:39
RWSTAUNERSet-DynamicGroups0.0130052010-12-31 18:10:23